<?xml version="1.0" encoding="UTF-8" standalone="no" ?>
<gpx xmlns="http://www.topografix.com/GPX/1/1" xmlns:xsi="http://www.w3.org/2001/XMLSchema-instance" xsi:schemaLocation="http://www.topografix.com/GPX/1/1 http://www.topografix.com/GPX/1/1/gpx.xsd" version="1.1" creator="VisuGPX - https://www.visugpx.com">
  <metadata>
    <name>Chien-3</name>
  </metadata>
  <trk>
    <name><![CDATA[Chien-3]]></name>
    <trkseg>
      <trkpt lat="47.85641" lon="-3.86268">
        <ele>5.8000001907349</ele>
        <time>2021-04-05T14:04:20Z</time>
      </trkpt>
      <trkpt lat="47.85642" lon="-3.86262">
        <ele>5</ele>
        <time>2021-04-05T14:04:21Z</time>
      </trkpt>
      <trkpt lat="47.85643" lon="-3.86255">
        <ele>5.1999998092651</ele>
        <time>2021-04-05T14:04:22Z</time>
      </trkpt>
      <trkpt lat="47.85643" lon="-3.86239">
        <ele>6.8000001907349</ele>
        <time>2021-04-05T14:04:24Z</time>
      </trkpt>
      <trkpt lat="47.85643" lon="-3.86212">
        <ele>7.4000000953674</ele>
        <time>2021-04-05T14:04:27Z</time>
      </trkpt>
      <trkpt lat="47.85643" lon="-3.86203">
        <ele>7.8000001907349</ele>
        <time>2021-04-05T14:04:28Z</time>
      </trkpt>
      <trkpt lat="47.85643" lon="-3.86175">
        <ele>6.8000001907349</ele>
        <time>2021-04-05T14:04:31Z</time>
      </trkpt>
      <trkpt lat="47.85644" lon="-3.86157">
        <ele>7.4000000953674</ele>
        <time>2021-04-05T14:04:33Z</time>
      </trkpt>
      <trkpt lat="47.85645" lon="-3.86101">
        <ele>7.1999998092651</ele>
        <time>2021-04-05T14:04:39Z</time>
      </trkpt>
      <trkpt lat="47.85648" lon="-3.86047">
        <ele>7.4000000953674</ele>
        <time>2021-04-05T14:04:45Z</time>
      </trkpt>
      <trkpt lat="47.85648" lon="-3.86038">
        <ele>8.3999996185303</ele>
        <time>2021-04-05T14:04:46Z</time>
      </trkpt>
      <trkpt lat="47.85656" lon="-3.85985">
        <ele>8.8000001907349</ele>
        <time>2021-04-05T14:04:52Z</time>
      </trkpt>
      <trkpt lat="47.85666" lon="-3.8593">
        <ele>8.3999996185303</ele>
        <time>2021-04-05T14:04:58Z</time>
      </trkpt>
      <trkpt lat="47.85677" lon="-3.85876">
        <ele>9</ele>
        <time>2021-04-05T14:05:04Z</time>
      </trkpt>
      <trkpt lat="47.85682" lon="-3.85843">
        <ele>9.3999996185303</ele>
        <time>2021-04-05T14:05:08Z</time>
      </trkpt>
      <trkpt lat="47.85684" lon="-3.85826">
        <ele>9</ele>
        <time>2021-04-05T14:05:10Z</time>
      </trkpt>
      <trkpt lat="47.85682" lon="-3.8581">
        <ele>9.6000003814697</ele>
        <time>2021-04-05T14:05:12Z</time>
      </trkpt>
      <trkpt lat="47.85678" lon="-3.85788">
        <ele>8.6000003814697</ele>
        <time>2021-04-05T14:05:15Z</time>
      </trkpt>
      <trkpt lat="47.85681" lon="-3.85774">
        <ele>8.1999998092651</ele>
        <time>2021-04-05T14:05:17Z</time>
      </trkpt>
      <trkpt lat="47.85688" lon="-3.85769">
        <ele>8.6000003814697</ele>
        <time>2021-04-05T14:05:19Z</time>
      </trkpt>
      <trkpt lat="47.85698" lon="-3.85774">
        <ele>8.6000003814697</ele>
        <time>2021-04-05T14:05:21Z</time>
      </trkpt>
      <trkpt lat="47.85712" lon="-3.85788">
        <ele>8.3999996185303</ele>
        <time>2021-04-05T14:05:24Z</time>
      </trkpt>
      <trkpt lat="47.85745" lon="-3.85806">
        <ele>9</ele>
        <time>2021-04-05T14:05:30Z</time>
      </trkpt>
      <trkpt lat="47.85761" lon="-3.85814">
        <ele>9.1999998092651</ele>
        <time>2021-04-05T14:05:33Z</time>
      </trkpt>
      <trkpt lat="47.85777" lon="-3.85823">
        <ele>8.1999998092651</ele>
        <time>2021-04-05T14:05:36Z</time>
      </trkpt>
      <trkpt lat="47.85796" lon="-3.85834">
        <ele>7</ele>
        <time>2021-04-05T14:05:39Z</time>
      </trkpt>
      <trkpt lat="47.85809" lon="-3.85841">
        <ele>5.8000001907349</ele>
        <time>2021-04-05T14:05:41Z</time>
      </trkpt>
      <trkpt lat="47.85851" lon="-3.85855">
        <ele>8</ele>
        <time>2021-04-05T14:05:47Z</time>
      </trkpt>
      <trkpt lat="47.8587" lon="-3.85856">
        <ele>9</ele>
        <time>2021-04-05T14:05:51Z</time>
      </trkpt>
      <trkpt lat="47.85886" lon="-3.85854">
        <ele>10</ele>
        <time>2021-04-05T14:05:54Z</time>
      </trkpt>
      <trkpt lat="47.85891" lon="-3.85854">
        <ele>10.800000190735</ele>
        <time>2021-04-05T14:05:55Z</time>
      </trkpt>
      <trkpt lat="47.85903" lon="-3.85853">
        <ele>9.8000001907349</ele>
        <time>2021-04-05T14:05:57Z</time>
      </trkpt>
      <trkpt lat="47.85915" lon="-3.85853">
        <ele>11</ele>
        <time>2021-04-05T14:05:59Z</time>
      </trkpt>
      <trkpt lat="47.85942" lon="-3.8585">
        <ele>11.199999809265</ele>
        <time>2021-04-05T14:06:04Z</time>
      </trkpt>
      <trkpt lat="47.85975" lon="-3.85847">
        <ele>11.39999961853</ele>
        <time>2021-04-05T14:06:10Z</time>
      </trkpt>
      <trkpt lat="47.86009" lon="-3.85855">
        <ele>9.8000001907349</ele>
        <time>2021-04-05T14:06:16Z</time>
      </trkpt>
      <trkpt lat="47.86048" lon="-3.85872">
        <ele>10.39999961853</ele>
        <time>2021-04-05T14:06:22Z</time>
      </trkpt>
      <trkpt lat="47.86066" lon="-3.8588">
        <ele>11.199999809265</ele>
        <time>2021-04-05T14:06:25Z</time>
      </trkpt>
      <trkpt lat="47.86077" lon="-3.85886">
        <ele>12.199999809265</ele>
        <time>2021-04-05T14:06:27Z</time>
      </trkpt>
      <trkpt lat="47.86104" lon="-3.85899">
        <ele>13</ele>
        <time>2021-04-05T14:06:33Z</time>
      </trkpt>
      <trkpt lat="47.86112" lon="-3.85902">
        <ele>13.60000038147</ele>
        <time>2021-04-05T14:06:35Z</time>
      </trkpt>
      <trkpt lat="47.86133" lon="-3.85911">
        <ele>14.800000190735</ele>
        <time>2021-04-05T14:06:40Z</time>
      </trkpt>
      <trkpt lat="47.86141" lon="-3.85913">
        <ele>16.200000762939</ele>
        <time>2021-04-05T14:06:42Z</time>
      </trkpt>
      <trkpt lat="47.86159" lon="-3.85919">
        <ele>14.800000190735</ele>
        <time>2021-04-05T14:06:46Z</time>
      </trkpt>
      <trkpt lat="47.86172" lon="-3.85922">
        <ele>13.800000190735</ele>
        <time>2021-04-05T14:06:49Z</time>
      </trkpt>
      <trkpt lat="47.86199" lon="-3.85929">
        <ele>14.39999961853</ele>
        <time>2021-04-05T14:06:55Z</time>
      </trkpt>
      <trkpt lat="47.86203" lon="-3.8593">
        <ele>15.199999809265</ele>
        <time>2021-04-05T14:06:56Z</time>
      </trkpt>
      <trkpt lat="47.8623" lon="-3.85939">
        <ele>15</ele>
        <time>2021-04-05T14:07:02Z</time>
      </trkpt>
      <trkpt lat="47.86261" lon="-3.85947">
        <ele>14.39999961853</ele>
        <time>2021-04-05T14:07:08Z</time>
      </trkpt>
      <trkpt lat="47.8628" lon="-3.85946">
        <ele>13.800000190735</ele>
        <time>2021-04-05T14:07:11Z</time>
      </trkpt>
      <trkpt lat="47.86286" lon="-3.85944">
        <ele>13.800000190735</ele>
        <time>2021-04-05T14:07:12Z</time>
      </trkpt>
      <trkpt lat="47.86301" lon="-3.85936">
        <ele>15</ele>
        <time>2021-04-05T14:07:15Z</time>
      </trkpt>
      <trkpt lat="47.8631" lon="-3.8593">
        <ele>16</ele>
        <time>2021-04-05T14:07:17Z</time>
      </trkpt>
      <trkpt lat="47.86336" lon="-3.85912">
        <ele>16.799999237061</ele>
        <time>2021-04-05T14:07:23Z</time>
      </trkpt>
      <trkpt lat="47.86349" lon="-3.85904">
        <ele>17</ele>
        <time>2021-04-05T14:07:26Z</time>
      </trkpt>
      <trkpt lat="47.86356" lon="-3.85899">
        <ele>18.39999961853</ele>
        <time>2021-04-05T14:07:28Z</time>
      </trkpt>
      <trkpt lat="47.8638" lon="-3.85884">
        <ele>19.200000762939</ele>
        <time>2021-04-05T14:07:34Z</time>
      </trkpt>
      <trkpt lat="47.86388" lon="-3.85879">
        <ele>19.60000038147</ele>
        <time>2021-04-05T14:07:36Z</time>
      </trkpt>
      <trkpt lat="47.86414" lon="-3.85869">
        <ele>20</ele>
        <time>2021-04-05T14:07:42Z</time>
      </trkpt>
      <trkpt lat="47.86431" lon="-3.85866">
        <ele>21.39999961853</ele>
        <time>2021-04-05T14:07:46Z</time>
      </trkpt>
      <trkpt lat="47.86456" lon="-3.85864">
        <ele>21.39999961853</ele>
        <time>2021-04-05T14:07:52Z</time>
      </trkpt>
      <trkpt lat="47.86484" lon="-3.85856">
        <ele>20.799999237061</ele>
        <time>2021-04-05T14:07:58Z</time>
      </trkpt>
      <trkpt lat="47.86494" lon="-3.8585">
        <ele>20.39999961853</ele>
        <time>2021-04-05T14:08:00Z</time>
      </trkpt>
      <trkpt lat="47.86498" lon="-3.85845">
        <ele>20.39999961853</ele>
        <time>2021-04-05T14:08:01Z</time>
      </trkpt>
      <trkpt lat="47.86513" lon="-3.85825">
        <ele>21.60000038147</ele>
        <time>2021-04-05T14:08:05Z</time>
      </trkpt>
      <trkpt lat="47.86526" lon="-3.858">
        <ele>21.799999237061</ele>
        <time>2021-04-05T14:08:09Z</time>
      </trkpt>
      <trkpt lat="47.86535" lon="-3.85782">
        <ele>21.60000038147</ele>
        <time>2021-04-05T14:08:12Z</time>
      </trkpt>
      <trkpt lat="47.86544" lon="-3.85764">
        <ele>21.200000762939</ele>
        <time>2021-04-05T14:08:15Z</time>
      </trkpt>
      <trkpt lat="47.86553" lon="-3.85749">
        <ele>20.799999237061</ele>
        <time>2021-04-05T14:08:18Z</time>
      </trkpt>
      <trkpt lat="47.8656" lon="-3.85741">
        <ele>21.39999961853</ele>
        <time>2021-04-05T14:08:20Z</time>
      </trkpt>
      <trkpt lat="47.86578" lon="-3.85726">
        <ele>22.60000038147</ele>
        <time>2021-04-05T14:08:25Z</time>
      </trkpt>
      <trkpt lat="47.8658" lon="-3.85722">
        <ele>23.39999961853</ele>
        <time>2021-04-05T14:08:26Z</time>
      </trkpt>
      <trkpt lat="47.86581" lon="-3.85717">
        <ele>23.60000038147</ele>
        <time>2021-04-05T14:08:27Z</time>
      </trkpt>
      <trkpt lat="47.86578" lon="-3.85705">
        <ele>23.60000038147</ele>
        <time>2021-04-05T14:08:29Z</time>
      </trkpt>
      <trkpt lat="47.86559" lon="-3.85682">
        <ele>22.39999961853</ele>
        <time>2021-04-05T14:08:34Z</time>
      </trkpt>
      <trkpt lat="47.8655" lon="-3.8567">
        <ele>21</ele>
        <time>2021-04-05T14:08:36Z</time>
      </trkpt>
      <trkpt lat="47.86536" lon="-3.85651">
        <ele>19.39999961853</ele>
        <time>2021-04-05T14:08:39Z</time>
      </trkpt>
      <trkpt lat="47.86522" lon="-3.85632">
        <ele>18</ele>
        <time>2021-04-05T14:08:42Z</time>
      </trkpt>
      <trkpt lat="47.86508" lon="-3.85613">
        <ele>18</ele>
        <time>2021-04-05T14:08:45Z</time>
      </trkpt>
      <trkpt lat="47.86499" lon="-3.85601">
        <ele>18.39999961853</ele>
        <time>2021-04-05T14:08:47Z</time>
      </trkpt>
      <trkpt lat="47.86489" lon="-3.85588">
        <ele>19.39999961853</ele>
        <time>2021-04-05T14:08:49Z</time>
      </trkpt>
      <trkpt lat="47.86461" lon="-3.85552">
        <ele>20.200000762939</ele>
        <time>2021-04-05T14:08:55Z</time>
      </trkpt>
      <trkpt lat="47.86452" lon="-3.85543">
        <ele>21</ele>
        <time>2021-04-05T14:08:57Z</time>
      </trkpt>
      <trkpt lat="47.86444" lon="-3.85536">
        <ele>22.39999961853</ele>
        <time>2021-04-05T14:08:59Z</time>
      </trkpt>
      <trkpt lat="47.86435" lon="-3.85528">
        <ele>23.60000038147</ele>
        <time>2021-04-05T14:09:01Z</time>
      </trkpt>
      <trkpt lat="47.86428" lon="-3.85523">
        <ele>24.60000038147</ele>
        <time>2021-04-05T14:09:03Z</time>
      </trkpt>
      <trkpt lat="47.86416" lon="-3.85514">
        <ele>25.799999237061</ele>
        <time>2021-04-05T14:09:06Z</time>
      </trkpt>
      <trkpt lat="47.86399" lon="-3.85506">
        <ele>27</ele>
        <time>2021-04-05T14:09:10Z</time>
      </trkpt>
      <trkpt lat="47.8637" lon="-3.85498">
        <ele>26.39999961853</ele>
        <time>2021-04-05T14:09:16Z</time>
      </trkpt>
      <trkpt lat="47.86352" lon="-3.85495">
        <ele>25.799999237061</ele>
        <time>2021-04-05T14:09:19Z</time>
      </trkpt>
      <trkpt lat="47.86319" lon="-3.85491">
        <ele>24.200000762939</ele>
        <time>2021-04-05T14:09:24Z</time>
      </trkpt>
      <trkpt lat="47.86299" lon="-3.85489">
        <ele>23</ele>
        <time>2021-04-05T14:09:27Z</time>
      </trkpt>
      <trkpt lat="47.8627" lon="-3.85485">
        <ele>22.60000038147</ele>
        <time>2021-04-05T14:09:31Z</time>
      </trkpt>
      <trkpt lat="47.86249" lon="-3.8548">
        <ele>22</ele>
        <time>2021-04-05T14:09:34Z</time>
      </trkpt>
      <trkpt lat="47.86207" lon="-3.85474">
        <ele>22.39999961853</ele>
        <time>2021-04-05T14:09:40Z</time>
      </trkpt>
      <trkpt lat="47.86168" lon="-3.85458">
        <ele>22.200000762939</ele>
        <time>2021-04-05T14:09:46Z</time>
      </trkpt>
      <trkpt lat="47.86137" lon="-3.85436">
        <ele>21.799999237061</ele>
        <time>2021-04-05T14:09:51Z</time>
      </trkpt>
      <trkpt lat="47.86113" lon="-3.85416">
        <ele>20.39999961853</ele>
        <time>2021-04-05T14:09:55Z</time>
      </trkpt>
      <trkpt lat="47.86106" lon="-3.85411">
        <ele>19.799999237061</ele>
        <time>2021-04-05T14:09:56Z</time>
      </trkpt>
      <trkpt lat="47.86099" lon="-3.85405">
        <ele>19.39999961853</ele>
        <time>2021-04-05T14:09:57Z</time>
      </trkpt>
      <trkpt lat="47.86077" lon="-3.85389">
        <ele>18.200000762939</ele>
        <time>2021-04-05T14:10:00Z</time>
      </trkpt>
      <trkpt lat="47.86062" lon="-3.85378">
        <ele>16.799999237061</ele>
        <time>2021-04-05T14:10:02Z</time>
      </trkpt>
      <trkpt lat="47.86027" lon="-3.8535">
        <ele>17</ele>
        <time>2021-04-05T14:10:07Z</time>
      </trkpt>
      <trkpt lat="47.86021" lon="-3.85344">
        <ele>16.799999237061</ele>
        <time>2021-04-05T14:10:08Z</time>
      </trkpt>
      <trkpt lat="47.86015" lon="-3.85338">
        <ele>16.60000038147</ele>
        <time>2021-04-05T14:10:09Z</time>
      </trkpt>
      <trkpt lat="47.86003" lon="-3.85326">
        <ele>16</ele>
        <time>2021-04-05T14:10:11Z</time>
      </trkpt>
      <trkpt lat="47.85997" lon="-3.8532">
        <ele>15.60000038147</ele>
        <time>2021-04-05T14:10:12Z</time>
      </trkpt>
      <trkpt lat="47.8599" lon="-3.85314">
        <ele>15</ele>
        <time>2021-04-05T14:10:13Z</time>
      </trkpt>
      <trkpt lat="47.85983" lon="-3.85308">
        <ele>14.60000038147</ele>
        <time>2021-04-05T14:10:14Z</time>
      </trkpt>
      <trkpt lat="47.85945" lon="-3.85286">
        <ele>16</ele>
        <time>2021-04-05T14:10:19Z</time>
      </trkpt>
      <trkpt lat="47.85914" lon="-3.85274">
        <ele>17.39999961853</ele>
        <time>2021-04-05T14:10:23Z</time>
      </trkpt>
      <trkpt lat="47.85891" lon="-3.8527">
        <ele>18.39999961853</ele>
        <time>2021-04-05T14:10:26Z</time>
      </trkpt>
      <trkpt lat="47.85868" lon="-3.85272">
        <ele>18.39999961853</ele>
        <time>2021-04-05T14:10:29Z</time>
      </trkpt>
      <trkpt lat="47.85835" lon="-3.85274">
        <ele>19.39999961853</ele>
        <time>2021-04-05T14:10:34Z</time>
      </trkpt>
      <trkpt lat="47.85823" lon="-3.85274">
        <ele>20</ele>
        <time>2021-04-05T14:10:36Z</time>
      </trkpt>
      <trkpt lat="47.85807" lon="-3.85273">
        <ele>20.200000762939</ele>
        <time>2021-04-05T14:10:39Z</time>
      </trkpt>
      <trkpt lat="47.85798" lon="-3.85267">
        <ele>20</ele>
        <time>2021-04-05T14:10:41Z</time>
      </trkpt>
      <trkpt lat="47.85781" lon="-3.85231">
        <ele>21</ele>
        <time>2021-04-05T14:10:46Z</time>
      </trkpt>
      <trkpt lat="47.85774" lon="-3.85216">
        <ele>22.200000762939</ele>
        <time>2021-04-05T14:10:48Z</time>
      </trkpt>
      <trkpt lat="47.8576" lon="-3.85184">
        <ele>21</ele>
        <time>2021-04-05T14:10:52Z</time>
      </trkpt>
      <trkpt lat="47.8575" lon="-3.85161">
        <ele>22.39999961853</ele>
        <time>2021-04-05T14:10:55Z</time>
      </trkpt>
      <trkpt lat="47.85737" lon="-3.8513">
        <ele>23</ele>
        <time>2021-04-05T14:10:59Z</time>
      </trkpt>
      <trkpt lat="47.85734" lon="-3.85123">
        <ele>23.39999961853</ele>
        <time>2021-04-05T14:11:00Z</time>
      </trkpt>
      <trkpt lat="47.85721" lon="-3.85097">
        <ele>23.39999961853</ele>
        <time>2021-04-05T14:11:04Z</time>
      </trkpt>
      <trkpt lat="47.85713" lon="-3.85088">
        <ele>24</ele>
        <time>2021-04-05T14:11:06Z</time>
      </trkpt>
      <trkpt lat="47.85708" lon="-3.85076">
        <ele>24</ele>
        <time>2021-04-05T14:11:08Z</time>
      </trkpt>
      <trkpt lat="47.85702" lon="-3.85061">
        <ele>24.799999237061</ele>
        <time>2021-04-05T14:11:10Z</time>
      </trkpt>
      <trkpt lat="47.85683" lon="-3.85018">
        <ele>24.60000038147</ele>
        <time>2021-04-05T14:11:16Z</time>
      </trkpt>
      <trkpt lat="47.85673" lon="-3.84996">
        <ele>25.799999237061</ele>
        <time>2021-04-05T14:11:19Z</time>
      </trkpt>
      <trkpt lat="47.85651" lon="-3.84955">
        <ele>26.200000762939</ele>
        <time>2021-04-05T14:11:25Z</time>
      </trkpt>
      <trkpt lat="47.85625" lon="-3.84919">
        <ele>26.39999961853</ele>
        <time>2021-04-05T14:11:31Z</time>
      </trkpt>
      <trkpt lat="47.8562" lon="-3.84905">
        <ele>27</ele>
        <time>2021-04-05T14:11:33Z</time>
      </trkpt>
      <trkpt lat="47.8561" lon="-3.84864">
        <ele>28.200000762939</ele>
        <time>2021-04-05T14:11:38Z</time>
      </trkpt>
      <trkpt lat="47.85603" lon="-3.84829">
        <ele>26.200000762939</ele>
        <time>2021-04-05T14:11:42Z</time>
      </trkpt>
      <trkpt lat="47.85599" lon="-3.84811">
        <ele>26.200000762939</ele>
        <time>2021-04-05T14:11:44Z</time>
      </trkpt>
      <trkpt lat="47.85578" lon="-3.84763">
        <ele>26.39999961853</ele>
        <time>2021-04-05T14:11:50Z</time>
      </trkpt>
      <trkpt lat="47.85555" lon="-3.84714">
        <ele>25</ele>
        <time>2021-04-05T14:11:56Z</time>
      </trkpt>
      <trkpt lat="47.85548" lon="-3.84698">
        <ele>23.60000038147</ele>
        <time>2021-04-05T14:11:58Z</time>
      </trkpt>
      <trkpt lat="47.85535" lon="-3.84667">
        <ele>24.39999961853</ele>
        <time>2021-04-05T14:12:02Z</time>
      </trkpt>
      <trkpt lat="47.85532" lon="-3.8466">
        <ele>24.799999237061</ele>
        <time>2021-04-05T14:12:03Z</time>
      </trkpt>
      <trkpt lat="47.85518" lon="-3.84634">
        <ele>25.200000762939</ele>
        <time>2021-04-05T14:12:07Z</time>
      </trkpt>
      <trkpt lat="47.85506" lon="-3.84625">
        <ele>25.39999961853</ele>
        <time>2021-04-05T14:12:13Z</time>
      </trkpt>
      <trkpt lat="47.85506" lon="-3.84625">
        <ele>25.200000762939</ele>
        <time>2021-04-05T14:12:14Z</time>
      </trkpt>
      <trkpt lat="47.85501" lon="-3.84621">
        <ele>25.39999961853</ele>
        <time>2021-04-05T14:12:26Z</time>
      </trkpt>
      <trkpt lat="47.85497" lon="-3.84614">
        <ele>25</ele>
        <time>2021-04-05T14:12:28Z</time>
      </trkpt>
      <trkpt lat="47.85496" lon="-3.84609">
        <ele>24.799999237061</ele>
        <time>2021-04-05T14:12:29Z</time>
      </trkpt>
      <trkpt lat="47.85493" lon="-3.84578">
        <ele>25.200000762939</ele>
        <time>2021-04-05T14:12:34Z</time>
      </trkpt>
      <trkpt lat="47.8549" lon="-3.84565">
        <ele>25.799999237061</ele>
        <time>2021-04-05T14:12:36Z</time>
      </trkpt>
      <trkpt lat="47.85487" lon="-3.84559">
        <ele>26</ele>
        <time>2021-04-05T14:12:37Z</time>
      </trkpt>
      <trkpt lat="47.85479" lon="-3.84541">
        <ele>26</ele>
        <time>2021-04-05T14:12:40Z</time>
      </trkpt>
      <trkpt lat="47.85469" lon="-3.84522">
        <ele>26</ele>
        <time>2021-04-05T14:12:43Z</time>
      </trkpt>
      <trkpt lat="47.85455" lon="-3.84497">
        <ele>24.799999237061</ele>
        <time>2021-04-05T14:12:47Z</time>
      </trkpt>
      <trkpt lat="47.85432" lon="-3.84457">
        <ele>25</ele>
        <time>2021-04-05T14:12:53Z</time>
      </trkpt>
      <trkpt lat="47.85405" lon="-3.84413">
        <ele>24.60000038147</ele>
        <time>2021-04-05T14:12:59Z</time>
      </trkpt>
      <trkpt lat="47.85378" lon="-3.8437">
        <ele>24.799999237061</ele>
        <time>2021-04-05T14:13:05Z</time>
      </trkpt>
      <trkpt lat="47.8535" lon="-3.84327">
        <ele>25.799999237061</ele>
        <time>2021-04-05T14:13:11Z</time>
      </trkpt>
      <trkpt lat="47.85341" lon="-3.84313">
        <ele>26.200000762939</ele>
        <time>2021-04-05T14:13:13Z</time>
      </trkpt>
      <trkpt lat="47.85315" lon="-3.8427">
        <ele>27</ele>
        <time>2021-04-05T14:13:19Z</time>
      </trkpt>
      <trkpt lat="47.85301" lon="-3.84248">
        <ele>27.200000762939</ele>
        <time>2021-04-05T14:13:22Z</time>
      </trkpt>
      <trkpt lat="47.85273" lon="-3.84205">
        <ele>27.200000762939</ele>
        <time>2021-04-05T14:13:28Z</time>
      </trkpt>
      <trkpt lat="47.85247" lon="-3.84163">
        <ele>27.39999961853</ele>
        <time>2021-04-05T14:13:34Z</time>
      </trkpt>
      <trkpt lat="47.85234" lon="-3.84142">
        <ele>28.39999961853</ele>
        <time>2021-04-05T14:13:37Z</time>
      </trkpt>
      <trkpt lat="47.85208" lon="-3.84102">
        <ele>29.200000762939</ele>
        <time>2021-04-05T14:13:43Z</time>
      </trkpt>
      <trkpt lat="47.85182" lon="-3.84061">
        <ele>29.200000762939</ele>
        <time>2021-04-05T14:13:49Z</time>
      </trkpt>
      <trkpt lat="47.85177" lon="-3.84054">
        <ele>30</ele>
        <time>2021-04-05T14:13:50Z</time>
      </trkpt>
      <trkpt lat="47.8515" lon="-3.84012">
        <ele>30.799999237061</ele>
        <time>2021-04-05T14:13:56Z</time>
      </trkpt>
      <trkpt lat="47.85141" lon="-3.83997">
        <ele>31</ele>
        <time>2021-04-05T14:13:58Z</time>
      </trkpt>
      <trkpt lat="47.85127" lon="-3.83976">
        <ele>31</ele>
        <time>2021-04-05T14:14:01Z</time>
      </trkpt>
      <trkpt lat="47.85104" lon="-3.83941">
        <ele>32</ele>
        <time>2021-04-05T14:14:06Z</time>
      </trkpt>
      <trkpt lat="47.85095" lon="-3.83928">
        <ele>32.200000762939</ele>
        <time>2021-04-05T14:14:08Z</time>
      </trkpt>
      <trkpt lat="47.85085" lon="-3.83923">
        <ele>32.599998474121</ele>
        <time>2021-04-05T14:14:10Z</time>
      </trkpt>
      <trkpt lat="47.8508" lon="-3.83927">
        <ele>33.200000762939</ele>
        <time>2021-04-05T14:14:11Z</time>
      </trkpt>
      <trkpt lat="47.85077" lon="-3.83932">
        <ele>33.400001525879</ele>
        <time>2021-04-05T14:14:12Z</time>
      </trkpt>
      <trkpt lat="47.8506" lon="-3.83971">
        <ele>33.599998474121</ele>
        <time>2021-04-05T14:14:18Z</time>
      </trkpt>
      <trkpt lat="47.85044" lon="-3.84012">
        <ele>33.400001525879</ele>
        <time>2021-04-05T14:14:24Z</time>
      </trkpt>
      <trkpt lat="47.85037" lon="-3.84028">
        <ele>34.200000762939</ele>
        <time>2021-04-05T14:14:27Z</time>
      </trkpt>
      <trkpt lat="47.85023" lon="-3.84006">
        <ele>35.200000762939</ele>
        <time>2021-04-05T14:14:33Z</time>
      </trkpt>
      <trkpt lat="47.8502" lon="-3.84">
        <ele>35.400001525879</ele>
        <time>2021-04-05T14:14:34Z</time>
      </trkpt>
      <trkpt lat="47.85004" lon="-3.83975">
        <ele>35.400001525879</ele>
        <time>2021-04-05T14:14:39Z</time>
      </trkpt>
      <trkpt lat="47.8499" lon="-3.83965">
        <ele>35.200000762939</ele>
        <time>2021-04-05T14:14:42Z</time>
      </trkpt>
      <trkpt lat="47.84979" lon="-3.83961">
        <ele>35</ele>
        <time>2021-04-05T14:14:44Z</time>
      </trkpt>
      <trkpt lat="47.84967" lon="-3.83958">
        <ele>34.400001525879</ele>
        <time>2021-04-05T14:14:46Z</time>
      </trkpt>
      <trkpt lat="47.84947" lon="-3.83956">
        <ele>33.200000762939</ele>
        <time>2021-04-05T14:14:49Z</time>
      </trkpt>
      <trkpt lat="47.84939" lon="-3.83955">
        <ele>32.200000762939</ele>
        <time>2021-04-05T14:14:50Z</time>
      </trkpt>
      <trkpt lat="47.84923" lon="-3.83955">
        <ele>31</ele>
        <time>2021-04-05T14:14:52Z</time>
      </trkpt>
      <trkpt lat="47.84915" lon="-3.83954">
        <ele>29.799999237061</ele>
        <time>2021-04-05T14:14:53Z</time>
      </trkpt>
      <trkpt lat="47.84899" lon="-3.83952">
        <ele>28.39999961853</ele>
        <time>2021-04-05T14:14:55Z</time>
      </trkpt>
      <trkpt lat="47.84881" lon="-3.83947">
        <ele>26.799999237061</ele>
        <time>2021-04-05T14:14:57Z</time>
      </trkpt>
      <trkpt lat="47.84862" lon="-3.83938">
        <ele>24.799999237061</ele>
        <time>2021-04-05T14:14:59Z</time>
      </trkpt>
      <trkpt lat="47.84841" lon="-3.83928">
        <ele>23.799999237061</ele>
        <time>2021-04-05T14:15:01Z</time>
      </trkpt>
      <trkpt lat="47.84822" lon="-3.83916">
        <ele>21.799999237061</ele>
        <time>2021-04-05T14:15:03Z</time>
      </trkpt>
      <trkpt lat="47.84813" lon="-3.83909">
        <ele>21.60000038147</ele>
        <time>2021-04-05T14:15:04Z</time>
      </trkpt>
      <trkpt lat="47.84804" lon="-3.839">
        <ele>19.799999237061</ele>
        <time>2021-04-05T14:15:05Z</time>
      </trkpt>
      <trkpt lat="47.84796" lon="-3.83889">
        <ele>20.200000762939</ele>
        <time>2021-04-05T14:15:06Z</time>
      </trkpt>
      <trkpt lat="47.84782" lon="-3.83867">
        <ele>19.60000038147</ele>
        <time>2021-04-05T14:15:08Z</time>
      </trkpt>
      <trkpt lat="47.84777" lon="-3.83852">
        <ele>18.39999961853</ele>
        <time>2021-04-05T14:15:09Z</time>
      </trkpt>
      <trkpt lat="47.84773" lon="-3.83836">
        <ele>18.39999961853</ele>
        <time>2021-04-05T14:15:10Z</time>
      </trkpt>
      <trkpt lat="47.8477" lon="-3.83821">
        <ele>20.200000762939</ele>
        <time>2021-04-05T14:15:11Z</time>
      </trkpt>
      <trkpt lat="47.84763" lon="-3.83791">
        <ele>18</ele>
        <time>2021-04-05T14:15:13Z</time>
      </trkpt>
      <trkpt lat="47.84757" lon="-3.83777">
        <ele>16.799999237061</ele>
        <time>2021-04-05T14:15:14Z</time>
      </trkpt>
      <trkpt lat="47.8475" lon="-3.83766">
        <ele>17</ele>
        <time>2021-04-05T14:15:15Z</time>
      </trkpt>
      <trkpt lat="47.84732" lon="-3.83751">
        <ele>17.60000038147</ele>
        <time>2021-04-05T14:15:17Z</time>
      </trkpt>
      <trkpt lat="47.84687" lon="-3.83721">
        <ele>15.800000190735</ele>
        <time>2021-04-05T14:15:22Z</time>
      </trkpt>
      <trkpt lat="47.84669" lon="-3.83709">
        <ele>16.799999237061</ele>
        <time>2021-04-05T14:15:24Z</time>
      </trkpt>
      <trkpt lat="47.84659" lon="-3.83705">
        <ele>17.39999961853</ele>
        <time>2021-04-05T14:15:25Z</time>
      </trkpt>
      <trkpt lat="47.8465" lon="-3.83702">
        <ele>17.60000038147</ele>
        <time>2021-04-05T14:15:26Z</time>
      </trkpt>
      <trkpt lat="47.84589" lon="-3.83705">
        <ele>17.200000762939</ele>
        <time>2021-04-05T14:15:32Z</time>
      </trkpt>
      <trkpt lat="47.84531" lon="-3.83714">
        <ele>17.200000762939</ele>
        <time>2021-04-05T14:15:38Z</time>
      </trkpt>
      <trkpt lat="47.84492" lon="-3.8371">
        <ele>16.200000762939</ele>
        <time>2021-04-05T14:15:42Z</time>
      </trkpt>
      <trkpt lat="47.84434" lon="-3.83696">
        <ele>15.60000038147</ele>
        <time>2021-04-05T14:15:48Z</time>
      </trkpt>
      <trkpt lat="47.84395" lon="-3.83687">
        <ele>15.199999809265</ele>
        <time>2021-04-05T14:15:52Z</time>
      </trkpt>
      <trkpt lat="47.84375" lon="-3.83681">
        <ele>13.60000038147</ele>
        <time>2021-04-05T14:15:54Z</time>
      </trkpt>
      <trkpt lat="47.84334" lon="-3.83675">
        <ele>13.39999961853</ele>
        <time>2021-04-05T14:15:58Z</time>
      </trkpt>
      <trkpt lat="47.84313" lon="-3.83679">
        <ele>12.199999809265</ele>
        <time>2021-04-05T14:16:00Z</time>
      </trkpt>
      <trkpt lat="47.84272" lon="-3.83691">
        <ele>12.60000038147</ele>
        <time>2021-04-05T14:16:04Z</time>
      </trkpt>
      <trkpt lat="47.84214" lon="-3.83678">
        <ele>12.60000038147</ele>
        <time>2021-04-05T14:16:10Z</time>
      </trkpt>
      <trkpt lat="47.8416" lon="-3.83643">
        <ele>11.800000190735</ele>
        <time>2021-04-05T14:16:16Z</time>
      </trkpt>
      <trkpt lat="47.84142" lon="-3.83633">
        <ele>11.199999809265</ele>
        <time>2021-04-05T14:16:18Z</time>
      </trkpt>
      <trkpt lat="47.84097" lon="-3.8361">
        <ele>9.8000001907349</ele>
        <time>2021-04-05T14:16:23Z</time>
      </trkpt>
      <trkpt lat="47.84078" lon="-3.836">
        <ele>8.6000003814697</ele>
        <time>2021-04-05T14:16:25Z</time>
      </trkpt>
      <trkpt lat="47.84059" lon="-3.8359">
        <ele>7.5999999046326</ele>
        <time>2021-04-05T14:16:27Z</time>
      </trkpt>
      <trkpt lat="47.8405" lon="-3.83585">
        <ele>6.1999998092651</ele>
        <time>2021-04-05T14:16:28Z</time>
      </trkpt>
      <trkpt lat="47.8401" lon="-3.83562">
        <ele>7.4000000953674</ele>
        <time>2021-04-05T14:16:32Z</time>
      </trkpt>
      <trkpt lat="47.83991" lon="-3.83551">
        <ele>8.3999996185303</ele>
        <time>2021-04-05T14:16:34Z</time>
      </trkpt>
      <trkpt lat="47.83974" lon="-3.83539">
        <ele>10.60000038147</ele>
        <time>2021-04-05T14:16:36Z</time>
      </trkpt>
      <trkpt lat="47.83958" lon="-3.83528">
        <ele>12.39999961853</ele>
        <time>2021-04-05T14:16:38Z</time>
      </trkpt>
      <trkpt lat="47.83935" lon="-3.83513">
        <ele>13.39999961853</ele>
        <time>2021-04-05T14:16:41Z</time>
      </trkpt>
      <trkpt lat="47.8392" lon="-3.83503">
        <ele>14.800000190735</ele>
        <time>2021-04-05T14:16:43Z</time>
      </trkpt>
      <trkpt lat="47.83905" lon="-3.83493">
        <ele>16.60000038147</ele>
        <time>2021-04-05T14:16:45Z</time>
      </trkpt>
      <trkpt lat="47.83898" lon="-3.83488">
        <ele>17.39999961853</ele>
        <time>2021-04-05T14:16:46Z</time>
      </trkpt>
      <trkpt lat="47.83891" lon="-3.83483">
        <ele>17.799999237061</ele>
        <time>2021-04-05T14:16:47Z</time>
      </trkpt>
      <trkpt lat="47.83878" lon="-3.83472">
        <ele>19.200000762939</ele>
        <time>2021-04-05T14:16:49Z</time>
      </trkpt>
      <trkpt lat="47.83847" lon="-3.83447">
        <ele>20.60000038147</ele>
        <time>2021-04-05T14:16:54Z</time>
      </trkpt>
      <trkpt lat="47.83821" lon="-3.83426">
        <ele>21.39999961853</ele>
        <time>2021-04-05T14:16:58Z</time>
      </trkpt>
      <trkpt lat="47.83809" lon="-3.83409">
        <ele>21.39999961853</ele>
        <time>2021-04-05T14:17:00Z</time>
      </trkpt>
      <trkpt lat="47.83804" lon="-3.83399">
        <ele>22</ele>
        <time>2021-04-05T14:17:01Z</time>
      </trkpt>
      <trkpt lat="47.83779" lon="-3.83342">
        <ele>22.799999237061</ele>
        <time>2021-04-05T14:17:07Z</time>
      </trkpt>
      <trkpt lat="47.83758" lon="-3.83295">
        <ele>21</ele>
        <time>2021-04-05T14:17:12Z</time>
      </trkpt>
      <trkpt lat="47.83734" lon="-3.83262">
        <ele>20</ele>
        <time>2021-04-05T14:17:16Z</time>
      </trkpt>
      <trkpt lat="47.83713" lon="-3.8324">
        <ele>18.799999237061</ele>
        <time>2021-04-05T14:17:19Z</time>
      </trkpt>
      <trkpt lat="47.83693" lon="-3.83215">
        <ele>17.60000038147</ele>
        <time>2021-04-05T14:17:22Z</time>
      </trkpt>
      <trkpt lat="47.8368" lon="-3.83198">
        <ele>16.200000762939</ele>
        <time>2021-04-05T14:17:24Z</time>
      </trkpt>
      <trkpt lat="47.83654" lon="-3.83163">
        <ele>15</ele>
        <time>2021-04-05T14:17:28Z</time>
      </trkpt>
      <trkpt lat="47.83634" lon="-3.83136">
        <ele>14</ele>
        <time>2021-04-05T14:17:31Z</time>
      </trkpt>
      <trkpt lat="47.836" lon="-3.83093">
        <ele>13.60000038147</ele>
        <time>2021-04-05T14:17:36Z</time>
      </trkpt>
      <trkpt lat="47.83566" lon="-3.83053">
        <ele>12.800000190735</ele>
        <time>2021-04-05T14:17:41Z</time>
      </trkpt>
      <trkpt lat="47.83559" lon="-3.83047">
        <ele>12.39999961853</ele>
        <time>2021-04-05T14:17:42Z</time>
      </trkpt>
      <trkpt lat="47.83528" lon="-3.83024">
        <ele>12.199999809265</ele>
        <time>2021-04-05T14:17:46Z</time>
      </trkpt>
      <trkpt lat="47.83508" lon="-3.83">
        <ele>11.60000038147</ele>
        <time>2021-04-05T14:17:49Z</time>
      </trkpt>
      <trkpt lat="47.83466" lon="-3.82951">
        <ele>10.199999809265</ele>
        <time>2021-04-05T14:17:55Z</time>
      </trkpt>
      <trkpt lat="47.83429" lon="-3.82903">
        <ele>8.3999996185303</ele>
        <time>2021-04-05T14:18:00Z</time>
      </trkpt>
      <trkpt lat="47.83413" lon="-3.82881">
        <ele>6.8000001907349</ele>
        <time>2021-04-05T14:18:02Z</time>
      </trkpt>
      <trkpt lat="47.83405" lon="-3.82869">
        <ele>5</ele>
        <time>2021-04-05T14:18:03Z</time>
      </trkpt>
      <trkpt lat="47.83397" lon="-3.82857">
        <ele>3.7999999523163</ele>
        <time>2021-04-05T14:18:04Z</time>
      </trkpt>
      <trkpt lat="47.8338" lon="-3.82832">
        <ele>2.2000000476837</ele>
        <time>2021-04-05T14:18:06Z</time>
      </trkpt>
      <trkpt lat="47.83361" lon="-3.8281">
        <ele>3.2000000476837</ele>
        <time>2021-04-05T14:18:08Z</time>
      </trkpt>
      <trkpt lat="47.83352" lon="-3.82801">
        <ele>4</ele>
        <time>2021-04-05T14:18:09Z</time>
      </trkpt>
      <trkpt lat="47.83332" lon="-3.82783">
        <ele>5.4000000953674</ele>
        <time>2021-04-05T14:18:11Z</time>
      </trkpt>
      <trkpt lat="47.83323" lon="-3.82773">
        <ele>6.5999999046326</ele>
        <time>2021-04-05T14:18:12Z</time>
      </trkpt>
      <trkpt lat="47.83314" lon="-3.82763">
        <ele>7.5999999046326</ele>
        <time>2021-04-05T14:18:13Z</time>
      </trkpt>
      <trkpt lat="47.83299" lon="-3.82742">
        <ele>7.8000001907349</ele>
        <time>2021-04-05T14:18:15Z</time>
      </trkpt>
      <trkpt lat="47.83273" lon="-3.82715">
        <ele>7.5999999046326</ele>
        <time>2021-04-05T14:18:18Z</time>
      </trkpt>
      <trkpt lat="47.83255" lon="-3.827">
        <ele>7.1999998092651</ele>
        <time>2021-04-05T14:18:20Z</time>
      </trkpt>
      <trkpt lat="47.83229" lon="-3.82681">
        <ele>8.6000003814697</ele>
        <time>2021-04-05T14:18:23Z</time>
      </trkpt>
      <trkpt lat="47.83221" lon="-3.82675">
        <ele>9.1999998092651</ele>
        <time>2021-04-05T14:18:24Z</time>
      </trkpt>
      <trkpt lat="47.83206" lon="-3.82664">
        <ele>10.39999961853</ele>
        <time>2021-04-05T14:18:26Z</time>
      </trkpt>
      <trkpt lat="47.83164" lon="-3.82637">
        <ele>11.39999961853</ele>
        <time>2021-04-05T14:18:32Z</time>
      </trkpt>
      <trkpt lat="47.83158" lon="-3.82634">
        <ele>12</ele>
        <time>2021-04-05T14:18:33Z</time>
      </trkpt>
      <trkpt lat="47.83139" lon="-3.82623">
        <ele>13.199999809265</ele>
        <time>2021-04-05T14:18:36Z</time>
      </trkpt>
      <trkpt lat="47.83123" lon="-3.82613">
        <ele>14.39999961853</ele>
        <time>2021-04-05T14:18:39Z</time>
      </trkpt>
      <trkpt lat="47.83113" lon="-3.82607">
        <ele>15.60000038147</ele>
        <time>2021-04-05T14:18:41Z</time>
      </trkpt>
      <trkpt lat="47.83083" lon="-3.82591">
        <ele>16.60000038147</ele>
        <time>2021-04-05T14:18:47Z</time>
      </trkpt>
      <trkpt lat="47.83078" lon="-3.82589">
        <ele>16.799999237061</ele>
        <time>2021-04-05T14:18:48Z</time>
      </trkpt>
      <trkpt lat="47.83051" lon="-3.82576">
        <ele>17.60000038147</ele>
        <time>2021-04-05T14:18:54Z</time>
      </trkpt>
      <trkpt lat="47.83039" lon="-3.82568">
        <ele>17.60000038147</ele>
        <time>2021-04-05T14:18:58Z</time>
      </trkpt>
      <trkpt lat="47.83036" lon="-3.82539">
        <ele>17.799999237061</ele>
        <time>2021-04-05T14:19:04Z</time>
      </trkpt>
      <trkpt lat="47.83038" lon="-3.82501">
        <ele>17.60000038147</ele>
        <time>2021-04-05T14:19:10Z</time>
      </trkpt>
      <trkpt lat="47.83042" lon="-3.82455">
        <ele>17.60000038147</ele>
        <time>2021-04-05T14:19:16Z</time>
      </trkpt>
      <trkpt lat="47.83047" lon="-3.82408">
        <ele>17</ele>
        <time>2021-04-05T14:19:22Z</time>
      </trkpt>
      <trkpt lat="47.83055" lon="-3.82362">
        <ele>17.39999961853</ele>
        <time>2021-04-05T14:19:28Z</time>
      </trkpt>
      <trkpt lat="47.83057" lon="-3.82355">
        <ele>17</ele>
        <time>2021-04-05T14:19:29Z</time>
      </trkpt>
      <trkpt lat="47.83063" lon="-3.82342">
        <ele>17.200000762939</ele>
        <time>2021-04-05T14:19:31Z</time>
      </trkpt>
      <trkpt lat="47.83073" lon="-3.82325">
        <ele>17.200000762939</ele>
        <time>2021-04-05T14:19:34Z</time>
      </trkpt>
      <trkpt lat="47.83083" lon="-3.82306">
        <ele>17.200000762939</ele>
        <time>2021-04-05T14:19:37Z</time>
      </trkpt>
      <trkpt lat="47.83088" lon="-3.8229">
        <ele>17.39999961853</ele>
        <time>2021-04-05T14:19:39Z</time>
      </trkpt>
      <trkpt lat="47.8309" lon="-3.82273">
        <ele>17.39999961853</ele>
        <time>2021-04-05T14:19:41Z</time>
      </trkpt>
      <trkpt lat="47.83086" lon="-3.82256">
        <ele>17.799999237061</ele>
        <time>2021-04-05T14:19:43Z</time>
      </trkpt>
      <trkpt lat="47.83074" lon="-3.82218">
        <ele>18.799999237061</ele>
        <time>2021-04-05T14:19:48Z</time>
      </trkpt>
      <trkpt lat="47.83072" lon="-3.82212">
        <ele>18.799999237061</ele>
        <time>2021-04-05T14:19:49Z</time>
      </trkpt>
      <trkpt lat="47.83068" lon="-3.82201">
        <ele>20</ele>
        <time>2021-04-05T14:19:51Z</time>
      </trkpt>
      <trkpt lat="47.83063" lon="-3.82184">
        <ele>21</ele>
        <time>2021-04-05T14:19:54Z</time>
      </trkpt>
      <trkpt lat="47.83058" lon="-3.82167">
        <ele>22.39999961853</ele>
        <time>2021-04-05T14:19:57Z</time>
      </trkpt>
      <trkpt lat="47.83052" lon="-3.8215">
        <ele>23.60000038147</ele>
        <time>2021-04-05T14:20:00Z</time>
      </trkpt>
      <trkpt lat="47.83043" lon="-3.82109">
        <ele>24.60000038147</ele>
        <time>2021-04-05T14:20:05Z</time>
      </trkpt>
      <trkpt lat="47.8304" lon="-3.82084">
        <ele>24.799999237061</ele>
        <time>2021-04-05T14:20:08Z</time>
      </trkpt>
      <trkpt lat="47.83041" lon="-3.82037">
        <ele>24.39999961853</ele>
        <time>2021-04-05T14:20:14Z</time>
      </trkpt>
      <trkpt lat="47.83046" lon="-3.81996">
        <ele>24.799999237061</ele>
        <time>2021-04-05T14:20:20Z</time>
      </trkpt>
      <trkpt lat="47.8305" lon="-3.81947">
        <ele>25</ele>
        <time>2021-04-05T14:20:26Z</time>
      </trkpt>
      <trkpt lat="47.83049" lon="-3.81907">
        <ele>25.39999961853</ele>
        <time>2021-04-05T14:20:31Z</time>
      </trkpt>
      <trkpt lat="47.83044" lon="-3.81893">
        <ele>25.799999237061</ele>
        <time>2021-04-05T14:20:33Z</time>
      </trkpt>
      <trkpt lat="47.83023" lon="-3.81852">
        <ele>26</ele>
        <time>2021-04-05T14:20:39Z</time>
      </trkpt>
      <trkpt lat="47.82998" lon="-3.81812">
        <ele>25.200000762939</ele>
        <time>2021-04-05T14:20:45Z</time>
      </trkpt>
      <trkpt lat="47.82976" lon="-3.81777">
        <ele>24.39999961853</ele>
        <time>2021-04-05T14:20:50Z</time>
      </trkpt>
      <trkpt lat="47.82968" lon="-3.81762">
        <ele>24.200000762939</ele>
        <time>2021-04-05T14:20:52Z</time>
      </trkpt>
      <trkpt lat="47.82963" lon="-3.81742">
        <ele>23</ele>
        <time>2021-04-05T14:20:54Z</time>
      </trkpt>
      <trkpt lat="47.8296" lon="-3.81674">
        <ele>23.200000762939</ele>
        <time>2021-04-05T14:21:00Z</time>
      </trkpt>
      <trkpt lat="47.82962" lon="-3.81608">
        <ele>23.39999961853</ele>
        <time>2021-04-05T14:21:06Z</time>
      </trkpt>
      <trkpt lat="47.82964" lon="-3.81575">
        <ele>21.799999237061</ele>
        <time>2021-04-05T14:21:09Z</time>
      </trkpt>
      <trkpt lat="47.82965" lon="-3.81529">
        <ele>20</ele>
        <time>2021-04-05T14:21:13Z</time>
      </trkpt>
      <trkpt lat="47.82965" lon="-3.8146">
        <ele>19.39999961853</ele>
        <time>2021-04-05T14:21:19Z</time>
      </trkpt>
      <trkpt lat="47.8296" lon="-3.81392">
        <ele>20</ele>
        <time>2021-04-05T14:21:25Z</time>
      </trkpt>
      <trkpt lat="47.82954" lon="-3.81359">
        <ele>19</ele>
        <time>2021-04-05T14:21:28Z</time>
      </trkpt>
      <trkpt lat="47.82947" lon="-3.81294">
        <ele>19</ele>
        <time>2021-04-05T14:21:34Z</time>
      </trkpt>
      <trkpt lat="47.82945" lon="-3.81262">
        <ele>20</ele>
        <time>2021-04-05T14:21:37Z</time>
      </trkpt>
      <trkpt lat="47.82947" lon="-3.81197">
        <ele>20.799999237061</ele>
        <time>2021-04-05T14:21:43Z</time>
      </trkpt>
      <trkpt lat="47.82952" lon="-3.81133">
        <ele>20.60000038147</ele>
        <time>2021-04-05T14:21:49Z</time>
      </trkpt>
      <trkpt lat="47.82952" lon="-3.81069">
        <ele>19.799999237061</ele>
        <time>2021-04-05T14:21:55Z</time>
      </trkpt>
      <trkpt lat="47.82956" lon="-3.81013">
        <ele>20.200000762939</ele>
        <time>2021-04-05T14:22:00Z</time>
      </trkpt>
      <trkpt lat="47.8296" lon="-3.80992">
        <ele>21</ele>
        <time>2021-04-05T14:22:02Z</time>
      </trkpt>
      <trkpt lat="47.82969" lon="-3.80962">
        <ele>21.200000762939</ele>
        <time>2021-04-05T14:22:05Z</time>
      </trkpt>
      <trkpt lat="47.82984" lon="-3.80902">
        <ele>21.39999961853</ele>
        <time>2021-04-05T14:22:11Z</time>
      </trkpt>
      <trkpt lat="47.83" lon="-3.80844">
        <ele>20.200000762939</ele>
        <time>2021-04-05T14:22:17Z</time>
      </trkpt>
      <trkpt lat="47.83008" lon="-3.80828">
        <ele>20.60000038147</ele>
        <time>2021-04-05T14:22:19Z</time>
      </trkpt>
      <trkpt lat="47.83019" lon="-3.80816">
        <ele>20.200000762939</ele>
        <time>2021-04-05T14:22:21Z</time>
      </trkpt>
      <trkpt lat="47.83025" lon="-3.80811">
        <ele>19.799999237061</ele>
        <time>2021-04-05T14:22:22Z</time>
      </trkpt>
      <trkpt lat="47.83032" lon="-3.80807">
        <ele>19.799999237061</ele>
        <time>2021-04-05T14:22:23Z</time>
      </trkpt>
      <trkpt lat="47.83045" lon="-3.80801">
        <ele>21</ele>
        <time>2021-04-05T14:22:25Z</time>
      </trkpt>
      <trkpt lat="47.83058" lon="-3.80794">
        <ele>20.39999961853</ele>
        <time>2021-04-05T14:22:27Z</time>
      </trkpt>
      <trkpt lat="47.8307" lon="-3.80782">
        <ele>20</ele>
        <time>2021-04-05T14:22:29Z</time>
      </trkpt>
      <trkpt lat="47.83074" lon="-3.80775">
        <ele>18.60000038147</ele>
        <time>2021-04-05T14:22:30Z</time>
      </trkpt>
      <trkpt lat="47.83078" lon="-3.80767">
        <ele>18.799999237061</ele>
        <time>2021-04-05T14:22:31Z</time>
      </trkpt>
      <trkpt lat="47.83083" lon="-3.80751">
        <ele>19.60000038147</ele>
        <time>2021-04-05T14:22:33Z</time>
      </trkpt>
      <trkpt lat="47.83084" lon="-3.80744">
        <ele>20.60000038147</ele>
        <time>2021-04-05T14:22:34Z</time>
      </trkpt>
      <trkpt lat="47.83075" lon="-3.80698">
        <ele>41</ele>
      </trkpt>
      <trkpt lat="47.83073" lon="-3.80585">
        <ele>41.0703125</ele>
      </trkpt>
      <trkpt lat="47.83105" lon="-3.8046">
        <ele>42</ele>
      </trkpt>
      <trkpt lat="47.83151" lon="-3.8032">
        <ele>43</ele>
      </trkpt>
      <trkpt lat="47.83277" lon="-3.80074">
        <ele>43</ele>
      </trkpt>
      <trkpt lat="47.83372" lon="-3.8007">
        <ele>43.0859375</ele>
      </trkpt>
      <trkpt lat="47.83463" lon="-3.80027">
        <ele>44</ele>
      </trkpt>
      <trkpt lat="47.83466" lon="-3.80024">
        <ele>44</ele>
      </trkpt>
      <trkpt lat="47.83558" lon="-3.7995">
        <ele>44</ele>
      </trkpt>
      <trkpt lat="47.83676" lon="-3.79833">
        <ele>43.30859375</ele>
      </trkpt>
      <trkpt lat="47.83781" lon="-3.7963">
        <ele>44.20703125</ele>
      </trkpt>
      <trkpt lat="47.83889" lon="-3.7947">
        <ele>43</ele>
      </trkpt>
      <trkpt lat="47.84029" lon="-3.79287">
        <ele>40</ele>
      </trkpt>
      <trkpt lat="47.84167" lon="-3.79127">
        <ele>35.53125</ele>
      </trkpt>
      <trkpt lat="47.84299" lon="-3.78983">
        <ele>31.67578125</ele>
      </trkpt>
      <trkpt lat="47.84301" lon="-3.78975">
        <ele>31.765625</ele>
      </trkpt>
      <trkpt lat="47.84482" lon="-3.78854">
        <ele>36.0703125</ele>
      </trkpt>
      <trkpt lat="47.84625" lon="-3.78776">
        <ele>38.96484375</ele>
      </trkpt>
      <trkpt lat="47.84854" lon="-3.78675">
        <ele>41</ele>
      </trkpt>
      <trkpt lat="47.84999" lon="-3.78605">
        <ele>41.48828125</ele>
      </trkpt>
      <trkpt lat="47.85091" lon="-3.78527">
        <ele>41.35546875</ele>
      </trkpt>
      <trkpt lat="47.85158" lon="-3.78406">
        <ele>41.33203125</ele>
      </trkpt>
      <trkpt lat="47.85207" lon="-3.78238">
        <ele>42.20703125</ele>
      </trkpt>
      <trkpt lat="47.85285" lon="-3.78102">
        <ele>44.61328125</ele>
      </trkpt>
      <trkpt lat="47.85361" lon="-3.78012">
        <ele>46.96484375</ele>
      </trkpt>
      <trkpt lat="47.85487" lon="-3.77889">
        <ele>50.21875</ele>
      </trkpt>
      <trkpt lat="47.85625" lon="-3.77721">
        <ele>53.4765625</ele>
      </trkpt>
      <trkpt lat="47.85736" lon="-3.77596">
        <ele>55.59765625</ele>
      </trkpt>
      <trkpt lat="47.85924" lon="-3.77424">
        <ele>46.28125</ele>
      </trkpt>
      <trkpt lat="47.86035" lon="-3.77226">
        <ele>39.4765625</ele>
      </trkpt>
      <trkpt lat="47.8611" lon="-3.77035">
        <ele>41.96484375</ele>
      </trkpt>
      <trkpt lat="47.86223" lon="-3.76957">
        <ele>55.76953125</ele>
      </trkpt>
      <trkpt lat="47.86299" lon="-3.76879">
        <ele>63.359375</ele>
      </trkpt>
      <trkpt lat="47.86356" lon="-3.76828">
        <ele>66.67578125</ele>
      </trkpt>
      <trkpt lat="47.86361" lon="-3.76785">
        <ele>66.9609375</ele>
      </trkpt>
      <trkpt lat="47.86315" lon="-3.76696">
        <ele>61.8515625</ele>
      </trkpt>
      <trkpt lat="47.86269" lon="-3.76583">
        <ele>57.86328125</ele>
      </trkpt>
      <trkpt lat="47.86218" lon="-3.76469">
        <ele>57.75</ele>
      </trkpt>
      <trkpt lat="47.86143" lon="-3.76329">
        <ele>51.41796875</ele>
      </trkpt>
      <trkpt lat="47.86089" lon="-3.76228">
        <ele>46.20703125</ele>
      </trkpt>
      <trkpt lat="47.86046" lon="-3.76158">
        <ele>41.4765625</ele>
      </trkpt>
      <trkpt lat="47.86032" lon="-3.76154">
        <ele>38.94921875</ele>
      </trkpt>
      <trkpt lat="47.86016" lon="-3.76259">
        <ele>35.0703125</ele>
      </trkpt>
      <trkpt lat="47.85949" lon="-3.76368">
        <ele>37.95703125</ele>
      </trkpt>
      <trkpt lat="47.85835" lon="-3.76454">
        <ele>39.48828125</ele>
      </trkpt>
      <trkpt lat="47.85733" lon="-3.76536">
        <ele>41.0703125</ele>
      </trkpt>
      <trkpt lat="47.85647" lon="-3.76598">
        <ele>42.0078125</ele>
      </trkpt>
      <trkpt lat="47.85636" lon="-3.76602">
        <ele>41.96875</ele>
      </trkpt>
      <trkpt lat="47.85577" lon="-3.76637">
        <ele>42.84375</ele>
      </trkpt>
      <trkpt lat="47.85571" lon="-3.7684">
        <ele>46.53515625</ele>
      </trkpt>
      <trkpt lat="47.85617" lon="-3.77097">
        <ele>49.5234375</ele>
      </trkpt>
      <trkpt lat="47.85663" lon="-3.77347">
        <ele>51.41796875</ele>
      </trkpt>
      <trkpt lat="47.85728" lon="-3.776">
        <ele>55.5234375</ele>
      </trkpt>
      <trkpt lat="47.85569" lon="-3.7779">
        <ele>51.546875</ele>
      </trkpt>
      <trkpt lat="47.85445" lon="-3.7793">
        <ele>49.43359375</ele>
      </trkpt>
      <trkpt lat="47.85289" lon="-3.78098">
        <ele>44.67578125</ele>
      </trkpt>
      <trkpt lat="47.8521" lon="-3.78226">
        <ele>42.26953125</ele>
      </trkpt>
      <trkpt lat="47.85157" lon="-3.78402">
        <ele>41.296875</ele>
      </trkpt>
      <trkpt lat="47.85095" lon="-3.78519">
        <ele>41.16015625</ele>
      </trkpt>
      <trkpt lat="47.84998" lon="-3.78604">
        <ele>41.453125</ele>
      </trkpt>
      <trkpt lat="47.84855" lon="-3.78675">
        <ele>41</ele>
      </trkpt>
      <trkpt lat="47.84636" lon="-3.7878">
        <ele>38.98828125</ele>
      </trkpt>
      <trkpt lat="47.84634" lon="-3.7878">
        <ele>38.9765625</ele>
      </trkpt>
      <trkpt lat="47.84485" lon="-3.78846">
        <ele>36.12890625</ele>
      </trkpt>
      <trkpt lat="47.84305" lon="-3.78971">
        <ele>31.90234375</ele>
      </trkpt>
      <trkpt lat="47.84157" lon="-3.79119">
        <ele>35.7109375</ele>
      </trkpt>
      <trkpt lat="47.84019" lon="-3.79279">
        <ele>40</ele>
      </trkpt>
      <trkpt lat="47.8389" lon="-3.79458">
        <ele>43</ele>
      </trkpt>
      <trkpt lat="47.83787" lon="-3.7962">
        <ele>44.1484375</ele>
      </trkpt>
      <trkpt lat="47.83674" lon="-3.79827">
        <ele>43.37890625</ele>
      </trkpt>
      <trkpt lat="47.83569" lon="-3.79948">
        <ele>44</ele>
      </trkpt>
      <trkpt lat="47.83467" lon="-3.8003">
        <ele>44</ele>
      </trkpt>
      <trkpt lat="47.83372" lon="-3.8008">
        <ele>43.0625</ele>
      </trkpt>
      <trkpt lat="47.83275" lon="-3.80076">
        <ele>43</ele>
      </trkpt>
      <trkpt lat="47.83211" lon="-3.80201">
        <ele>43</ele>
      </trkpt>
      <trkpt lat="47.83146" lon="-3.80322">
        <ele>43</ele>
      </trkpt>
      <trkpt lat="47.831" lon="-3.80443">
        <ele>42</ele>
      </trkpt>
      <trkpt lat="47.83065" lon="-3.80579">
        <ele>41.1484375</ele>
      </trkpt>
      <trkpt lat="47.83068" lon="-3.80688">
        <ele>41</ele>
      </trkpt>
      <trkpt lat="47.83045" lon="-3.80673">
        <ele>24</ele>
        <time>2021-04-05T14:22:45Z</time>
      </trkpt>
      <trkpt lat="47.83016" lon="-3.80626">
        <ele>23.799999237061</ele>
        <time>2021-04-05T14:22:51Z</time>
      </trkpt>
      <trkpt lat="47.82986" lon="-3.80578">
        <ele>23.799999237061</ele>
        <time>2021-04-05T14:22:57Z</time>
      </trkpt>
      <trkpt lat="47.82972" lon="-3.80555">
        <ele>24.60000038147</ele>
        <time>2021-04-05T14:23:00Z</time>
      </trkpt>
      <trkpt lat="47.82945" lon="-3.80504">
        <ele>24</ele>
        <time>2021-04-05T14:23:06Z</time>
      </trkpt>
      <trkpt lat="47.82936" lon="-3.80487">
        <ele>23.39999961853</ele>
        <time>2021-04-05T14:23:08Z</time>
      </trkpt>
      <trkpt lat="47.82907" lon="-3.8043">
        <ele>24.200000762939</ele>
        <time>2021-04-05T14:23:14Z</time>
      </trkpt>
      <trkpt lat="47.82876" lon="-3.80369">
        <ele>22.799999237061</ele>
        <time>2021-04-05T14:23:20Z</time>
      </trkpt>
      <trkpt lat="47.82854" lon="-3.80326">
        <ele>21.799999237061</ele>
        <time>2021-04-05T14:23:24Z</time>
      </trkpt>
      <trkpt lat="47.8282" lon="-3.80259">
        <ele>21.799999237061</ele>
        <time>2021-04-05T14:23:30Z</time>
      </trkpt>
      <trkpt lat="47.82786" lon="-3.80192">
        <ele>21</ele>
        <time>2021-04-05T14:23:36Z</time>
      </trkpt>
      <trkpt lat="47.82781" lon="-3.80181">
        <ele>20.799999237061</ele>
        <time>2021-04-05T14:23:37Z</time>
      </trkpt>
      <trkpt lat="47.82747" lon="-3.80116">
        <ele>20.799999237061</ele>
        <time>2021-04-05T14:23:43Z</time>
      </trkpt>
      <trkpt lat="47.82742" lon="-3.80106">
        <ele>21.799999237061</ele>
        <time>2021-04-05T14:23:44Z</time>
      </trkpt>
      <trkpt lat="47.82727" lon="-3.80074">
        <ele>20.799999237061</ele>
        <time>2021-04-05T14:23:47Z</time>
      </trkpt>
      <trkpt lat="47.82698" lon="-3.80017">
        <ele>20.799999237061</ele>
        <time>2021-04-05T14:23:53Z</time>
      </trkpt>
      <trkpt lat="47.82675" lon="-3.79966">
        <ele>22</ele>
        <time>2021-04-05T14:23:58Z</time>
      </trkpt>
      <trkpt lat="47.82665" lon="-3.79937">
        <ele>23.39999961853</ele>
        <time>2021-04-05T14:24:01Z</time>
      </trkpt>
      <trkpt lat="47.82647" lon="-3.79873">
        <ele>23</ele>
        <time>2021-04-05T14:24:07Z</time>
      </trkpt>
      <trkpt lat="47.82636" lon="-3.79813">
        <ele>21.799999237061</ele>
        <time>2021-04-05T14:24:12Z</time>
      </trkpt>
      <trkpt lat="47.82631" lon="-3.79778">
        <ele>22.60000038147</ele>
        <time>2021-04-05T14:24:15Z</time>
      </trkpt>
      <trkpt lat="47.8263" lon="-3.79766">
        <ele>23.799999237061</ele>
        <time>2021-04-05T14:24:16Z</time>
      </trkpt>
      <trkpt lat="47.82624" lon="-3.7972">
        <ele>24.799999237061</ele>
        <time>2021-04-05T14:24:20Z</time>
      </trkpt>
      <trkpt lat="47.82615" lon="-3.79653">
        <ele>23.799999237061</ele>
        <time>2021-04-05T14:24:26Z</time>
      </trkpt>
      <trkpt lat="47.8261" lon="-3.79621">
        <ele>24</ele>
        <time>2021-04-05T14:24:29Z</time>
      </trkpt>
      <trkpt lat="47.82604" lon="-3.79603">
        <ele>23.799999237061</ele>
        <time>2021-04-05T14:24:31Z</time>
      </trkpt>
      <trkpt lat="47.82605" lon="-3.79582">
        <ele>22.799999237061</ele>
        <time>2021-04-05T14:24:33Z</time>
      </trkpt>
      <trkpt lat="47.82605" lon="-3.79515">
        <ele>23.39999961853</ele>
        <time>2021-04-05T14:24:39Z</time>
      </trkpt>
      <trkpt lat="47.82609" lon="-3.79458">
        <ele>24</ele>
        <time>2021-04-05T14:24:44Z</time>
      </trkpt>
      <trkpt lat="47.82612" lon="-3.79436">
        <ele>22.799999237061</ele>
        <time>2021-04-05T14:24:46Z</time>
      </trkpt>
      <trkpt lat="47.82626" lon="-3.79369">
        <ele>21.60000038147</ele>
        <time>2021-04-05T14:24:52Z</time>
      </trkpt>
      <trkpt lat="47.82648" lon="-3.79306">
        <ele>20.39999961853</ele>
        <time>2021-04-05T14:24:58Z</time>
      </trkpt>
      <trkpt lat="47.82678" lon="-3.79248">
        <ele>20</ele>
        <time>2021-04-05T14:25:04Z</time>
      </trkpt>
      <trkpt lat="47.82701" lon="-3.79214">
        <ele>19.200000762939</ele>
        <time>2021-04-05T14:25:08Z</time>
      </trkpt>
      <trkpt lat="47.82719" lon="-3.79192">
        <ele>18.200000762939</ele>
        <time>2021-04-05T14:25:11Z</time>
      </trkpt>
      <trkpt lat="47.82733" lon="-3.79178">
        <ele>19.60000038147</ele>
        <time>2021-04-05T14:25:13Z</time>
      </trkpt>
      <trkpt lat="47.8276" lon="-3.7915">
        <ele>18.200000762939</ele>
        <time>2021-04-05T14:25:17Z</time>
      </trkpt>
      <trkpt lat="47.82802" lon="-3.79108">
        <ele>18</ele>
        <time>2021-04-05T14:25:23Z</time>
      </trkpt>
      <trkpt lat="47.8283" lon="-3.7908">
        <ele>17.200000762939</ele>
        <time>2021-04-05T14:25:27Z</time>
      </trkpt>
      <trkpt lat="47.82872" lon="-3.79039">
        <ele>16.799999237061</ele>
        <time>2021-04-05T14:25:33Z</time>
      </trkpt>
      <trkpt lat="47.82885" lon="-3.79025">
        <ele>15.800000190735</ele>
        <time>2021-04-05T14:25:35Z</time>
      </trkpt>
      <trkpt lat="47.82912" lon="-3.78997">
        <ele>17.200000762939</ele>
        <time>2021-04-05T14:25:39Z</time>
      </trkpt>
      <trkpt lat="47.82932" lon="-3.78976">
        <ele>15.60000038147</ele>
        <time>2021-04-05T14:25:42Z</time>
      </trkpt>
      <trkpt lat="47.82973" lon="-3.78934">
        <ele>14.199999809265</ele>
        <time>2021-04-05T14:25:48Z</time>
      </trkpt>
      <trkpt lat="47.82979" lon="-3.78928">
        <ele>13</ele>
        <time>2021-04-05T14:25:49Z</time>
      </trkpt>
      <trkpt lat="47.82985" lon="-3.78921">
        <ele>14</ele>
        <time>2021-04-05T14:25:50Z</time>
      </trkpt>
      <trkpt lat="47.82996" lon="-3.78908">
        <ele>15.60000038147</ele>
        <time>2021-04-05T14:25:52Z</time>
      </trkpt>
      <trkpt lat="47.83033" lon="-3.78869">
        <ele>15.800000190735</ele>
        <time>2021-04-05T14:25:58Z</time>
      </trkpt>
      <trkpt lat="47.83039" lon="-3.78863">
        <ele>16.799999237061</ele>
        <time>2021-04-05T14:25:59Z</time>
      </trkpt>
      <trkpt lat="47.83064" lon="-3.78838">
        <ele>18</ele>
        <time>2021-04-05T14:26:03Z</time>
      </trkpt>
      <trkpt lat="47.83098" lon="-3.788">
        <ele>17.200000762939</ele>
        <time>2021-04-05T14:26:09Z</time>
      </trkpt>
      <trkpt lat="47.83132" lon="-3.78763">
        <ele>17.39999961853</ele>
        <time>2021-04-05T14:26:15Z</time>
      </trkpt>
      <trkpt lat="47.83143" lon="-3.78752">
        <ele>16.799999237061</ele>
        <time>2021-04-05T14:26:17Z</time>
      </trkpt>
      <trkpt lat="47.83154" lon="-3.7874">
        <ele>18.200000762939</ele>
        <time>2021-04-05T14:26:19Z</time>
      </trkpt>
      <trkpt lat="47.8316" lon="-3.78734">
        <ele>19.60000038147</ele>
        <time>2021-04-05T14:26:20Z</time>
      </trkpt>
      <trkpt lat="47.83196" lon="-3.78699">
        <ele>18.799999237061</ele>
        <time>2021-04-05T14:26:26Z</time>
      </trkpt>
      <trkpt lat="47.83231" lon="-3.78662">
        <ele>19.60000038147</ele>
        <time>2021-04-05T14:26:32Z</time>
      </trkpt>
      <trkpt lat="47.83243" lon="-3.7865">
        <ele>17.60000038147</ele>
        <time>2021-04-05T14:26:34Z</time>
      </trkpt>
      <trkpt lat="47.83281" lon="-3.78612">
        <ele>16.60000038147</ele>
        <time>2021-04-05T14:26:40Z</time>
      </trkpt>
      <trkpt lat="47.83287" lon="-3.78606">
        <ele>15.60000038147</ele>
        <time>2021-04-05T14:26:41Z</time>
      </trkpt>
      <trkpt lat="47.83312" lon="-3.78582">
        <ele>18.39999961853</ele>
        <time>2021-04-05T14:26:45Z</time>
      </trkpt>
      <trkpt lat="47.83324" lon="-3.7857">
        <ele>16.39999961853</ele>
        <time>2021-04-05T14:26:47Z</time>
      </trkpt>
      <trkpt lat="47.8333" lon="-3.78564">
        <ele>14.800000190735</ele>
        <time>2021-04-05T14:26:48Z</time>
      </trkpt>
      <trkpt lat="47.83369" lon="-3.78522">
        <ele>13.800000190735</ele>
        <time>2021-04-05T14:26:54Z</time>
      </trkpt>
      <trkpt lat="47.8339" lon="-3.78501">
        <ele>12.199999809265</ele>
        <time>2021-04-05T14:26:57Z</time>
      </trkpt>
      <trkpt lat="47.8341" lon="-3.7848">
        <ele>11</ele>
        <time>2021-04-05T14:27:00Z</time>
      </trkpt>
      <trkpt lat="47.8343" lon="-3.78459">
        <ele>10.60000038147</ele>
        <time>2021-04-05T14:27:03Z</time>
      </trkpt>
      <trkpt lat="47.83444" lon="-3.78445">
        <ele>9.6000003814697</ele>
        <time>2021-04-05T14:27:05Z</time>
      </trkpt>
      <trkpt lat="47.8345" lon="-3.78438">
        <ele>8.3999996185303</ele>
        <time>2021-04-05T14:27:06Z</time>
      </trkpt>
      <trkpt lat="47.83463" lon="-3.78424">
        <ele>9.6000003814697</ele>
        <time>2021-04-05T14:27:08Z</time>
      </trkpt>
      <trkpt lat="47.83483" lon="-3.78403">
        <ele>8</ele>
        <time>2021-04-05T14:27:11Z</time>
      </trkpt>
      <trkpt lat="47.83518" lon="-3.78369">
        <ele>8.6000003814697</ele>
        <time>2021-04-05T14:27:16Z</time>
      </trkpt>
      <trkpt lat="47.83525" lon="-3.78362">
        <ele>9.1999998092651</ele>
        <time>2021-04-05T14:27:17Z</time>
      </trkpt>
      <trkpt lat="47.83544" lon="-3.78342">
        <ele>7.8000001907349</ele>
        <time>2021-04-05T14:27:20Z</time>
      </trkpt>
      <trkpt lat="47.83584" lon="-3.78304">
        <ele>8.6000003814697</ele>
        <time>2021-04-05T14:27:26Z</time>
      </trkpt>
      <trkpt lat="47.8359" lon="-3.78297">
        <ele>9.3999996185303</ele>
        <time>2021-04-05T14:27:27Z</time>
      </trkpt>
      <trkpt lat="47.83628" lon="-3.78263">
        <ele>9.8000001907349</ele>
        <time>2021-04-05T14:27:33Z</time>
      </trkpt>
      <trkpt lat="47.83665" lon="-3.78232">
        <ele>9.8000001907349</ele>
        <time>2021-04-05T14:27:39Z</time>
      </trkpt>
      <trkpt lat="47.83693" lon="-3.78205">
        <ele>10.199999809265</ele>
        <time>2021-04-05T14:27:44Z</time>
      </trkpt>
      <trkpt lat="47.83724" lon="-3.78178">
        <ele>9.6000003814697</ele>
        <time>2021-04-05T14:27:49Z</time>
      </trkpt>
      <trkpt lat="47.83747" lon="-3.78157">
        <ele>9.8000001907349</ele>
        <time>2021-04-05T14:27:53Z</time>
      </trkpt>
      <trkpt lat="47.83766" lon="-3.7814">
        <ele>10.39999961853</ele>
        <time>2021-04-05T14:27:56Z</time>
      </trkpt>
      <trkpt lat="47.8379" lon="-3.78117">
        <ele>11.60000038147</ele>
        <time>2021-04-05T14:28:00Z</time>
      </trkpt>
      <trkpt lat="47.83801" lon="-3.78106">
        <ele>12.800000190735</ele>
        <time>2021-04-05T14:28:02Z</time>
      </trkpt>
      <trkpt lat="47.8383" lon="-3.78079">
        <ele>12.39999961853</ele>
        <time>2021-04-05T14:28:07Z</time>
      </trkpt>
      <trkpt lat="47.83846" lon="-3.78064">
        <ele>13.800000190735</ele>
        <time>2021-04-05T14:28:10Z</time>
      </trkpt>
      <trkpt lat="47.83878" lon="-3.78036">
        <ele>14.60000038147</ele>
        <time>2021-04-05T14:28:16Z</time>
      </trkpt>
      <trkpt lat="47.83893" lon="-3.78021">
        <ele>14.39999961853</ele>
        <time>2021-04-05T14:28:19Z</time>
      </trkpt>
      <trkpt lat="47.83896" lon="-3.78014">
        <ele>14.800000190735</ele>
        <time>2021-04-05T14:28:20Z</time>
      </trkpt>
      <trkpt lat="47.83895" lon="-3.78009">
        <ele>15.60000038147</ele>
        <time>2021-04-05T14:28:21Z</time>
      </trkpt>
      <trkpt lat="47.83893" lon="-3.78004">
        <ele>16.200000762939</ele>
        <time>2021-04-05T14:28:22Z</time>
      </trkpt>
      <trkpt lat="47.83889" lon="-3.78002">
        <ele>16.39999961853</ele>
        <time>2021-04-05T14:28:23Z</time>
      </trkpt>
      <trkpt lat="47.83879" lon="-3.78005">
        <ele>17</ele>
        <time>2021-04-05T14:28:25Z</time>
      </trkpt>
      <trkpt lat="47.83846" lon="-3.78012">
        <ele>16</ele>
        <time>2021-04-05T14:28:31Z</time>
      </trkpt>
      <trkpt lat="47.83833" lon="-3.78013">
        <ele>15</ele>
        <time>2021-04-05T14:28:33Z</time>
      </trkpt>
      <trkpt lat="47.83808" lon="-3.78014">
        <ele>13.800000190735</ele>
        <time>2021-04-05T14:28:37Z</time>
      </trkpt>
      <trkpt lat="47.83766" lon="-3.78018">
        <ele>15.39999961853</ele>
        <time>2021-04-05T14:28:43Z</time>
      </trkpt>
      <trkpt lat="47.83721" lon="-3.78018">
        <ele>15.39999961853</ele>
        <time>2021-04-05T14:28:49Z</time>
      </trkpt>
      <trkpt lat="47.83678" lon="-3.7802">
        <ele>15.199999809265</ele>
        <time>2021-04-05T14:28:55Z</time>
      </trkpt>
      <trkpt lat="47.83636" lon="-3.78022">
        <ele>15.199999809265</ele>
        <time>2021-04-05T14:29:01Z</time>
      </trkpt>
      <trkpt lat="47.83593" lon="-3.78024">
        <ele>15.39999961853</ele>
        <time>2021-04-05T14:29:07Z</time>
      </trkpt>
      <trkpt lat="47.83555" lon="-3.78028">
        <ele>16.200000762939</ele>
        <time>2021-04-05T14:29:13Z</time>
      </trkpt>
      <trkpt lat="47.83536" lon="-3.7803">
        <ele>16.60000038147</ele>
        <time>2021-04-05T14:29:16Z</time>
      </trkpt>
      <trkpt lat="47.83497" lon="-3.78034">
        <ele>16.799999237061</ele>
        <time>2021-04-05T14:29:22Z</time>
      </trkpt>
      <trkpt lat="47.8345" lon="-3.7803">
        <ele>15.60000038147</ele>
        <time>2021-04-05T14:29:28Z</time>
      </trkpt>
      <trkpt lat="47.83443" lon="-3.78029">
        <ele>15.39999961853</ele>
        <time>2021-04-05T14:29:29Z</time>
      </trkpt>
      <trkpt lat="47.83396" lon="-3.7802">
        <ele>14.60000038147</ele>
        <time>2021-04-05T14:29:35Z</time>
      </trkpt>
      <trkpt lat="47.83374" lon="-3.7801">
        <ele>14.39999961853</ele>
        <time>2021-04-05T14:29:38Z</time>
      </trkpt>
      <trkpt lat="47.83336" lon="-3.77982">
        <ele>15.39999961853</ele>
        <time>2021-04-05T14:29:44Z</time>
      </trkpt>
      <trkpt lat="47.83298" lon="-3.77955">
        <ele>15.60000038147</ele>
        <time>2021-04-05T14:29:50Z</time>
      </trkpt>
      <trkpt lat="47.83255" lon="-3.77935">
        <ele>15.39999961853</ele>
        <time>2021-04-05T14:29:56Z</time>
      </trkpt>
      <trkpt lat="47.83218" lon="-3.77922">
        <ele>14</ele>
        <time>2021-04-05T14:30:01Z</time>
      </trkpt>
      <trkpt lat="47.83194" lon="-3.77913">
        <ele>12.800000190735</ele>
        <time>2021-04-05T14:30:04Z</time>
      </trkpt>
      <trkpt lat="47.83156" lon="-3.77898">
        <ele>12.800000190735</ele>
        <time>2021-04-05T14:30:09Z</time>
      </trkpt>
      <trkpt lat="47.83143" lon="-3.77887">
        <ele>12.199999809265</ele>
        <time>2021-04-05T14:30:11Z</time>
      </trkpt>
      <trkpt lat="47.83115" lon="-3.77841">
        <ele>13.199999809265</ele>
        <time>2021-04-05T14:30:17Z</time>
      </trkpt>
      <trkpt lat="47.83109" lon="-3.77829">
        <ele>13.60000038147</ele>
        <time>2021-04-05T14:30:19Z</time>
      </trkpt>
      <trkpt lat="47.83101" lon="-3.77822">
        <ele>13.39999961853</ele>
        <time>2021-04-05T14:30:21Z</time>
      </trkpt>
      <trkpt lat="47.83091" lon="-3.77825">
        <ele>13.60000038147</ele>
        <time>2021-04-05T14:30:23Z</time>
      </trkpt>
      <trkpt lat="47.83082" lon="-3.77834">
        <ele>14</ele>
        <time>2021-04-05T14:30:25Z</time>
      </trkpt>
      <trkpt lat="47.83063" lon="-3.77866">
        <ele>15</ele>
        <time>2021-04-05T14:30:30Z</time>
      </trkpt>
      <trkpt lat="47.83059" lon="-3.77873">
        <ele>15.199999809265</ele>
        <time>2021-04-05T14:30:31Z</time>
      </trkpt>
      <trkpt lat="47.83044" lon="-3.77902">
        <ele>15.60000038147</ele>
        <time>2021-04-05T14:30:35Z</time>
      </trkpt>
      <trkpt lat="47.83036" lon="-3.77917">
        <ele>16.60000038147</ele>
        <time>2021-04-05T14:30:37Z</time>
      </trkpt>
      <trkpt lat="47.83015" lon="-3.77951">
        <ele>17.799999237061</ele>
        <time>2021-04-05T14:30:42Z</time>
      </trkpt>
      <trkpt lat="47.82993" lon="-3.77984">
        <ele>18.799999237061</ele>
        <time>2021-04-05T14:30:47Z</time>
      </trkpt>
      <trkpt lat="47.82967" lon="-3.78029">
        <ele>18</ele>
        <time>2021-04-05T14:30:53Z</time>
      </trkpt>
      <trkpt lat="47.82946" lon="-3.78072">
        <ele>18.60000038147</ele>
        <time>2021-04-05T14:30:58Z</time>
      </trkpt>
      <trkpt lat="47.82919" lon="-3.78113">
        <ele>18</ele>
        <time>2021-04-05T14:31:03Z</time>
      </trkpt>
      <trkpt lat="47.82916" lon="-3.78124">
        <ele>17.60000038147</ele>
        <time>2021-04-05T14:31:04Z</time>
      </trkpt>
      <trkpt lat="47.82913" lon="-3.78136">
        <ele>17.200000762939</ele>
        <time>2021-04-05T14:31:05Z</time>
      </trkpt>
      <trkpt lat="47.82908" lon="-3.78159">
        <ele>15.199999809265</ele>
        <time>2021-04-05T14:31:07Z</time>
      </trkpt>
      <trkpt lat="47.82905" lon="-3.78171">
        <ele>13.800000190735</ele>
        <time>2021-04-05T14:31:08Z</time>
      </trkpt>
      <trkpt lat="47.82894" lon="-3.7819">
        <ele>12.800000190735</ele>
        <time>2021-04-05T14:31:10Z</time>
      </trkpt>
      <trkpt lat="47.82885" lon="-3.78196">
        <ele>12.199999809265</ele>
        <time>2021-04-05T14:31:11Z</time>
      </trkpt>
      <trkpt lat="47.82877" lon="-3.78201">
        <ele>11.800000190735</ele>
        <time>2021-04-05T14:31:12Z</time>
      </trkpt>
      <trkpt lat="47.82858" lon="-3.78206">
        <ele>11.800000190735</ele>
        <time>2021-04-05T14:31:14Z</time>
      </trkpt>
      <trkpt lat="47.82837" lon="-3.78207">
        <ele>10.800000190735</ele>
        <time>2021-04-05T14:31:16Z</time>
      </trkpt>
      <trkpt lat="47.82816" lon="-3.78207">
        <ele>8.8000001907349</ele>
        <time>2021-04-05T14:31:18Z</time>
      </trkpt>
      <trkpt lat="47.82805" lon="-3.78209">
        <ele>7.5999999046326</ele>
        <time>2021-04-05T14:31:19Z</time>
      </trkpt>
      <trkpt lat="47.82794" lon="-3.78213">
        <ele>6.5999999046326</ele>
        <time>2021-04-05T14:31:20Z</time>
      </trkpt>
      <trkpt lat="47.82776" lon="-3.78232">
        <ele>5</ele>
        <time>2021-04-05T14:31:22Z</time>
      </trkpt>
      <trkpt lat="47.82759" lon="-3.78269">
        <ele>6.5999999046326</ele>
        <time>2021-04-05T14:31:25Z</time>
      </trkpt>
      <trkpt lat="47.82754" lon="-3.78279">
        <ele>7.8000001907349</ele>
        <time>2021-04-05T14:31:26Z</time>
      </trkpt>
      <trkpt lat="47.82748" lon="-3.78288">
        <ele>9.1999998092651</ele>
        <time>2021-04-05T14:31:27Z</time>
      </trkpt>
      <trkpt lat="47.82738" lon="-3.78304">
        <ele>11.60000038147</ele>
        <time>2021-04-05T14:31:29Z</time>
      </trkpt>
      <trkpt lat="47.82728" lon="-3.78318">
        <ele>12.800000190735</ele>
        <time>2021-04-05T14:31:31Z</time>
      </trkpt>
      <trkpt lat="47.82718" lon="-3.78333">
        <ele>14.39999961853</ele>
        <time>2021-04-05T14:31:33Z</time>
      </trkpt>
      <trkpt lat="47.82709" lon="-3.78348">
        <ele>16</ele>
        <time>2021-04-05T14:31:35Z</time>
      </trkpt>
      <trkpt lat="47.82703" lon="-3.78367">
        <ele>16.799999237061</ele>
        <time>2021-04-05T14:31:37Z</time>
      </trkpt>
      <trkpt lat="47.827" lon="-3.78376">
        <ele>17.60000038147</ele>
        <time>2021-04-05T14:31:38Z</time>
      </trkpt>
      <trkpt lat="47.82691" lon="-3.78405">
        <ele>17.39999961853</ele>
        <time>2021-04-05T14:31:41Z</time>
      </trkpt>
      <trkpt lat="47.82684" lon="-3.78424">
        <ele>18.60000038147</ele>
        <time>2021-04-05T14:31:43Z</time>
      </trkpt>
      <trkpt lat="47.82671" lon="-3.78449">
        <ele>20.200000762939</ele>
        <time>2021-04-05T14:31:46Z</time>
      </trkpt>
      <trkpt lat="47.82662" lon="-3.78462">
        <ele>21.200000762939</ele>
        <time>2021-04-05T14:31:48Z</time>
      </trkpt>
      <trkpt lat="47.82648" lon="-3.7848">
        <ele>22.39999961853</ele>
        <time>2021-04-05T14:31:51Z</time>
      </trkpt>
      <trkpt lat="47.82623" lon="-3.78522">
        <ele>22.39999961853</ele>
        <time>2021-04-05T14:31:57Z</time>
      </trkpt>
      <trkpt lat="47.82605" lon="-3.78576">
        <ele>20.799999237061</ele>
        <time>2021-04-05T14:32:03Z</time>
      </trkpt>
      <trkpt lat="47.82594" lon="-3.78611">
        <ele>22</ele>
        <time>2021-04-05T14:32:07Z</time>
      </trkpt>
      <trkpt lat="47.82578" lon="-3.78661">
        <ele>22.799999237061</ele>
        <time>2021-04-05T14:32:13Z</time>
      </trkpt>
      <trkpt lat="47.82561" lon="-3.78713">
        <ele>22.60000038147</ele>
        <time>2021-04-05T14:32:19Z</time>
      </trkpt>
      <trkpt lat="47.82542" lon="-3.78766">
        <ele>21.200000762939</ele>
        <time>2021-04-05T14:32:25Z</time>
      </trkpt>
      <trkpt lat="47.82538" lon="-3.78774">
        <ele>20.799999237061</ele>
        <time>2021-04-05T14:32:26Z</time>
      </trkpt>
      <trkpt lat="47.8251" lon="-3.78816">
        <ele>21.200000762939</ele>
        <time>2021-04-05T14:32:32Z</time>
      </trkpt>
      <trkpt lat="47.82482" lon="-3.78859">
        <ele>21.60000038147</ele>
        <time>2021-04-05T14:32:38Z</time>
      </trkpt>
      <trkpt lat="47.82467" lon="-3.78893">
        <ele>22</ele>
        <time>2021-04-05T14:32:42Z</time>
      </trkpt>
      <trkpt lat="47.82453" lon="-3.78949">
        <ele>22.799999237061</ele>
        <time>2021-04-05T14:32:48Z</time>
      </trkpt>
      <trkpt lat="47.82437" lon="-3.79002">
        <ele>21.60000038147</ele>
        <time>2021-04-05T14:32:54Z</time>
      </trkpt>
      <trkpt lat="47.82434" lon="-3.79011">
        <ele>21.60000038147</ele>
        <time>2021-04-05T14:32:55Z</time>
      </trkpt>
      <trkpt lat="47.82406" lon="-3.79056">
        <ele>21.39999961853</ele>
        <time>2021-04-05T14:33:01Z</time>
      </trkpt>
      <trkpt lat="47.82376" lon="-3.79098">
        <ele>22</ele>
        <time>2021-04-05T14:33:07Z</time>
      </trkpt>
      <trkpt lat="47.82359" lon="-3.79131">
        <ele>23</ele>
        <time>2021-04-05T14:33:11Z</time>
      </trkpt>
      <trkpt lat="47.82335" lon="-3.79178">
        <ele>23.60000038147</ele>
        <time>2021-04-05T14:33:17Z</time>
      </trkpt>
      <trkpt lat="47.8233" lon="-3.79185">
        <ele>24.39999961853</ele>
        <time>2021-04-05T14:33:18Z</time>
      </trkpt>
      <trkpt lat="47.82314" lon="-3.79203">
        <ele>23</ele>
        <time>2021-04-05T14:33:21Z</time>
      </trkpt>
      <trkpt lat="47.82303" lon="-3.79213">
        <ele>21.799999237061</ele>
        <time>2021-04-05T14:33:23Z</time>
      </trkpt>
      <trkpt lat="47.82287" lon="-3.79225">
        <ele>21.799999237061</ele>
        <time>2021-04-05T14:33:26Z</time>
      </trkpt>
      <trkpt lat="47.82277" lon="-3.79233">
        <ele>21.799999237061</ele>
        <time>2021-04-05T14:33:28Z</time>
      </trkpt>
      <trkpt lat="47.82271" lon="-3.79245">
        <ele>21.799999237061</ele>
        <time>2021-04-05T14:33:30Z</time>
      </trkpt>
      <trkpt lat="47.82269" lon="-3.7926">
        <ele>21.39999961853</ele>
        <time>2021-04-05T14:33:32Z</time>
      </trkpt>
      <trkpt lat="47.82266" lon="-3.79314">
        <ele>22</ele>
        <time>2021-04-05T14:33:38Z</time>
      </trkpt>
      <trkpt lat="47.82262" lon="-3.79349">
        <ele>21.799999237061</ele>
        <time>2021-04-05T14:33:42Z</time>
      </trkpt>
      <trkpt lat="47.82259" lon="-3.79366">
        <ele>21.799999237061</ele>
        <time>2021-04-05T14:33:44Z</time>
      </trkpt>
      <trkpt lat="47.82255" lon="-3.79388">
        <ele>22.200000762939</ele>
        <time>2021-04-05T14:33:47Z</time>
      </trkpt>
      <trkpt lat="47.8225" lon="-3.79408">
        <ele>23</ele>
        <time>2021-04-05T14:33:51Z</time>
      </trkpt>
      <trkpt lat="47.82248" lon="-3.79411">
        <ele>22.799999237061</ele>
        <time>2021-04-05T14:33:54Z</time>
      </trkpt>
      <trkpt lat="47.8224" lon="-3.79415">
        <ele>22.39999961853</ele>
        <time>2021-04-05T14:33:59Z</time>
      </trkpt>
      <trkpt lat="47.82234" lon="-3.79413">
        <ele>21.799999237061</ele>
        <time>2021-04-05T14:34:01Z</time>
      </trkpt>
      <trkpt lat="47.82207" lon="-3.79402">
        <ele>21.200000762939</ele>
        <time>2021-04-05T14:34:06Z</time>
      </trkpt>
      <trkpt lat="47.82181" lon="-3.79387">
        <ele>20.799999237061</ele>
        <time>2021-04-05T14:34:10Z</time>
      </trkpt>
      <trkpt lat="47.82141" lon="-3.79357">
        <ele>21.39999961853</ele>
        <time>2021-04-05T14:34:16Z</time>
      </trkpt>
      <trkpt lat="47.821" lon="-3.79328">
        <ele>21.799999237061</ele>
        <time>2021-04-05T14:34:22Z</time>
      </trkpt>
      <trkpt lat="47.82088" lon="-3.79319">
        <ele>22.799999237061</ele>
        <time>2021-04-05T14:34:24Z</time>
      </trkpt>
      <trkpt lat="47.82049" lon="-3.79298">
        <ele>22.39999961853</ele>
        <time>2021-04-05T14:34:30Z</time>
      </trkpt>
      <trkpt lat="47.82035" lon="-3.7929">
        <ele>22.39999961853</ele>
        <time>2021-04-05T14:34:32Z</time>
      </trkpt>
      <trkpt lat="47.82013" lon="-3.79266">
        <ele>22.799999237061</ele>
        <time>2021-04-05T14:34:36Z</time>
      </trkpt>
      <trkpt lat="47.8198" lon="-3.79235">
        <ele>23.60000038147</ele>
        <time>2021-04-05T14:34:42Z</time>
      </trkpt>
      <trkpt lat="47.81968" lon="-3.79228">
        <ele>23.799999237061</ele>
        <time>2021-04-05T14:34:44Z</time>
      </trkpt>
      <trkpt lat="47.81963" lon="-3.79227">
        <ele>23.799999237061</ele>
        <time>2021-04-05T14:34:45Z</time>
      </trkpt>
      <trkpt lat="47.81941" lon="-3.79219">
        <ele>23.200000762939</ele>
        <time>2021-04-05T14:34:49Z</time>
      </trkpt>
      <trkpt lat="47.81922" lon="-3.7918">
        <ele>40</ele>
      </trkpt>
      <trkpt lat="47.81769" lon="-3.79055">
        <ele>38.76171875</ele>
      </trkpt>
      <trkpt lat="47.81572" lon="-3.78825">
        <ele>38.00390625</ele>
      </trkpt>
      <trkpt lat="47.81356" lon="-3.78587">
        <ele>37.76171875</ele>
      </trkpt>
      <trkpt lat="47.81351" lon="-3.78579">
        <ele>37.68359375</ele>
      </trkpt>
      <trkpt lat="47.81114" lon="-3.78353">
        <ele>35.99609375</ele>
      </trkpt>
      <trkpt lat="47.80957" lon="-3.78275">
        <ele>35.34765625</ele>
      </trkpt>
      <trkpt lat="47.8079" lon="-3.7821">
        <ele>34.74609375</ele>
      </trkpt>
      <trkpt lat="47.80606" lon="-3.78262">
        <ele>30.4296875</ele>
      </trkpt>
      <trkpt lat="47.80436" lon="-3.78139">
        <ele>34.82421875</ele>
      </trkpt>
      <trkpt lat="47.7995" lon="-3.77829">
        <ele>33.4765625</ele>
      </trkpt>
      <trkpt lat="47.79922" lon="-3.77784">
        <ele>33.24609375</ele>
      </trkpt>
      <trkpt lat="47.7988" lon="-3.77619">
        <ele>31.546875</ele>
      </trkpt>
      <trkpt lat="47.79854" lon="-3.77587">
        <ele>31.57421875</ele>
      </trkpt>
      <trkpt lat="47.79853" lon="-3.77587">
        <ele>31.5546875</ele>
      </trkpt>
      <trkpt lat="47.79778" lon="-3.77587">
        <ele>31.4140625</ele>
      </trkpt>
      <trkpt lat="47.79775" lon="-3.77587">
        <ele>31.44921875</ele>
      </trkpt>
      <trkpt lat="47.79666" lon="-3.77517">
        <ele>34.64453125</ele>
      </trkpt>
      <trkpt lat="47.79628" lon="-3.77515">
        <ele>35.578125</ele>
      </trkpt>
      <trkpt lat="47.79577" lon="-3.77458">
        <ele>35.49609375</ele>
      </trkpt>
      <trkpt lat="47.7955" lon="-3.77386">
        <ele>35.0859375</ele>
      </trkpt>
      <trkpt lat="47.79478" lon="-3.77263">
        <ele>33.80078125</ele>
      </trkpt>
      <trkpt lat="47.79411" lon="-3.7718">
        <ele>33.4375</ele>
      </trkpt>
      <trkpt lat="47.79332" lon="-3.7712">
        <ele>32.46875</ele>
      </trkpt>
      <trkpt lat="47.79286" lon="-3.77082">
        <ele>32.48046875</ele>
      </trkpt>
      <trkpt lat="47.79258" lon="-3.77169">
        <ele>34.93359375</ele>
      </trkpt>
      <trkpt lat="47.79225" lon="-3.77323">
        <ele>35.98046875</ele>
      </trkpt>
      <trkpt lat="47.79202" lon="-3.77477">
        <ele>31.63671875</ele>
      </trkpt>
      <trkpt lat="47.7918" lon="-3.77596">
        <ele>29.12890625</ele>
      </trkpt>
      <trkpt lat="47.79306" lon="-3.77608">
        <ele>30.75</ele>
      </trkpt>
      <trkpt lat="47.79359" lon="-3.77642">
        <ele>32.6796875</ele>
      </trkpt>
      <trkpt lat="47.79331" lon="-3.77744">
        <ele>28.05859375</ele>
      </trkpt>
      <trkpt lat="47.79327" lon="-3.77806">
        <ele>26.703125</ele>
      </trkpt>
      <trkpt lat="47.79361" lon="-3.77798">
        <ele>28.25390625</ele>
      </trkpt>
      <trkpt lat="47.79414" lon="-3.77814">
        <ele>30.8359375</ele>
      </trkpt>
      <trkpt lat="47.79426" lon="-3.7781">
        <ele>31.53515625</ele>
      </trkpt>
      <trkpt lat="47.79431" lon="-3.77833">
        <ele>31.51953125</ele>
      </trkpt>
      <trkpt lat="47.79528" lon="-3.7802">
        <ele>35.85546875</ele>
      </trkpt>
      <trkpt lat="47.79538" lon="-3.78081">
        <ele>36.0390625</ele>
      </trkpt>
      <trkpt lat="47.79562" lon="-3.78103">
        <ele>36.00390625</ele>
      </trkpt>
      <trkpt lat="47.79683" lon="-3.7813">
        <ele>37.1484375</ele>
      </trkpt>
      <trkpt lat="47.79815" lon="-3.78173">
        <ele>32.88671875</ele>
      </trkpt>
      <trkpt lat="47.79834" lon="-3.78266">
        <ele>31.73828125</ele>
      </trkpt>
      <trkpt lat="47.79845" lon="-3.78559">
        <ele>27.546875</ele>
      </trkpt>
      <trkpt lat="47.79845" lon="-3.78867">
        <ele>28.77734375</ele>
      </trkpt>
      <trkpt lat="47.79855" lon="-3.79202">
        <ele>31.73046875</ele>
      </trkpt>
      <trkpt lat="47.79845" lon="-3.79381">
        <ele>35.9921875</ele>
      </trkpt>
      <trkpt lat="47.79796" lon="-3.79525">
        <ele>35.15625</ele>
      </trkpt>
      <trkpt lat="47.79752" lon="-3.79578">
        <ele>35.96484375</ele>
      </trkpt>
      <trkpt lat="47.79699" lon="-3.79659">
        <ele>35.99609375</ele>
      </trkpt>
      <trkpt lat="47.79639" lon="-3.7982">
        <ele>34.859375</ele>
      </trkpt>
      <trkpt lat="47.79573" lon="-3.7997">
        <ele>30.99609375</ele>
      </trkpt>
      <trkpt lat="47.79524" lon="-3.80082">
        <ele>28.20703125</ele>
      </trkpt>
      <trkpt lat="47.79481" lon="-3.80142">
        <ele>27.0234375</ele>
      </trkpt>
      <trkpt lat="47.79452" lon="-3.80163">
        <ele>26.5078125</ele>
      </trkpt>
      <trkpt lat="47.79469" lon="-3.80248">
        <ele>25.359375</ele>
      </trkpt>
      <trkpt lat="47.79488" lon="-3.80404">
        <ele>21.984375</ele>
      </trkpt>
      <trkpt lat="47.79478" lon="-3.80633">
        <ele>15.453125</ele>
      </trkpt>
      <trkpt lat="47.79449" lon="-3.80859">
        <ele>12.3515625</ele>
      </trkpt>
      <trkpt lat="47.79438" lon="-3.8095">
        <ele>9.7421875</ele>
      </trkpt>
      <trkpt lat="47.79428" lon="-3.80985">
        <ele>-14.60000038147</ele>
        <time>2021-04-05T14:42:27Z</time>
      </trkpt>
      <trkpt lat="47.79437" lon="-3.80984">
        <ele>-12.800000190735</ele>
        <time>2021-04-05T14:42:29Z</time>
      </trkpt>
      <trkpt lat="47.7944" lon="-3.80986">
        <ele>-12.199999809265</ele>
        <time>2021-04-05T14:42:30Z</time>
      </trkpt>
      <trkpt lat="47.79445" lon="-3.80998">
        <ele>-13.199999809265</ele>
        <time>2021-04-05T14:42:32Z</time>
      </trkpt>
      <trkpt lat="47.79447" lon="-3.81016">
        <ele>-14</ele>
        <time>2021-04-05T14:42:34Z</time>
      </trkpt>
      <trkpt lat="47.79452" lon="-3.81047">
        <ele>-15.199999809265</ele>
        <time>2021-04-05T14:42:37Z</time>
      </trkpt>
      <trkpt lat="47.79457" lon="-3.81067">
        <ele>-13.199999809265</ele>
        <time>2021-04-05T14:42:39Z</time>
      </trkpt>
      <trkpt lat="47.79459" lon="-3.81076">
        <ele>-11.39999961853</ele>
        <time>2021-04-05T14:42:40Z</time>
      </trkpt>
      <trkpt lat="47.79469" lon="-3.81103">
        <ele>-11.60000038147</ele>
        <time>2021-04-05T14:42:43Z</time>
      </trkpt>
      <trkpt lat="47.79479" lon="-3.81126">
        <ele>-10.39999961853</ele>
        <time>2021-04-05T14:42:46Z</time>
      </trkpt>
      <trkpt lat="47.79488" lon="-3.81139">
        <ele>-10.60000038147</ele>
        <time>2021-04-05T14:42:48Z</time>
      </trkpt>
      <trkpt lat="47.79493" lon="-3.81144">
        <ele>-10.39999961853</ele>
        <time>2021-04-05T14:42:49Z</time>
      </trkpt>
      <trkpt lat="47.79508" lon="-3.81159">
        <ele>-9</ele>
        <time>2021-04-05T14:42:52Z</time>
      </trkpt>
      <trkpt lat="47.79525" lon="-3.8117">
        <ele>-7.8000001907349</ele>
        <time>2021-04-05T14:42:55Z</time>
      </trkpt>
      <trkpt lat="47.79537" lon="-3.81177">
        <ele>-6.1999998092651</ele>
        <time>2021-04-05T14:42:57Z</time>
      </trkpt>
      <trkpt lat="47.79548" lon="-3.81183">
        <ele>-5</ele>
        <time>2021-04-05T14:42:59Z</time>
      </trkpt>
      <trkpt lat="47.7956" lon="-3.8119">
        <ele>-3.5999999046326</ele>
        <time>2021-04-05T14:43:01Z</time>
      </trkpt>
      <trkpt lat="47.79572" lon="-3.81196">
        <ele>-2.5999999046326</ele>
        <time>2021-04-05T14:43:03Z</time>
      </trkpt>
      <trkpt lat="47.79594" lon="-3.8121">
        <ele>-2</ele>
        <time>2021-04-05T14:43:07Z</time>
      </trkpt>
      <trkpt lat="47.79605" lon="-3.81217">
        <ele>-1.3999999761581</ele>
        <time>2021-04-05T14:43:09Z</time>
      </trkpt>
      <trkpt lat="47.79633" lon="-3.81233">
        <ele>-0.40000000596046</ele>
        <time>2021-04-05T14:43:14Z</time>
      </trkpt>
      <trkpt lat="47.79643" lon="-3.8124">
        <ele>0.60000002384186</ele>
        <time>2021-04-05T14:43:16Z</time>
      </trkpt>
      <trkpt lat="47.79649" lon="-3.81243">
        <ele>1</ele>
        <time>2021-04-05T14:43:17Z</time>
      </trkpt>
      <trkpt lat="47.79659" lon="-3.8125">
        <ele>0.40000000596046</ele>
        <time>2021-04-05T14:43:19Z</time>
      </trkpt>
      <trkpt lat="47.79691" lon="-3.8127">
        <ele>0.40000000596046</ele>
        <time>2021-04-05T14:43:25Z</time>
      </trkpt>
      <trkpt lat="47.79724" lon="-3.8129">
        <ele>1.2000000476837</ele>
        <time>2021-04-05T14:43:31Z</time>
      </trkpt>
      <trkpt lat="47.79759" lon="-3.81311">
        <ele>-0.20000000298023</ele>
        <time>2021-04-05T14:43:37Z</time>
      </trkpt>
      <trkpt lat="47.79794" lon="-3.81332">
        <ele>-0.60000002384186</ele>
        <time>2021-04-05T14:43:43Z</time>
      </trkpt>
      <trkpt lat="47.79823" lon="-3.8135">
        <ele>-1.7999999523163</ele>
        <time>2021-04-05T14:43:48Z</time>
      </trkpt>
      <trkpt lat="47.79835" lon="-3.81357">
        <ele>-3</ele>
        <time>2021-04-05T14:43:50Z</time>
      </trkpt>
      <trkpt lat="47.7987" lon="-3.81381">
        <ele>-2.7999999523163</ele>
        <time>2021-04-05T14:43:56Z</time>
      </trkpt>
      <trkpt lat="47.79901" lon="-3.81412">
        <ele>-3.2000000476837</ele>
        <time>2021-04-05T14:44:02Z</time>
      </trkpt>
      <trkpt lat="47.79916" lon="-3.81431">
        <ele>-1.6000000238419</ele>
        <time>2021-04-05T14:44:05Z</time>
      </trkpt>
      <trkpt lat="47.79934" lon="-3.81459">
        <ele>-2.7999999523163</ele>
        <time>2021-04-05T14:44:09Z</time>
      </trkpt>
      <trkpt lat="47.79956" lon="-3.81507">
        <ele>-3</ele>
        <time>2021-04-05T14:44:15Z</time>
      </trkpt>
      <trkpt lat="47.79972" lon="-3.81558">
        <ele>-2.7999999523163</ele>
        <time>2021-04-05T14:44:21Z</time>
      </trkpt>
      <trkpt lat="47.79983" lon="-3.81613">
        <ele>-2.5999999046326</ele>
        <time>2021-04-05T14:44:27Z</time>
      </trkpt>
      <trkpt lat="47.79985" lon="-3.81632">
        <ele>-1.6000000238419</ele>
        <time>2021-04-05T14:44:29Z</time>
      </trkpt>
      <trkpt lat="47.79986" lon="-3.81692">
        <ele>-1.6000000238419</ele>
        <time>2021-04-05T14:44:35Z</time>
      </trkpt>
      <trkpt lat="47.79984" lon="-3.81731">
        <ele>-2.7999999523163</ele>
        <time>2021-04-05T14:44:39Z</time>
      </trkpt>
      <trkpt lat="47.79974" lon="-3.81782">
        <ele>-3.7999999523163</ele>
        <time>2021-04-05T14:44:44Z</time>
      </trkpt>
      <trkpt lat="47.79966" lon="-3.81813">
        <ele>-5</ele>
        <time>2021-04-05T14:44:47Z</time>
      </trkpt>
      <trkpt lat="47.79945" lon="-3.81876">
        <ele>-4.5999999046326</ele>
        <time>2021-04-05T14:44:53Z</time>
      </trkpt>
      <trkpt lat="47.79931" lon="-3.81916">
        <ele>-3.7999999523163</ele>
        <time>2021-04-05T14:44:57Z</time>
      </trkpt>
      <trkpt lat="47.79913" lon="-3.81964">
        <ele>-5.1999998092651</ele>
        <time>2021-04-05T14:45:02Z</time>
      </trkpt>
      <trkpt lat="47.79891" lon="-3.82021">
        <ele>-5.4000000953674</ele>
        <time>2021-04-05T14:45:08Z</time>
      </trkpt>
      <trkpt lat="47.79867" lon="-3.82089">
        <ele>-5.8000001907349</ele>
        <time>2021-04-05T14:45:14Z</time>
      </trkpt>
      <trkpt lat="47.79854" lon="-3.82138">
        <ele>-7</ele>
        <time>2021-04-05T14:45:18Z</time>
      </trkpt>
      <trkpt lat="47.79844" lon="-3.82176">
        <ele>-8.1999998092651</ele>
        <time>2021-04-05T14:45:21Z</time>
      </trkpt>
      <trkpt lat="47.79824" lon="-3.82252">
        <ele>-8.3999996185303</ele>
        <time>2021-04-05T14:45:27Z</time>
      </trkpt>
      <trkpt lat="47.79805" lon="-3.82328">
        <ele>-8.6000003814697</ele>
        <time>2021-04-05T14:45:33Z</time>
      </trkpt>
      <trkpt lat="47.79801" lon="-3.82341">
        <ele>-9.6000003814697</ele>
        <time>2021-04-05T14:45:34Z</time>
      </trkpt>
      <trkpt lat="47.79798" lon="-3.82354">
        <ele>-11.199999809265</ele>
        <time>2021-04-05T14:45:35Z</time>
      </trkpt>
      <trkpt lat="47.79785" lon="-3.82404">
        <ele>-9.8000001907349</ele>
        <time>2021-04-05T14:45:39Z</time>
      </trkpt>
      <trkpt lat="47.79775" lon="-3.82443">
        <ele>-10.800000190735</ele>
        <time>2021-04-05T14:45:42Z</time>
      </trkpt>
      <trkpt lat="47.79753" lon="-3.8253">
        <ele>-11.800000190735</ele>
        <time>2021-04-05T14:45:48Z</time>
      </trkpt>
      <trkpt lat="47.79737" lon="-3.8259">
        <ele>-12.199999809265</ele>
        <time>2021-04-05T14:45:52Z</time>
      </trkpt>
      <trkpt lat="47.79734" lon="-3.82606">
        <ele>-13.800000190735</ele>
        <time>2021-04-05T14:45:53Z</time>
      </trkpt>
      <trkpt lat="47.79721" lon="-3.82668">
        <ele>-15</ele>
        <time>2021-04-05T14:45:57Z</time>
      </trkpt>
      <trkpt lat="47.79714" lon="-3.82748">
        <ele>-15.199999809265</ele>
        <time>2021-04-05T14:46:02Z</time>
      </trkpt>
      <trkpt lat="47.79713" lon="-3.82781">
        <ele>-16</ele>
        <time>2021-04-05T14:46:04Z</time>
      </trkpt>
      <trkpt lat="47.79713" lon="-3.82812">
        <ele>-17.799999237061</ele>
        <time>2021-04-05T14:46:06Z</time>
      </trkpt>
      <trkpt lat="47.79714" lon="-3.82828">
        <ele>-18.799999237061</ele>
        <time>2021-04-05T14:46:07Z</time>
      </trkpt>
      <trkpt lat="47.79719" lon="-3.82923">
        <ele>-19</ele>
        <time>2021-04-05T14:46:13Z</time>
      </trkpt>
      <trkpt lat="47.79721" lon="-3.82953">
        <ele>-19.799999237061</ele>
        <time>2021-04-05T14:46:15Z</time>
      </trkpt>
      <trkpt lat="47.79723" lon="-3.82983">
        <ele>-17.60000038147</ele>
        <time>2021-04-05T14:46:17Z</time>
      </trkpt>
      <trkpt lat="47.79725" lon="-3.83011">
        <ele>-16.200000762939</ele>
        <time>2021-04-05T14:46:19Z</time>
      </trkpt>
      <trkpt lat="47.79726" lon="-3.83038">
        <ele>-14.800000190735</ele>
        <time>2021-04-05T14:46:21Z</time>
      </trkpt>
      <trkpt lat="47.79726" lon="-3.83064">
        <ele>-16.39999961853</ele>
        <time>2021-04-05T14:46:23Z</time>
      </trkpt>
      <trkpt lat="47.79726" lon="-3.83091">
        <ele>-15.199999809265</ele>
        <time>2021-04-05T14:46:25Z</time>
      </trkpt>
      <trkpt lat="47.79723" lon="-3.8317">
        <ele>-14.60000038147</ele>
        <time>2021-04-05T14:46:31Z</time>
      </trkpt>
      <trkpt lat="47.79723" lon="-3.83183">
        <ele>-14</ele>
        <time>2021-04-05T14:46:32Z</time>
      </trkpt>
      <trkpt lat="47.79717" lon="-3.8326">
        <ele>-13.60000038147</ele>
        <time>2021-04-05T14:46:38Z</time>
      </trkpt>
      <trkpt lat="47.79711" lon="-3.83333">
        <ele>-13.800000190735</ele>
        <time>2021-04-05T14:46:44Z</time>
      </trkpt>
      <trkpt lat="47.79707" lon="-3.83369">
        <ele>-12.800000190735</ele>
        <time>2021-04-05T14:46:47Z</time>
      </trkpt>
      <trkpt lat="47.79702" lon="-3.83438">
        <ele>-11.800000190735</ele>
        <time>2021-04-05T14:46:53Z</time>
      </trkpt>
      <trkpt lat="47.79706" lon="-3.83507">
        <ele>-11</ele>
        <time>2021-04-05T14:46:59Z</time>
      </trkpt>
      <trkpt lat="47.79708" lon="-3.83518">
        <ele>-10.60000038147</ele>
        <time>2021-04-05T14:47:00Z</time>
      </trkpt>
      <trkpt lat="47.79719" lon="-3.8356">
        <ele>-9.6000003814697</ele>
        <time>2021-04-05T14:47:04Z</time>
      </trkpt>
      <trkpt lat="47.79743" lon="-3.83617">
        <ele>-9.8000001907349</ele>
        <time>2021-04-05T14:47:10Z</time>
      </trkpt>
      <trkpt lat="47.79773" lon="-3.83667">
        <ele>-10.199999809265</ele>
        <time>2021-04-05T14:47:16Z</time>
      </trkpt>
      <trkpt lat="47.79805" lon="-3.83716">
        <ele>-11</ele>
        <time>2021-04-05T14:47:22Z</time>
      </trkpt>
      <trkpt lat="47.79836" lon="-3.83769">
        <ele>-11.60000038147</ele>
        <time>2021-04-05T14:47:28Z</time>
      </trkpt>
      <trkpt lat="47.7984" lon="-3.83779">
        <ele>-12.199999809265</ele>
        <time>2021-04-05T14:47:29Z</time>
      </trkpt>
      <trkpt lat="47.79857" lon="-3.83836">
        <ele>-13.199999809265</ele>
        <time>2021-04-05T14:47:34Z</time>
      </trkpt>
      <trkpt lat="47.79859" lon="-3.83849">
        <ele>-14.39999961853</ele>
        <time>2021-04-05T14:47:35Z</time>
      </trkpt>
      <trkpt lat="47.79861" lon="-3.83875">
        <ele>-15.60000038147</ele>
        <time>2021-04-05T14:47:37Z</time>
      </trkpt>
      <trkpt lat="47.79861" lon="-3.83888">
        <ele>-16</ele>
        <time>2021-04-05T14:47:38Z</time>
      </trkpt>
      <trkpt lat="47.79857" lon="-3.83927">
        <ele>-15.800000190735</ele>
        <time>2021-04-05T14:47:41Z</time>
      </trkpt>
      <trkpt lat="47.79836" lon="-3.83992">
        <ele>-16</ele>
        <time>2021-04-05T14:47:47Z</time>
      </trkpt>
      <trkpt lat="47.79822" lon="-3.84016">
        <ele>-14.39999961853</ele>
        <time>2021-04-05T14:47:50Z</time>
      </trkpt>
      <trkpt lat="47.79817" lon="-3.84022">
        <ele>-14.199999809265</ele>
        <time>2021-04-05T14:47:51Z</time>
      </trkpt>
      <trkpt lat="47.79806" lon="-3.84033">
        <ele>-13.39999961853</ele>
        <time>2021-04-05T14:47:53Z</time>
      </trkpt>
      <trkpt lat="47.79769" lon="-3.8406">
        <ele>-12.39999961853</ele>
        <time>2021-04-05T14:47:59Z</time>
      </trkpt>
      <trkpt lat="47.7973" lon="-3.84086">
        <ele>-11.800000190735</ele>
        <time>2021-04-05T14:48:05Z</time>
      </trkpt>
      <trkpt lat="47.79717" lon="-3.84095">
        <ele>-11.39999961853</ele>
        <time>2021-04-05T14:48:07Z</time>
      </trkpt>
      <trkpt lat="47.79678" lon="-3.84121">
        <ele>-12</ele>
        <time>2021-04-05T14:48:13Z</time>
      </trkpt>
      <trkpt lat="47.79636" lon="-3.8415">
        <ele>-12</ele>
        <time>2021-04-05T14:48:19Z</time>
      </trkpt>
      <trkpt lat="47.79628" lon="-3.84155">
        <ele>-12.39999961853</ele>
        <time>2021-04-05T14:48:20Z</time>
      </trkpt>
      <trkpt lat="47.79582" lon="-3.8419">
        <ele>-13.60000038147</ele>
        <time>2021-04-05T14:48:26Z</time>
      </trkpt>
      <trkpt lat="47.79542" lon="-3.84241">
        <ele>-14</ele>
        <time>2021-04-05T14:48:32Z</time>
      </trkpt>
      <trkpt lat="47.79532" lon="-3.84262">
        <ele>-14.800000190735</ele>
        <time>2021-04-05T14:48:34Z</time>
      </trkpt>
      <trkpt lat="47.79507" lon="-3.84332">
        <ele>-14.800000190735</ele>
        <time>2021-04-05T14:48:40Z</time>
      </trkpt>
      <trkpt lat="47.795" lon="-3.84356">
        <ele>-13.60000038147</ele>
        <time>2021-04-05T14:48:42Z</time>
      </trkpt>
      <trkpt lat="47.7949" lon="-3.84393">
        <ele>-15.39999961853</ele>
        <time>2021-04-05T14:48:45Z</time>
      </trkpt>
      <trkpt lat="47.79474" lon="-3.84442">
        <ele>-16.39999961853</ele>
        <time>2021-04-05T14:48:49Z</time>
      </trkpt>
      <trkpt lat="47.79464" lon="-3.84463">
        <ele>-15.39999961853</ele>
        <time>2021-04-05T14:48:51Z</time>
      </trkpt>
      <trkpt lat="47.79436" lon="-3.84505">
        <ele>-14</ele>
        <time>2021-04-05T14:48:56Z</time>
      </trkpt>
      <trkpt lat="47.79424" lon="-3.8452">
        <ele>-12.800000190735</ele>
        <time>2021-04-05T14:48:58Z</time>
      </trkpt>
      <trkpt lat="47.79381" lon="-3.84557">
        <ele>-13</ele>
        <time>2021-04-05T14:49:04Z</time>
      </trkpt>
      <trkpt lat="47.7935" lon="-3.84579">
        <ele>-14.199999809265</ele>
        <time>2021-04-05T14:49:08Z</time>
      </trkpt>
      <trkpt lat="47.79304" lon="-3.84612">
        <ele>-13.800000190735</ele>
        <time>2021-04-05T14:49:14Z</time>
      </trkpt>
      <trkpt lat="47.79283" lon="-3.84632">
        <ele>-13.60000038147</ele>
        <time>2021-04-05T14:49:17Z</time>
      </trkpt>
      <trkpt lat="47.79277" lon="-3.8464">
        <ele>-13</ele>
        <time>2021-04-05T14:49:18Z</time>
      </trkpt>
      <trkpt lat="47.79272" lon="-3.8465">
        <ele>-12.800000190735</ele>
        <time>2021-04-05T14:49:19Z</time>
      </trkpt>
      <trkpt lat="47.79266" lon="-3.84673">
        <ele>-13</ele>
        <time>2021-04-05T14:49:21Z</time>
      </trkpt>
      <trkpt lat="47.79264" lon="-3.84698">
        <ele>-14</ele>
        <time>2021-04-05T14:49:23Z</time>
      </trkpt>
      <trkpt lat="47.79262" lon="-3.84762">
        <ele>-12.800000190735</ele>
        <time>2021-04-05T14:49:28Z</time>
      </trkpt>
      <trkpt lat="47.79261" lon="-3.84788">
        <ele>-14</ele>
        <time>2021-04-05T14:49:30Z</time>
      </trkpt>
      <trkpt lat="47.79255" lon="-3.84866">
        <ele>-12.60000038147</ele>
        <time>2021-04-05T14:49:36Z</time>
      </trkpt>
      <trkpt lat="47.79243" lon="-3.8494">
        <ele>-12.800000190735</ele>
        <time>2021-04-05T14:49:42Z</time>
      </trkpt>
      <trkpt lat="47.79242" lon="-3.84952">
        <ele>-12.199999809265</ele>
        <time>2021-04-05T14:49:43Z</time>
      </trkpt>
      <trkpt lat="47.79243" lon="-3.84974">
        <ele>-11.60000038147</ele>
        <time>2021-04-05T14:49:45Z</time>
      </trkpt>
      <trkpt lat="47.79247" lon="-3.84993">
        <ele>-10.800000190735</ele>
        <time>2021-04-05T14:49:47Z</time>
      </trkpt>
      <trkpt lat="47.79254" lon="-3.85012">
        <ele>-12.60000038147</ele>
        <time>2021-04-05T14:49:49Z</time>
      </trkpt>
      <trkpt lat="47.79262" lon="-3.85032">
        <ele>-13.800000190735</ele>
        <time>2021-04-05T14:49:51Z</time>
      </trkpt>
      <trkpt lat="47.7927" lon="-3.85053">
        <ele>-15</ele>
        <time>2021-04-05T14:49:53Z</time>
      </trkpt>
      <trkpt lat="47.79276" lon="-3.85075">
        <ele>-15</ele>
        <time>2021-04-05T14:49:55Z</time>
      </trkpt>
      <trkpt lat="47.7928" lon="-3.85109">
        <ele>-13.800000190735</ele>
        <time>2021-04-05T14:49:58Z</time>
      </trkpt>
      <trkpt lat="47.79281" lon="-3.8512">
        <ele>-12.60000038147</ele>
        <time>2021-04-05T14:49:59Z</time>
      </trkpt>
      <trkpt lat="47.79283" lon="-3.85179">
        <ele>-13.199999809265</ele>
        <time>2021-04-05T14:50:05Z</time>
      </trkpt>
      <trkpt lat="47.7929" lon="-3.85214">
        <ele>-13.800000190735</ele>
        <time>2021-04-05T14:50:09Z</time>
      </trkpt>
      <trkpt lat="47.79293" lon="-3.85222">
        <ele>-14.800000190735</ele>
        <time>2021-04-05T14:50:10Z</time>
      </trkpt>
      <trkpt lat="47.79296" lon="-3.85229">
        <ele>-15.199999809265</ele>
        <time>2021-04-05T14:50:11Z</time>
      </trkpt>
      <trkpt lat="47.793" lon="-3.85235">
        <ele>-15.60000038147</ele>
        <time>2021-04-05T14:50:12Z</time>
      </trkpt>
      <trkpt lat="47.79309" lon="-3.85247">
        <ele>-15.199999809265</ele>
        <time>2021-04-05T14:50:14Z</time>
      </trkpt>
      <trkpt lat="47.7933" lon="-3.85264">
        <ele>-15</ele>
        <time>2021-04-05T14:50:18Z</time>
      </trkpt>
      <trkpt lat="47.79336" lon="-3.85265">
        <ele>-13.800000190735</ele>
        <time>2021-04-05T14:50:19Z</time>
      </trkpt>
      <trkpt lat="47.79353" lon="-3.85266">
        <ele>-12.800000190735</ele>
        <time>2021-04-05T14:50:22Z</time>
      </trkpt>
      <trkpt lat="47.79385" lon="-3.85265">
        <ele>-13.39999961853</ele>
        <time>2021-04-05T14:50:28Z</time>
      </trkpt>
      <trkpt lat="47.79412" lon="-3.85265">
        <ele>-11.800000190735</ele>
        <time>2021-04-05T14:50:33Z</time>
      </trkpt>
      <trkpt lat="47.79428" lon="-3.85264">
        <ele>-12.800000190735</ele>
        <time>2021-04-05T14:50:36Z</time>
      </trkpt>
      <trkpt lat="47.79439" lon="-3.85263">
        <ele>-14</ele>
        <time>2021-04-05T14:50:38Z</time>
      </trkpt>
      <trkpt lat="47.7945" lon="-3.85261">
        <ele>-12.800000190735</ele>
        <time>2021-04-05T14:50:40Z</time>
      </trkpt>
      <trkpt lat="47.79474" lon="-3.85252">
        <ele>-13.39999961853</ele>
        <time>2021-04-05T14:50:45Z</time>
      </trkpt>
      <trkpt lat="47.7949" lon="-3.85244">
        <ele>-11.60000038147</ele>
        <time>2021-04-05T14:50:48Z</time>
      </trkpt>
      <trkpt lat="47.79499" lon="-3.85237">
        <ele>-11.39999961853</ele>
        <time>2021-04-05T14:50:50Z</time>
      </trkpt>
      <trkpt lat="47.79507" lon="-3.85225">
        <ele>-10.800000190735</ele>
        <time>2021-04-05T14:50:52Z</time>
      </trkpt>
      <trkpt lat="47.7951" lon="-3.85219">
        <ele>-10.60000038147</ele>
        <time>2021-04-05T14:50:53Z</time>
      </trkpt>
      <trkpt lat="47.79513" lon="-3.85214">
        <ele>-10.199999809265</ele>
        <time>2021-04-05T14:50:54Z</time>
      </trkpt>
      <trkpt lat="47.7952" lon="-3.8521">
        <ele>-11.39999961853</ele>
        <time>2021-04-05T14:50:56Z</time>
      </trkpt>
      <trkpt lat="47.79523" lon="-3.85212">
        <ele>-12.39999961853</ele>
        <time>2021-04-05T14:50:57Z</time>
      </trkpt>
      <trkpt lat="47.79536" lon="-3.85207">
        <ele>-12.39999961853</ele>
        <time>2021-04-05T14:51:01Z</time>
      </trkpt>
      <trkpt lat="47.79549" lon="-3.85195">
        <ele>-11.199999809265</ele>
        <time>2021-04-05T14:51:07Z</time>
      </trkpt>
      <trkpt lat="47.79564" lon="-3.85176">
        <ele>-11.39999961853</ele>
        <time>2021-04-05T14:51:13Z</time>
      </trkpt>
      <trkpt lat="47.79576" lon="-3.85157">
        <ele>-12.60000038147</ele>
        <time>2021-04-05T14:51:17Z</time>
      </trkpt>
      <trkpt lat="47.79579" lon="-3.8515">
        <ele>-13.60000038147</ele>
        <time>2021-04-05T14:51:18Z</time>
      </trkpt>
      <trkpt lat="47.79582" lon="-3.85143">
        <ele>-14.800000190735</ele>
        <time>2021-04-05T14:51:19Z</time>
      </trkpt>
      <trkpt lat="47.79586" lon="-3.85124">
        <ele>-15.60000038147</ele>
        <time>2021-04-05T14:51:21Z</time>
      </trkpt>
      <trkpt lat="47.79587" lon="-3.85113">
        <ele>-16</ele>
        <time>2021-04-05T14:51:22Z</time>
      </trkpt>
      <trkpt lat="47.79586" lon="-3.85102">
        <ele>-16</ele>
        <time>2021-04-05T14:51:23Z</time>
      </trkpt>
      <trkpt lat="47.79584" lon="-3.85072">
        <ele>-15.199999809265</ele>
        <time>2021-04-05T14:51:26Z</time>
      </trkpt>
      <trkpt lat="47.79586" lon="-3.85055">
        <ele>-14.800000190735</ele>
        <time>2021-04-05T14:51:28Z</time>
      </trkpt>
      <trkpt lat="47.79592" lon="-3.85046">
        <ele>-14.800000190735</ele>
        <time>2021-04-05T14:51:30Z</time>
      </trkpt>
      <trkpt lat="47.796" lon="-3.85044">
        <ele>-14.199999809265</ele>
        <time>2021-04-05T14:51:32Z</time>
      </trkpt>
      <trkpt lat="47.79609" lon="-3.85045">
        <ele>-13.39999961853</ele>
        <time>2021-04-05T14:51:34Z</time>
      </trkpt>
      <trkpt lat="47.79634" lon="-3.8505">
        <ele>-13.199999809265</ele>
        <time>2021-04-05T14:51:40Z</time>
      </trkpt>
      <trkpt lat="47.79648" lon="-3.85049">
        <ele>-13.199999809265</ele>
        <time>2021-04-05T14:51:43Z</time>
      </trkpt>
      <trkpt lat="47.79657" lon="-3.85046">
        <ele>-12.39999961853</ele>
        <time>2021-04-05T14:51:45Z</time>
      </trkpt>
      <trkpt lat="47.79661" lon="-3.85043">
        <ele>-11.800000190735</ele>
        <time>2021-04-05T14:51:46Z</time>
      </trkpt>
      <trkpt lat="47.79665" lon="-3.8504">
        <ele>-11.199999809265</ele>
        <time>2021-04-05T14:51:47Z</time>
      </trkpt>
      <trkpt lat="47.79678" lon="-3.85029">
        <ele>-12.39999961853</ele>
        <time>2021-04-05T14:51:50Z</time>
      </trkpt>
      <trkpt lat="47.79682" lon="-3.85025">
        <ele>-13.800000190735</ele>
        <time>2021-04-05T14:51:51Z</time>
      </trkpt>
      <trkpt lat="47.79686" lon="-3.8502">
        <ele>-12.60000038147</ele>
        <time>2021-04-05T14:51:52Z</time>
      </trkpt>
      <trkpt lat="47.79708" lon="-3.84988">
        <ele>-13</ele>
        <time>2021-04-05T14:51:58Z</time>
      </trkpt>
      <trkpt lat="47.7973" lon="-3.84961">
        <ele>-11.199999809265</ele>
        <time>2021-04-05T14:52:03Z</time>
      </trkpt>
      <trkpt lat="47.79738" lon="-3.84951">
        <ele>-9.8000001907349</ele>
        <time>2021-04-05T14:52:05Z</time>
      </trkpt>
      <trkpt lat="47.79741" lon="-3.84946">
        <ele>-8.6000003814697</ele>
        <time>2021-04-05T14:52:06Z</time>
      </trkpt>
      <trkpt lat="47.79766" lon="-3.84918">
        <ele>-9</ele>
        <time>2021-04-05T14:52:12Z</time>
      </trkpt>
      <trkpt lat="47.79786" lon="-3.84892">
        <ele>-8</ele>
        <time>2021-04-05T14:52:18Z</time>
      </trkpt>
      <trkpt lat="47.79796" lon="-3.84885">
        <ele>-8.3999996185303</ele>
        <time>2021-04-05T14:52:21Z</time>
      </trkpt>
      <trkpt lat="47.79805" lon="-3.84884">
        <ele>-8.6000003814697</ele>
        <time>2021-04-05T14:52:23Z</time>
      </trkpt>
      <trkpt lat="47.79814" lon="-3.84887">
        <ele>-10.199999809265</ele>
        <time>2021-04-05T14:52:25Z</time>
      </trkpt>
      <trkpt lat="47.79841" lon="-3.84898">
        <ele>-11.39999961853</ele>
        <time>2021-04-05T14:52:30Z</time>
      </trkpt>
      <trkpt lat="47.79874" lon="-3.8491">
        <ele>-12.800000190735</ele>
        <time>2021-04-05T14:52:35Z</time>
      </trkpt>
      <trkpt lat="47.79882" lon="-3.84912">
        <ele>-14.199999809265</ele>
        <time>2021-04-05T14:52:36Z</time>
      </trkpt>
      <trkpt lat="47.79919" lon="-3.84923">
        <ele>-14.199999809265</ele>
        <time>2021-04-05T14:52:41Z</time>
      </trkpt>
      <trkpt lat="47.79964" lon="-3.84936">
        <ele>-14.199999809265</ele>
        <time>2021-04-05T14:52:47Z</time>
      </trkpt>
      <trkpt lat="47.80005" lon="-3.84949">
        <ele>-14.39999961853</ele>
        <time>2021-04-05T14:52:53Z</time>
      </trkpt>
      <trkpt lat="47.80019" lon="-3.84956">
        <ele>-15.60000038147</ele>
        <time>2021-04-05T14:52:55Z</time>
      </trkpt>
      <trkpt lat="47.80032" lon="-3.8497">
        <ele>-16.60000038147</ele>
        <time>2021-04-05T14:52:57Z</time>
      </trkpt>
      <trkpt lat="47.80037" lon="-3.84979">
        <ele>-17</ele>
        <time>2021-04-05T14:52:58Z</time>
      </trkpt>
      <trkpt lat="47.80041" lon="-3.8499">
        <ele>-17</ele>
        <time>2021-04-05T14:52:59Z</time>
      </trkpt>
      <trkpt lat="47.8005" lon="-3.85011">
        <ele>-17</ele>
        <time>2021-04-05T14:53:01Z</time>
      </trkpt>
      <trkpt lat="47.80064" lon="-3.85026">
        <ele>-19</ele>
        <time>2021-04-05T14:53:03Z</time>
      </trkpt>
      <trkpt lat="47.80072" lon="-3.8503">
        <ele>-20</ele>
        <time>2021-04-05T14:53:04Z</time>
      </trkpt>
      <trkpt lat="47.80081" lon="-3.85032">
        <ele>-21</ele>
        <time>2021-04-05T14:53:05Z</time>
      </trkpt>
      <trkpt lat="47.80114" lon="-3.85041">
        <ele>-21.200000762939</ele>
        <time>2021-04-05T14:53:09Z</time>
      </trkpt>
      <trkpt lat="47.8013" lon="-3.85048">
        <ele>-19.60000038147</ele>
        <time>2021-04-05T14:53:11Z</time>
      </trkpt>
      <trkpt lat="47.80159" lon="-3.85062">
        <ele>-18.60000038147</ele>
        <time>2021-04-05T14:53:15Z</time>
      </trkpt>
      <trkpt lat="47.80186" lon="-3.85078">
        <ele>-18.200000762939</ele>
        <time>2021-04-05T14:53:19Z</time>
      </trkpt>
      <trkpt lat="47.80228" lon="-3.85101">
        <ele>-18.200000762939</ele>
        <time>2021-04-05T14:53:25Z</time>
      </trkpt>
      <trkpt lat="47.80242" lon="-3.85108">
        <ele>-17.60000038147</ele>
        <time>2021-04-05T14:53:27Z</time>
      </trkpt>
      <trkpt lat="47.80256" lon="-3.85108">
        <ele>-18</ele>
        <time>2021-04-05T14:53:29Z</time>
      </trkpt>
      <trkpt lat="47.8027" lon="-3.85097">
        <ele>-18</ele>
        <time>2021-04-05T14:53:31Z</time>
      </trkpt>
      <trkpt lat="47.80278" lon="-3.85079">
        <ele>-17.200000762939</ele>
        <time>2021-04-05T14:53:33Z</time>
      </trkpt>
      <trkpt lat="47.8029" lon="-3.85053">
        <ele>-16.200000762939</ele>
        <time>2021-04-05T14:53:36Z</time>
      </trkpt>
      <trkpt lat="47.80304" lon="-3.85021">
        <ele>-15</ele>
        <time>2021-04-05T14:53:40Z</time>
      </trkpt>
      <trkpt lat="47.80318" lon="-3.8499">
        <ele>-13.800000190735</ele>
        <time>2021-04-05T14:53:44Z</time>
      </trkpt>
      <trkpt lat="47.80335" lon="-3.84953">
        <ele>-12.60000038147</ele>
        <time>2021-04-05T14:53:49Z</time>
      </trkpt>
      <trkpt lat="47.80355" lon="-3.84918">
        <ele>-12.199999809265</ele>
        <time>2021-04-05T14:53:54Z</time>
      </trkpt>
      <trkpt lat="47.8037" lon="-3.8489">
        <ele>-11.39999961853</ele>
        <time>2021-04-05T14:53:58Z</time>
      </trkpt>
      <trkpt lat="47.80393" lon="-3.84848">
        <ele>-11.60000038147</ele>
        <time>2021-04-05T14:54:04Z</time>
      </trkpt>
      <trkpt lat="47.80422" lon="-3.84814">
        <ele>-10.800000190735</ele>
        <time>2021-04-05T14:54:10Z</time>
      </trkpt>
      <trkpt lat="47.8044" lon="-3.84792">
        <ele>-10.39999961853</ele>
        <time>2021-04-05T14:54:14Z</time>
      </trkpt>
      <trkpt lat="47.80458" lon="-3.84771">
        <ele>-11</ele>
        <time>2021-04-05T14:54:18Z</time>
      </trkpt>
      <trkpt lat="47.80469" lon="-3.84765">
        <ele>-10</ele>
        <time>2021-04-05T14:54:20Z</time>
      </trkpt>
      <trkpt lat="47.8048" lon="-3.84762">
        <ele>-10.199999809265</ele>
        <time>2021-04-05T14:54:22Z</time>
      </trkpt>
      <trkpt lat="47.80492" lon="-3.84763">
        <ele>-9.6000003814697</ele>
        <time>2021-04-05T14:54:24Z</time>
      </trkpt>
      <trkpt lat="47.80504" lon="-3.84766">
        <ele>-9.1999998092651</ele>
        <time>2021-04-05T14:54:26Z</time>
      </trkpt>
      <trkpt lat="47.80514" lon="-3.84774">
        <ele>-9</ele>
        <time>2021-04-05T14:54:28Z</time>
      </trkpt>
      <trkpt lat="47.80529" lon="-3.8479">
        <ele>-11.39999961853</ele>
        <time>2021-04-05T14:54:31Z</time>
      </trkpt>
      <trkpt lat="47.80535" lon="-3.84795">
        <ele>-12</ele>
        <time>2021-04-05T14:54:32Z</time>
      </trkpt>
      <trkpt lat="47.80541" lon="-3.84799">
        <ele>-12.60000038147</ele>
        <time>2021-04-05T14:54:33Z</time>
      </trkpt>
      <trkpt lat="47.80548" lon="-3.84802">
        <ele>-11.800000190735</ele>
        <time>2021-04-05T14:54:34Z</time>
      </trkpt>
      <trkpt lat="47.80555" lon="-3.84805">
        <ele>-11.39999961853</ele>
        <time>2021-04-05T14:54:35Z</time>
      </trkpt>
      <trkpt lat="47.80562" lon="-3.84806">
        <ele>-11.800000190735</ele>
        <time>2021-04-05T14:54:36Z</time>
      </trkpt>
      <trkpt lat="47.80576" lon="-3.84805">
        <ele>-11.60000038147</ele>
        <time>2021-04-05T14:54:38Z</time>
      </trkpt>
      <trkpt lat="47.80614" lon="-3.84792">
        <ele>-11.60000038147</ele>
        <time>2021-04-05T14:54:44Z</time>
      </trkpt>
      <trkpt lat="47.80633" lon="-3.84789">
        <ele>-10.199999809265</ele>
        <time>2021-04-05T14:54:47Z</time>
      </trkpt>
      <trkpt lat="47.80661" lon="-3.84792">
        <ele>-9</ele>
        <time>2021-04-05T14:54:52Z</time>
      </trkpt>
      <trkpt lat="47.80675" lon="-3.84798">
        <ele>-8.1999998092651</ele>
        <time>2021-04-05T14:54:55Z</time>
      </trkpt>
      <trkpt lat="47.8068" lon="-3.84802">
        <ele>-8</ele>
        <time>2021-04-05T14:54:56Z</time>
      </trkpt>
      <trkpt lat="47.80684" lon="-3.84806">
        <ele>-7.8000001907349</ele>
        <time>2021-04-05T14:54:57Z</time>
      </trkpt>
      <trkpt lat="47.80697" lon="-3.84822">
        <ele>-7</ele>
        <time>2021-04-05T14:55:00Z</time>
      </trkpt>
      <trkpt lat="47.80701" lon="-3.84827">
        <ele>-6.8000001907349</ele>
        <time>2021-04-05T14:55:01Z</time>
      </trkpt>
      <trkpt lat="47.80706" lon="-3.84831">
        <ele>-6.8000001907349</ele>
        <time>2021-04-05T14:55:02Z</time>
      </trkpt>
      <trkpt lat="47.80715" lon="-3.84838">
        <ele>-6.8000001907349</ele>
        <time>2021-04-05T14:55:04Z</time>
      </trkpt>
      <trkpt lat="47.8072" lon="-3.84839">
        <ele>-7</ele>
        <time>2021-04-05T14:55:05Z</time>
      </trkpt>
      <trkpt lat="47.80751" lon="-3.84847">
        <ele>-5.5999999046326</ele>
        <time>2021-04-05T14:55:11Z</time>
      </trkpt>
      <trkpt lat="47.8077" lon="-3.84852">
        <ele>-4.4000000953674</ele>
        <time>2021-04-05T14:55:15Z</time>
      </trkpt>
      <trkpt lat="47.80798" lon="-3.84863">
        <ele>-4</ele>
        <time>2021-04-05T14:55:21Z</time>
      </trkpt>
      <trkpt lat="47.80809" lon="-3.84868">
        <ele>-3.2000000476837</ele>
        <time>2021-04-05T14:55:23Z</time>
      </trkpt>
      <trkpt lat="47.80841" lon="-3.84888">
        <ele>-3.5999999046326</ele>
        <time>2021-04-05T14:55:29Z</time>
      </trkpt>
      <trkpt lat="47.80863" lon="-3.84903">
        <ele>-4.4000000953674</ele>
        <time>2021-04-05T14:55:33Z</time>
      </trkpt>
      <trkpt lat="47.80898" lon="-3.84922">
        <ele>-3.7999999523163</ele>
        <time>2021-04-05T14:55:39Z</time>
      </trkpt>
      <trkpt lat="47.8091" lon="-3.84927">
        <ele>-3.2000000476837</ele>
        <time>2021-04-05T14:55:41Z</time>
      </trkpt>
      <trkpt lat="47.80949" lon="-3.84938">
        <ele>-3</ele>
        <time>2021-04-05T14:55:47Z</time>
      </trkpt>
      <trkpt lat="47.80989" lon="-3.84946">
        <ele>-2.5999999046326</ele>
        <time>2021-04-05T14:55:53Z</time>
      </trkpt>
      <trkpt lat="47.80994" lon="-3.84948">
        <ele>-2.7999999523163</ele>
        <time>2021-04-05T14:55:54Z</time>
      </trkpt>
      <trkpt lat="47.81006" lon="-3.84955">
        <ele>-2.7999999523163</ele>
        <time>2021-04-05T14:55:56Z</time>
      </trkpt>
      <trkpt lat="47.81016" lon="-3.84966">
        <ele>-2.4000000953674</ele>
        <time>2021-04-05T14:55:58Z</time>
      </trkpt>
      <trkpt lat="47.81042" lon="-3.85008">
        <ele>-2.2000000476837</ele>
        <time>2021-04-05T14:56:04Z</time>
      </trkpt>
      <trkpt lat="47.81057" lon="-3.85026">
        <ele>-4.4000000953674</ele>
        <time>2021-04-05T14:56:07Z</time>
      </trkpt>
      <trkpt lat="47.81073" lon="-3.85042">
        <ele>-3</ele>
        <time>2021-04-05T14:56:10Z</time>
      </trkpt>
      <trkpt lat="47.81105" lon="-3.85072">
        <ele>-3</ele>
        <time>2021-04-05T14:56:16Z</time>
      </trkpt>
      <trkpt lat="47.81134" lon="-3.85098">
        <ele>-4.1999998092651</ele>
        <time>2021-04-05T14:56:21Z</time>
      </trkpt>
      <trkpt lat="47.81171" lon="-3.85121">
        <ele>-5.1999998092651</ele>
        <time>2021-04-05T14:56:26Z</time>
      </trkpt>
      <trkpt lat="47.81179" lon="-3.85123">
        <ele>-5.4000000953674</ele>
        <time>2021-04-05T14:56:27Z</time>
      </trkpt>
      <trkpt lat="47.81187" lon="-3.85123">
        <ele>-5</ele>
        <time>2021-04-05T14:56:28Z</time>
      </trkpt>
      <trkpt lat="47.81224" lon="-3.85116">
        <ele>-4.1999998092651</ele>
        <time>2021-04-05T14:56:33Z</time>
      </trkpt>
      <trkpt lat="47.81263" lon="-3.85099">
        <ele>-3.5999999046326</ele>
        <time>2021-04-05T14:56:39Z</time>
      </trkpt>
      <trkpt lat="47.81277" lon="-3.85098">
        <ele>-2.7999999523163</ele>
        <time>2021-04-05T14:56:41Z</time>
      </trkpt>
      <trkpt lat="47.81296" lon="-3.85103">
        <ele>-3.7999999523163</ele>
        <time>2021-04-05T14:56:44Z</time>
      </trkpt>
      <trkpt lat="47.81302" lon="-3.85106">
        <ele>-4.1999998092651</ele>
        <time>2021-04-05T14:56:45Z</time>
      </trkpt>
      <trkpt lat="47.8133" lon="-3.85125">
        <ele>-4.8000001907349</ele>
        <time>2021-04-05T14:56:50Z</time>
      </trkpt>
      <trkpt lat="47.81342" lon="-3.85134">
        <ele>-6.1999998092651</ele>
        <time>2021-04-05T14:56:52Z</time>
      </trkpt>
      <trkpt lat="47.81381" lon="-3.85165">
        <ele>-5.4000000953674</ele>
        <time>2021-04-05T14:56:58Z</time>
      </trkpt>
      <trkpt lat="47.81387" lon="-3.85171">
        <ele>-5</ele>
        <time>2021-04-05T14:56:59Z</time>
      </trkpt>
      <trkpt lat="47.81425" lon="-3.85203">
        <ele>-4.8000001907349</ele>
        <time>2021-04-05T14:57:05Z</time>
      </trkpt>
      <trkpt lat="47.81455" lon="-3.85226">
        <ele>-3.7999999523163</ele>
        <time>2021-04-05T14:57:10Z</time>
      </trkpt>
      <trkpt lat="47.81472" lon="-3.85239">
        <ele>-2.7999999523163</ele>
        <time>2021-04-05T14:57:13Z</time>
      </trkpt>
      <trkpt lat="47.81507" lon="-3.85267">
        <ele>-2.7999999523163</ele>
        <time>2021-04-05T14:57:19Z</time>
      </trkpt>
      <trkpt lat="47.81519" lon="-3.85276">
        <ele>-1.2000000476837</ele>
        <time>2021-04-05T14:57:21Z</time>
      </trkpt>
      <trkpt lat="47.81531" lon="-3.85285">
        <ele>-2.2000000476837</ele>
        <time>2021-04-05T14:57:23Z</time>
      </trkpt>
      <trkpt lat="47.81565" lon="-3.85311">
        <ele>-2.4000000953674</ele>
        <time>2021-04-05T14:57:29Z</time>
      </trkpt>
      <trkpt lat="47.81583" lon="-3.85324">
        <ele>-3.4000000953674</ele>
        <time>2021-04-05T14:57:32Z</time>
      </trkpt>
      <trkpt lat="47.8162" lon="-3.85346">
        <ele>-3.7999999523163</ele>
        <time>2021-04-05T14:57:38Z</time>
      </trkpt>
      <trkpt lat="47.81648" lon="-3.85358">
        <ele>-4.1999998092651</ele>
        <time>2021-04-05T14:57:42Z</time>
      </trkpt>
      <trkpt lat="47.81655" lon="-3.85358">
        <ele>-5</ele>
        <time>2021-04-05T14:57:43Z</time>
      </trkpt>
      <trkpt lat="47.81663" lon="-3.85357">
        <ele>-5.4000000953674</ele>
        <time>2021-04-05T14:57:44Z</time>
      </trkpt>
      <trkpt lat="47.81677" lon="-3.85352">
        <ele>-5.5999999046326</ele>
        <time>2021-04-05T14:57:46Z</time>
      </trkpt>
      <trkpt lat="47.81713" lon="-3.85323">
        <ele>-5.1999998092651</ele>
        <time>2021-04-05T14:57:52Z</time>
      </trkpt>
      <trkpt lat="47.81726" lon="-3.8532">
        <ele>-4.8000001907349</ele>
        <time>2021-04-05T14:57:54Z</time>
      </trkpt>
      <trkpt lat="47.81738" lon="-3.8532">
        <ele>-4</ele>
        <time>2021-04-05T14:57:56Z</time>
      </trkpt>
      <trkpt lat="47.81748" lon="-3.85322">
        <ele>-3.4000000953674</ele>
        <time>2021-04-05T14:57:58Z</time>
      </trkpt>
      <trkpt lat="47.81764" lon="-3.85329">
        <ele>-2.7999999523163</ele>
        <time>2021-04-05T14:58:01Z</time>
      </trkpt>
      <trkpt lat="47.81797" lon="-3.85344">
        <ele>-3</ele>
        <time>2021-04-05T14:58:07Z</time>
      </trkpt>
      <trkpt lat="47.81809" lon="-3.8535">
        <ele>-3.7999999523163</ele>
        <time>2021-04-05T14:58:09Z</time>
      </trkpt>
      <trkpt lat="47.81834" lon="-3.85362">
        <ele>-5</ele>
        <time>2021-04-05T14:58:13Z</time>
      </trkpt>
      <trkpt lat="47.81854" lon="-3.85367">
        <ele>-6</ele>
        <time>2021-04-05T14:58:16Z</time>
      </trkpt>
      <trkpt lat="47.81896" lon="-3.85374">
        <ele>-5.8000001907349</ele>
        <time>2021-04-05T14:58:22Z</time>
      </trkpt>
      <trkpt lat="47.81902" lon="-3.85374">
        <ele>-4.8000001907349</ele>
        <time>2021-04-05T14:58:23Z</time>
      </trkpt>
      <trkpt lat="47.81927" lon="-3.85373">
        <ele>-3.5999999046326</ele>
        <time>2021-04-05T14:58:27Z</time>
      </trkpt>
      <trkpt lat="47.81956" lon="-3.85368">
        <ele>-2.4000000953674</ele>
        <time>2021-04-05T14:58:32Z</time>
      </trkpt>
      <trkpt lat="47.81986" lon="-3.85355">
        <ele>-1.6000000238419</ele>
        <time>2021-04-05T14:58:38Z</time>
      </trkpt>
      <trkpt lat="47.81996" lon="-3.85348">
        <ele>-1.2000000476837</ele>
        <time>2021-04-05T14:58:40Z</time>
      </trkpt>
      <trkpt lat="47.8203" lon="-3.85332">
        <ele>-0.80000001192093</ele>
        <time>2021-04-05T14:58:46Z</time>
      </trkpt>
      <trkpt lat="47.82048" lon="-3.85331">
        <ele>-2.7999999523163</ele>
        <time>2021-04-05T14:58:49Z</time>
      </trkpt>
      <trkpt lat="47.82061" lon="-3.85335">
        <ele>-4</ele>
        <time>2021-04-05T14:58:51Z</time>
      </trkpt>
      <trkpt lat="47.82074" lon="-3.85343">
        <ele>-5.8000001907349</ele>
        <time>2021-04-05T14:58:53Z</time>
      </trkpt>
      <trkpt lat="47.82088" lon="-3.85354">
        <ele>-7.4000000953674</ele>
        <time>2021-04-05T14:58:55Z</time>
      </trkpt>
      <trkpt lat="47.82095" lon="-3.8536">
        <ele>-8.3999996185303</ele>
        <time>2021-04-05T14:58:56Z</time>
      </trkpt>
      <trkpt lat="47.82103" lon="-3.85367">
        <ele>-9.8000001907349</ele>
        <time>2021-04-05T14:58:57Z</time>
      </trkpt>
      <trkpt lat="47.82151" lon="-3.85405">
        <ele>-9</ele>
        <time>2021-04-05T14:59:03Z</time>
      </trkpt>
      <trkpt lat="47.82169" lon="-3.85414">
        <ele>-11.39999961853</ele>
        <time>2021-04-05T14:59:05Z</time>
      </trkpt>
      <trkpt lat="47.82178" lon="-3.85419">
        <ele>-12.800000190735</ele>
        <time>2021-04-05T14:59:06Z</time>
      </trkpt>
      <trkpt lat="47.82195" lon="-3.85433">
        <ele>-13.39999961853</ele>
        <time>2021-04-05T14:59:08Z</time>
      </trkpt>
      <trkpt lat="47.82234" lon="-3.85478">
        <ele>-11.39999961853</ele>
        <time>2021-04-05T14:59:13Z</time>
      </trkpt>
      <trkpt lat="47.82241" lon="-3.85486">
        <ele>-10.199999809265</ele>
        <time>2021-04-05T14:59:14Z</time>
      </trkpt>
      <trkpt lat="47.82255" lon="-3.85502">
        <ele>-8.8000001907349</ele>
        <time>2021-04-05T14:59:16Z</time>
      </trkpt>
      <trkpt lat="47.82266" lon="-3.85515">
        <ele>-7.5999999046326</ele>
        <time>2021-04-05T14:59:18Z</time>
      </trkpt>
      <trkpt lat="47.82283" lon="-3.85533">
        <ele>-6.4000000953674</ele>
        <time>2021-04-05T14:59:21Z</time>
      </trkpt>
      <trkpt lat="47.82293" lon="-3.85545">
        <ele>-5.4000000953674</ele>
        <time>2021-04-05T14:59:23Z</time>
      </trkpt>
      <trkpt lat="47.82303" lon="-3.85557">
        <ele>-4.4000000953674</ele>
        <time>2021-04-05T14:59:25Z</time>
      </trkpt>
      <trkpt lat="47.82337" lon="-3.85588">
        <ele>-3.2000000476837</ele>
        <time>2021-04-05T14:59:31Z</time>
      </trkpt>
      <trkpt lat="47.82355" lon="-3.856">
        <ele>-4.5999999046326</ele>
        <time>2021-04-05T14:59:34Z</time>
      </trkpt>
      <trkpt lat="47.8239" lon="-3.85622">
        <ele>-4.5999999046326</ele>
        <time>2021-04-05T14:59:40Z</time>
      </trkpt>
      <trkpt lat="47.82413" lon="-3.85638">
        <ele>-3.4000000953674</ele>
        <time>2021-04-05T14:59:44Z</time>
      </trkpt>
      <trkpt lat="47.82431" lon="-3.85649">
        <ele>-3.2000000476837</ele>
        <time>2021-04-05T14:59:47Z</time>
      </trkpt>
      <trkpt lat="47.82468" lon="-3.85655">
        <ele>-3.4000000953674</ele>
        <time>2021-04-05T14:59:53Z</time>
      </trkpt>
      <trkpt lat="47.82493" lon="-3.85649">
        <ele>-4.8000001907349</ele>
        <time>2021-04-05T14:59:57Z</time>
      </trkpt>
      <trkpt lat="47.82529" lon="-3.85652">
        <ele>-6</ele>
        <time>2021-04-05T15:00:02Z</time>
      </trkpt>
      <trkpt lat="47.82565" lon="-3.85661">
        <ele>-7.1999998092651</ele>
        <time>2021-04-05T15:00:07Z</time>
      </trkpt>
      <trkpt lat="47.82579" lon="-3.85665">
        <ele>-8.3999996185303</ele>
        <time>2021-04-05T15:00:09Z</time>
      </trkpt>
      <trkpt lat="47.82595" lon="-3.85669">
        <ele>-9.6000003814697</ele>
        <time>2021-04-05T15:00:11Z</time>
      </trkpt>
      <trkpt lat="47.82611" lon="-3.85675">
        <ele>-10.800000190735</ele>
        <time>2021-04-05T15:00:13Z</time>
      </trkpt>
      <trkpt lat="47.82633" lon="-3.85678">
        <ele>-11.60000038147</ele>
        <time>2021-04-05T15:00:16Z</time>
      </trkpt>
      <trkpt lat="47.82641" lon="-3.85676">
        <ele>-12</ele>
        <time>2021-04-05T15:00:17Z</time>
      </trkpt>
      <trkpt lat="47.82649" lon="-3.85672">
        <ele>-12.39999961853</ele>
        <time>2021-04-05T15:00:18Z</time>
      </trkpt>
      <trkpt lat="47.82671" lon="-3.85656">
        <ele>-13.39999961853</ele>
        <time>2021-04-05T15:00:21Z</time>
      </trkpt>
      <trkpt lat="47.82689" lon="-3.85643">
        <ele>-13.60000038147</ele>
        <time>2021-04-05T15:00:24Z</time>
      </trkpt>
      <trkpt lat="47.82696" lon="-3.85637">
        <ele>-12.60000038147</ele>
        <time>2021-04-05T15:00:26Z</time>
      </trkpt>
      <trkpt lat="47.82698" lon="-3.85633">
        <ele>-12.39999961853</ele>
        <time>2021-04-05T15:00:27Z</time>
      </trkpt>
      <trkpt lat="47.82699" lon="-3.85617">
        <ele>-11.199999809265</ele>
        <time>2021-04-05T15:00:32Z</time>
      </trkpt>
      <trkpt lat="47.82694" lon="-3.85607">
        <ele>-10</ele>
        <time>2021-04-05T15:00:36Z</time>
      </trkpt>
      <trkpt lat="47.8269" lon="-3.85599">
        <ele>-9.3999996185303</ele>
        <time>2021-04-05T15:00:39Z</time>
      </trkpt>
      <trkpt lat="47.82683" lon="-3.85583">
        <ele>-9</ele>
        <time>2021-04-05T15:00:43Z</time>
      </trkpt>
      <trkpt lat="47.8267" lon="-3.85552">
        <ele>-8.6000003814697</ele>
        <time>2021-04-05T15:00:49Z</time>
      </trkpt>
      <trkpt lat="47.82663" lon="-3.8553">
        <ele>-9.6000003814697</ele>
        <time>2021-04-05T15:00:52Z</time>
      </trkpt>
      <trkpt lat="47.82661" lon="-3.85521">
        <ele>-10</ele>
        <time>2021-04-05T15:00:53Z</time>
      </trkpt>
      <trkpt lat="47.82654" lon="-3.85468">
        <ele>-10.199999809265</ele>
        <time>2021-04-05T15:00:59Z</time>
      </trkpt>
      <trkpt lat="47.82655" lon="-3.85424">
        <ele>-9</ele>
        <time>2021-04-05T15:01:04Z</time>
      </trkpt>
      <trkpt lat="47.82655" lon="-3.85399">
        <ele>-7.8000001907349</ele>
        <time>2021-04-05T15:01:07Z</time>
      </trkpt>
      <trkpt lat="47.82656" lon="-3.85383">
        <ele>-6.8000001907349</ele>
        <time>2021-04-05T15:01:09Z</time>
      </trkpt>
      <trkpt lat="47.82656" lon="-3.8535">
        <ele>-5.5999999046326</ele>
        <time>2021-04-05T15:01:13Z</time>
      </trkpt>
      <trkpt lat="47.82657" lon="-3.85315">
        <ele>-4.4000000953674</ele>
        <time>2021-04-05T15:01:17Z</time>
      </trkpt>
      <trkpt lat="47.82658" lon="-3.85299">
        <ele>-3.2000000476837</ele>
        <time>2021-04-05T15:01:19Z</time>
      </trkpt>
      <trkpt lat="47.82659" lon="-3.8526">
        <ele>-2.4000000953674</ele>
        <time>2021-04-05T15:01:24Z</time>
      </trkpt>
      <trkpt lat="47.8266" lon="-3.85214">
        <ele>-2.5999999046326</ele>
        <time>2021-04-05T15:01:30Z</time>
      </trkpt>
      <trkpt lat="47.82662" lon="-3.85165">
        <ele>-2.2000000476837</ele>
        <time>2021-04-05T15:01:36Z</time>
      </trkpt>
      <trkpt lat="47.82664" lon="-3.85116">
        <ele>-2.5999999046326</ele>
        <time>2021-04-05T15:01:42Z</time>
      </trkpt>
      <trkpt lat="47.82666" lon="-3.85064">
        <ele>-2.5999999046326</ele>
        <time>2021-04-05T15:01:48Z</time>
      </trkpt>
      <trkpt lat="47.82669" lon="-3.85008">
        <ele>-4</ele>
        <time>2021-04-05T15:01:54Z</time>
      </trkpt>
      <trkpt lat="47.8267" lon="-3.84951">
        <ele>-3.4000000953674</ele>
        <time>2021-04-05T15:02:00Z</time>
      </trkpt>
      <trkpt lat="47.8267" lon="-3.84899">
        <ele>-2.5999999046326</ele>
        <time>2021-04-05T15:02:06Z</time>
      </trkpt>
      <trkpt lat="47.82668" lon="-3.84851">
        <ele>-2.5999999046326</ele>
        <time>2021-04-05T15:02:12Z</time>
      </trkpt>
      <trkpt lat="47.82667" lon="-3.84836">
        <ele>-1.7999999523163</ele>
        <time>2021-04-05T15:02:14Z</time>
      </trkpt>
      <trkpt lat="47.82665" lon="-3.84791">
        <ele>-1.3999999761581</ele>
        <time>2021-04-05T15:02:20Z</time>
      </trkpt>
      <trkpt lat="47.82665" lon="-3.84776">
        <ele>-1</ele>
        <time>2021-04-05T15:02:22Z</time>
      </trkpt>
      <trkpt lat="47.82665" lon="-3.84769">
        <ele>-0.60000002384186</ele>
        <time>2021-04-05T15:02:23Z</time>
      </trkpt>
      <trkpt lat="47.82663" lon="-3.84732">
        <ele>0.60000002384186</ele>
        <time>2021-04-05T15:02:28Z</time>
      </trkpt>
      <trkpt lat="47.82661" lon="-3.84687">
        <ele>1.2000000476837</ele>
        <time>2021-04-05T15:02:34Z</time>
      </trkpt>
      <trkpt lat="47.82661" lon="-3.84659">
        <ele>1.7999999523163</ele>
        <time>2021-04-05T15:02:38Z</time>
      </trkpt>
      <trkpt lat="47.82662" lon="-3.84616">
        <ele>2.2000000476837</ele>
        <time>2021-04-05T15:02:44Z</time>
      </trkpt>
      <trkpt lat="47.82663" lon="-3.84595">
        <ele>3</ele>
        <time>2021-04-05T15:02:47Z</time>
      </trkpt>
      <trkpt lat="47.82664" lon="-3.84555">
        <ele>5</ele>
        <time>2021-04-05T15:02:53Z</time>
      </trkpt>
      <trkpt lat="47.82665" lon="-3.84543">
        <ele>6.1999998092651</ele>
        <time>2021-04-05T15:02:55Z</time>
      </trkpt>
      <trkpt lat="47.82667" lon="-3.84504">
        <ele>6</ele>
        <time>2021-04-05T15:03:01Z</time>
      </trkpt>
      <trkpt lat="47.82668" lon="-3.84463">
        <ele>5.4000000953674</ele>
        <time>2021-04-05T15:03:07Z</time>
      </trkpt>
      <trkpt lat="47.82669" lon="-3.84449">
        <ele>4.5999999046326</ele>
        <time>2021-04-05T15:03:09Z</time>
      </trkpt>
      <trkpt lat="47.82669" lon="-3.84442">
        <ele>3.5999999046326</ele>
        <time>2021-04-05T15:03:10Z</time>
      </trkpt>
      <trkpt lat="47.8267" lon="-3.84426">
        <ele>2.2000000476837</ele>
        <time>2021-04-05T15:03:12Z</time>
      </trkpt>
      <trkpt lat="47.82673" lon="-3.84377">
        <ele>2.4000000953674</ele>
        <time>2021-04-05T15:03:18Z</time>
      </trkpt>
      <trkpt lat="47.82675" lon="-3.84332">
        <ele>2.7999999523163</ele>
        <time>2021-04-05T15:03:24Z</time>
      </trkpt>
      <trkpt lat="47.82677" lon="-3.84286">
        <ele>3</ele>
        <time>2021-04-05T15:03:30Z</time>
      </trkpt>
      <trkpt lat="47.8268" lon="-3.84241">
        <ele>2.5999999046326</ele>
        <time>2021-04-05T15:03:36Z</time>
      </trkpt>
      <trkpt lat="47.82682" lon="-3.84203">
        <ele>3.4000000953674</ele>
        <time>2021-04-05T15:03:41Z</time>
      </trkpt>
      <trkpt lat="47.82684" lon="-3.84161">
        <ele>2</ele>
        <time>2021-04-05T15:03:46Z</time>
      </trkpt>
      <trkpt lat="47.82686" lon="-3.84133">
        <ele>1</ele>
        <time>2021-04-05T15:03:49Z</time>
      </trkpt>
      <trkpt lat="47.82687" lon="-3.84104">
        <ele>23.9</ele>
        <time>2021-04-05T15:03:52Z</time>
      </trkpt>
      <trkpt lat="47.82689" lon="-3.84073">
        <ele>-1.2000000476837</ele>
        <time>2021-04-05T15:03:55Z</time>
      </trkpt>
      <trkpt lat="47.8269" lon="-3.8404">
        <ele>-1.3999999761581</ele>
        <time>2021-04-05T15:03:58Z</time>
      </trkpt>
      <trkpt lat="47.82693" lon="-3.8398">
        <ele>-0.80000001192093</ele>
        <time>2021-04-05T15:04:04Z</time>
      </trkpt>
      <trkpt lat="47.82693" lon="-3.83926">
        <ele>0.20000000298023</ele>
        <time>2021-04-05T15:04:10Z</time>
      </trkpt>
      <trkpt lat="47.82699" lon="-3.83899">
        <ele>-0.40000000596046</ele>
        <time>2021-04-05T15:04:16Z</time>
      </trkpt>
      <trkpt lat="47.82719" lon="-3.83868">
        <ele>-0.60000002384186</ele>
        <time>2021-04-05T15:04:22Z</time>
      </trkpt>
      <trkpt lat="47.82728" lon="-3.83847">
        <ele>-1.3999999761581</ele>
        <time>2021-04-05T15:04:25Z</time>
      </trkpt>
      <trkpt lat="47.82733" lon="-3.83824">
        <ele>-1.7999999523163</ele>
        <time>2021-04-05T15:04:28Z</time>
      </trkpt>
      <trkpt lat="47.82734" lon="-3.83802">
        <ele>-1.7999999523163</ele>
        <time>2021-04-05T15:04:31Z</time>
      </trkpt>
      <trkpt lat="47.8273" lon="-3.83757">
        <ele>-1.2000000476837</ele>
        <time>2021-04-05T15:04:37Z</time>
      </trkpt>
      <trkpt lat="47.82731" lon="-3.83712">
        <ele>-0.60000002384186</ele>
        <time>2021-04-05T15:04:43Z</time>
      </trkpt>
      <trkpt lat="47.82734" lon="-3.83692">
        <ele>-0.40000000596046</ele>
        <time>2021-04-05T15:04:46Z</time>
      </trkpt>
      <trkpt lat="47.82739" lon="-3.8366">
        <ele>0.80000001192093</ele>
        <time>2021-04-05T15:04:51Z</time>
      </trkpt>
      <trkpt lat="47.82742" lon="-3.83648">
        <ele>1.2000000476837</ele>
        <time>2021-04-05T15:04:53Z</time>
      </trkpt>
      <trkpt lat="47.82746" lon="-3.83632">
        <ele>2.2000000476837</ele>
        <time>2021-04-05T15:04:56Z</time>
      </trkpt>
      <trkpt lat="47.82748" lon="-3.83622">
        <ele>2.7999999523163</ele>
        <time>2021-04-05T15:04:58Z</time>
      </trkpt>
      <trkpt lat="47.82751" lon="-3.8361">
        <ele>3.2000000476837</ele>
        <time>2021-04-05T15:05:00Z</time>
      </trkpt>
      <trkpt lat="47.82755" lon="-3.83598">
        <ele>3.2000000476837</ele>
        <time>2021-04-05T15:05:02Z</time>
      </trkpt>
      <trkpt lat="47.8276" lon="-3.83585">
        <ele>3.5999999046326</ele>
        <time>2021-04-05T15:05:04Z</time>
      </trkpt>
      <trkpt lat="47.82762" lon="-3.83579">
        <ele>4</ele>
        <time>2021-04-05T15:05:05Z</time>
      </trkpt>
      <trkpt lat="47.82764" lon="-3.83566">
        <ele>5.1999998092651</ele>
        <time>2021-04-05T15:05:07Z</time>
      </trkpt>
      <trkpt lat="47.82767" lon="-3.83554">
        <ele>6.4000000953674</ele>
        <time>2021-04-05T15:05:09Z</time>
      </trkpt>
      <trkpt lat="47.82769" lon="-3.83541">
        <ele>7.8000001907349</ele>
        <time>2021-04-05T15:05:11Z</time>
      </trkpt>
      <trkpt lat="47.82772" lon="-3.83528">
        <ele>8.1999998092651</ele>
        <time>2021-04-05T15:05:13Z</time>
      </trkpt>
      <trkpt lat="47.82775" lon="-3.83515">
        <ele>8.8000001907349</ele>
        <time>2021-04-05T15:05:15Z</time>
      </trkpt>
      <trkpt lat="47.8278" lon="-3.83502">
        <ele>9.3999996185303</ele>
        <time>2021-04-05T15:05:17Z</time>
      </trkpt>
      <trkpt lat="47.82785" lon="-3.83477">
        <ele>10</ele>
        <time>2021-04-05T15:05:21Z</time>
      </trkpt>
      <trkpt lat="47.828" lon="-3.83438">
        <ele>10.60000038147</ele>
        <time>2021-04-05T15:05:27Z</time>
      </trkpt>
      <trkpt lat="47.82809" lon="-3.83412">
        <ele>11</ele>
        <time>2021-04-05T15:05:31Z</time>
      </trkpt>
      <trkpt lat="47.82816" lon="-3.83394">
        <ele>12.199999809265</ele>
        <time>2021-04-05T15:05:34Z</time>
      </trkpt>
      <trkpt lat="47.82827" lon="-3.83353">
        <ele>13</ele>
        <time>2021-04-05T15:05:40Z</time>
      </trkpt>
      <trkpt lat="47.8283" lon="-3.83341">
        <ele>13</ele>
        <time>2021-04-05T15:05:42Z</time>
      </trkpt>
      <trkpt lat="47.82832" lon="-3.83329">
        <ele>13.39999961853</ele>
        <time>2021-04-05T15:05:44Z</time>
      </trkpt>
      <trkpt lat="47.82832" lon="-3.83316">
        <ele>14.60000038147</ele>
        <time>2021-04-05T15:05:46Z</time>
      </trkpt>
      <trkpt lat="47.82832" lon="-3.83275">
        <ele>14.60000038147</ele>
        <time>2021-04-05T15:05:52Z</time>
      </trkpt>
      <trkpt lat="47.82836" lon="-3.83233">
        <ele>14.800000190735</ele>
        <time>2021-04-05T15:05:58Z</time>
      </trkpt>
      <trkpt lat="47.82845" lon="-3.83186">
        <ele>14.800000190735</ele>
        <time>2021-04-05T15:06:04Z</time>
      </trkpt>
      <trkpt lat="47.82848" lon="-3.8314">
        <ele>15.60000038147</ele>
        <time>2021-04-05T15:06:10Z</time>
      </trkpt>
      <trkpt lat="47.82848" lon="-3.83132">
        <ele>15.60000038147</ele>
        <time>2021-04-05T15:06:11Z</time>
      </trkpt>
      <trkpt lat="47.82854" lon="-3.83086">
        <ele>15.60000038147</ele>
        <time>2021-04-05T15:06:17Z</time>
      </trkpt>
      <trkpt lat="47.82862" lon="-3.8304">
        <ele>15.800000190735</ele>
        <time>2021-04-05T15:06:23Z</time>
      </trkpt>
      <trkpt lat="47.8287" lon="-3.82993">
        <ele>16</ele>
        <time>2021-04-05T15:06:29Z</time>
      </trkpt>
      <trkpt lat="47.82873" lon="-3.8297">
        <ele>14.60000038147</ele>
        <time>2021-04-05T15:06:32Z</time>
      </trkpt>
      <trkpt lat="47.82876" lon="-3.82946">
        <ele>13.39999961853</ele>
        <time>2021-04-05T15:06:35Z</time>
      </trkpt>
      <trkpt lat="47.82884" lon="-3.829">
        <ele>12.39999961853</ele>
        <time>2021-04-05T15:06:40Z</time>
      </trkpt>
      <trkpt lat="47.82891" lon="-3.82864">
        <ele>13.60000038147</ele>
        <time>2021-04-05T15:06:44Z</time>
      </trkpt>
      <trkpt lat="47.82895" lon="-3.82836">
        <ele>12.39999961853</ele>
        <time>2021-04-05T15:06:47Z</time>
      </trkpt>
      <trkpt lat="47.82905" lon="-3.8278">
        <ele>11.800000190735</ele>
        <time>2021-04-05T15:06:53Z</time>
      </trkpt>
      <trkpt lat="47.82914" lon="-3.82753">
        <ele>12</ele>
        <time>2021-04-05T15:06:56Z</time>
      </trkpt>
      <trkpt lat="47.8293" lon="-3.82723">
        <ele>11.199999809265</ele>
        <time>2021-04-05T15:07:00Z</time>
      </trkpt>
      <trkpt lat="47.82956" lon="-3.8268">
        <ele>11.800000190735</ele>
        <time>2021-04-05T15:07:06Z</time>
      </trkpt>
      <trkpt lat="47.82965" lon="-3.82667">
        <ele>12.199999809265</ele>
        <time>2021-04-05T15:07:08Z</time>
      </trkpt>
      <trkpt lat="47.82989" lon="-3.82626">
        <ele>12.800000190735</ele>
        <time>2021-04-05T15:07:14Z</time>
      </trkpt>
      <trkpt lat="47.83009" lon="-3.82594">
        <ele>14</ele>
        <time>2021-04-05T15:07:19Z</time>
      </trkpt>
      <trkpt lat="47.83028" lon="-3.82561">
        <ele>13.199999809265</ele>
        <time>2021-04-05T15:07:25Z</time>
      </trkpt>
      <trkpt lat="47.83034" lon="-3.82541">
        <ele>13.800000190735</ele>
        <time>2021-04-05T15:07:30Z</time>
      </trkpt>
      <trkpt lat="47.83036" lon="-3.82549">
        <ele>14.39999961853</ele>
        <time>2021-04-05T15:07:34Z</time>
      </trkpt>
      <trkpt lat="47.83035" lon="-3.8255">
        <ele>14.39999961853</ele>
        <time>2021-04-05T15:07:35Z</time>
      </trkpt>
      <trkpt lat="47.83027" lon="-3.82568">
        <ele>14.39999961853</ele>
        <time>2021-04-05T15:07:41Z</time>
      </trkpt>
      <trkpt lat="47.83012" lon="-3.82594">
        <ele>14.39999961853</ele>
        <time>2021-04-05T15:07:47Z</time>
      </trkpt>
      <trkpt lat="47.83001" lon="-3.8261">
        <ele>15</ele>
        <time>2021-04-05T15:07:51Z</time>
      </trkpt>
      <trkpt lat="47.82984" lon="-3.82637">
        <ele>14</ele>
        <time>2021-04-05T15:07:57Z</time>
      </trkpt>
      <trkpt lat="47.82978" lon="-3.82647">
        <ele>14</ele>
        <time>2021-04-05T15:07:59Z</time>
      </trkpt>
      <trkpt lat="47.82965" lon="-3.82669">
        <ele>13.39999961853</ele>
        <time>2021-04-05T15:08:03Z</time>
      </trkpt>
      <trkpt lat="47.82944" lon="-3.82701">
        <ele>14</ele>
        <time>2021-04-05T15:08:09Z</time>
      </trkpt>
      <trkpt lat="47.82925" lon="-3.82734">
        <ele>13.800000190735</ele>
        <time>2021-04-05T15:08:15Z</time>
      </trkpt>
      <trkpt lat="47.82912" lon="-3.82758">
        <ele>13.60000038147</ele>
        <time>2021-04-05T15:08:19Z</time>
      </trkpt>
      <trkpt lat="47.82907" lon="-3.82772">
        <ele>13.800000190735</ele>
        <time>2021-04-05T15:08:21Z</time>
      </trkpt>
      <trkpt lat="47.82899" lon="-3.82816">
        <ele>13.800000190735</ele>
        <time>2021-04-05T15:08:27Z</time>
      </trkpt>
      <trkpt lat="47.82891" lon="-3.8286">
        <ele>14.39999961853</ele>
        <time>2021-04-05T15:08:33Z</time>
      </trkpt>
      <trkpt lat="47.82886" lon="-3.82896">
        <ele>14.800000190735</ele>
        <time>2021-04-05T15:08:38Z</time>
      </trkpt>
      <trkpt lat="47.82881" lon="-3.82924">
        <ele>15.199999809265</ele>
        <time>2021-04-05T15:08:42Z</time>
      </trkpt>
      <trkpt lat="47.82875" lon="-3.82966">
        <ele>16.200000762939</ele>
        <time>2021-04-05T15:08:48Z</time>
      </trkpt>
      <trkpt lat="47.82869" lon="-3.83008">
        <ele>16.60000038147</ele>
        <time>2021-04-05T15:08:54Z</time>
      </trkpt>
      <trkpt lat="47.82862" lon="-3.83051">
        <ele>15.800000190735</ele>
        <time>2021-04-05T15:09:00Z</time>
      </trkpt>
      <trkpt lat="47.82855" lon="-3.83096">
        <ele>15.800000190735</ele>
        <time>2021-04-05T15:09:06Z</time>
      </trkpt>
      <trkpt lat="47.82852" lon="-3.83121">
        <ele>16</ele>
        <time>2021-04-05T15:09:09Z</time>
      </trkpt>
      <trkpt lat="47.8285" lon="-3.83147">
        <ele>14.800000190735</ele>
        <time>2021-04-05T15:09:12Z</time>
      </trkpt>
      <trkpt lat="47.82848" lon="-3.83182">
        <ele>13.800000190735</ele>
        <time>2021-04-05T15:09:16Z</time>
      </trkpt>
      <trkpt lat="47.82845" lon="-3.83209">
        <ele>12.60000038147</ele>
        <time>2021-04-05T15:09:19Z</time>
      </trkpt>
      <trkpt lat="47.82839" lon="-3.83249">
        <ele>13.60000038147</ele>
        <time>2021-04-05T15:09:24Z</time>
      </trkpt>
      <trkpt lat="47.8284" lon="-3.83298">
        <ele>14.199999809265</ele>
        <time>2021-04-05T15:09:30Z</time>
      </trkpt>
      <trkpt lat="47.82838" lon="-3.83316">
        <ele>13.800000190735</ele>
        <time>2021-04-05T15:09:32Z</time>
      </trkpt>
      <trkpt lat="47.82833" lon="-3.83341">
        <ele>14.199999809265</ele>
        <time>2021-04-05T15:09:35Z</time>
      </trkpt>
      <trkpt lat="47.82819" lon="-3.83393">
        <ele>12.800000190735</ele>
        <time>2021-04-05T15:09:41Z</time>
      </trkpt>
      <trkpt lat="47.82817" lon="-3.83402">
        <ele>12.60000038147</ele>
        <time>2021-04-05T15:09:42Z</time>
      </trkpt>
      <trkpt lat="47.82807" lon="-3.8344">
        <ele>11</ele>
        <time>2021-04-05T15:09:46Z</time>
      </trkpt>
      <trkpt lat="47.82803" lon="-3.83459">
        <ele>9.8000001907349</ele>
        <time>2021-04-05T15:09:48Z</time>
      </trkpt>
      <trkpt lat="47.82791" lon="-3.83501">
        <ele>8.8000001907349</ele>
        <time>2021-04-05T15:09:52Z</time>
      </trkpt>
      <trkpt lat="47.8278" lon="-3.83536">
        <ele>7.1999998092651</ele>
        <time>2021-04-05T15:09:55Z</time>
      </trkpt>
      <trkpt lat="47.82773" lon="-3.8356">
        <ele>6.1999998092651</ele>
        <time>2021-04-05T15:09:57Z</time>
      </trkpt>
      <trkpt lat="47.82759" lon="-3.836">
        <ele>4.8000001907349</ele>
        <time>2021-04-05T15:10:00Z</time>
      </trkpt>
      <trkpt lat="47.82749" lon="-3.83627">
        <ele>3.2000000476837</ele>
        <time>2021-04-05T15:10:02Z</time>
      </trkpt>
      <trkpt lat="47.82744" lon="-3.8364">
        <ele>1.7999999523163</ele>
        <time>2021-04-05T15:10:03Z</time>
      </trkpt>
      <trkpt lat="47.82734" lon="-3.83669">
        <ele>0.60000002384186</ele>
        <time>2021-04-05T15:10:05Z</time>
      </trkpt>
      <trkpt lat="47.82727" lon="-3.83699">
        <ele>-0.20000000298023</ele>
        <time>2021-04-05T15:10:07Z</time>
      </trkpt>
      <trkpt lat="47.82725" lon="-3.83715">
        <ele>-0.60000002384186</ele>
        <time>2021-04-05T15:10:08Z</time>
      </trkpt>
      <trkpt lat="47.82724" lon="-3.83731">
        <ele>-1.2000000476837</ele>
        <time>2021-04-05T15:10:09Z</time>
      </trkpt>
      <trkpt lat="47.82725" lon="-3.83747">
        <ele>-2</ele>
        <time>2021-04-05T15:10:10Z</time>
      </trkpt>
      <trkpt lat="47.82729" lon="-3.83822">
        <ele>-1.7999999523163</ele>
        <time>2021-04-05T15:10:15Z</time>
      </trkpt>
      <trkpt lat="47.82725" lon="-3.83849">
        <ele>-1.6000000238419</ele>
        <time>2021-04-05T15:10:17Z</time>
      </trkpt>
      <trkpt lat="47.8272" lon="-3.83871">
        <ele>-0.20000000298023</ele>
        <time>2021-04-05T15:10:19Z</time>
      </trkpt>
      <trkpt lat="47.82709" lon="-3.83902">
        <ele>1</ele>
        <time>2021-04-05T15:10:24Z</time>
      </trkpt>
      <trkpt lat="47.82703" lon="-3.83916">
        <ele>1.6000000238419</ele>
        <time>2021-04-05T15:10:27Z</time>
      </trkpt>
      <trkpt lat="47.82698" lon="-3.83929">
        <ele>0.60000002384186</ele>
        <time>2021-04-05T15:10:29Z</time>
      </trkpt>
      <trkpt lat="47.82696" lon="-3.83945">
        <ele>22</ele>
        <time>2021-04-05T15:10:31Z</time>
      </trkpt>
      <trkpt lat="47.82692" lon="-3.83994">
        <ele>0.60000002384186</ele>
        <time>2021-04-05T15:10:37Z</time>
      </trkpt>
      <trkpt lat="47.82691" lon="-3.84039">
        <ele>1.2000000476837</ele>
        <time>2021-04-05T15:10:42Z</time>
      </trkpt>
      <trkpt lat="47.82689" lon="-3.84067">
        <ele>1.3999999761581</ele>
        <time>2021-04-05T15:10:45Z</time>
      </trkpt>
      <trkpt lat="47.82688" lon="-3.84113">
        <ele>2</ele>
        <time>2021-04-05T15:10:50Z</time>
      </trkpt>
      <trkpt lat="47.82687" lon="-3.8414">
        <ele>1.7999999523163</ele>
        <time>2021-04-05T15:10:53Z</time>
      </trkpt>
      <trkpt lat="47.82686" lon="-3.84148">
        <ele>2.7999999523163</ele>
        <time>2021-04-05T15:10:54Z</time>
      </trkpt>
      <trkpt lat="47.82684" lon="-3.84173">
        <ele>3.7999999523163</ele>
        <time>2021-04-05T15:10:57Z</time>
      </trkpt>
      <trkpt lat="47.82683" lon="-3.84206">
        <ele>1.3999999761581</ele>
        <time>2021-04-05T15:11:01Z</time>
      </trkpt>
      <trkpt lat="47.82683" lon="-3.84232">
        <ele>2.4000000953674</ele>
        <time>2021-04-05T15:11:04Z</time>
      </trkpt>
      <trkpt lat="47.82682" lon="-3.84249">
        <ele>4.1999998092651</ele>
        <time>2021-04-05T15:11:06Z</time>
      </trkpt>
      <trkpt lat="47.8268" lon="-3.84291">
        <ele>4.5999999046326</ele>
        <time>2021-04-05T15:11:11Z</time>
      </trkpt>
      <trkpt lat="47.82678" lon="-3.84318">
        <ele>3.2000000476837</ele>
        <time>2021-04-05T15:11:14Z</time>
      </trkpt>
      <trkpt lat="47.82675" lon="-3.84372">
        <ele>3</ele>
        <time>2021-04-05T15:11:20Z</time>
      </trkpt>
      <trkpt lat="47.82673" lon="-3.84429">
        <ele>2</ele>
        <time>2021-04-05T15:11:26Z</time>
      </trkpt>
      <trkpt lat="47.82671" lon="-3.84465">
        <ele>4.1999998092651</ele>
        <time>2021-04-05T15:11:30Z</time>
      </trkpt>
      <trkpt lat="47.82668" lon="-3.84518">
        <ele>2.7999999523163</ele>
        <time>2021-04-05T15:11:36Z</time>
      </trkpt>
      <trkpt lat="47.82666" lon="-3.84572">
        <ele>2</ele>
        <time>2021-04-05T15:11:42Z</time>
      </trkpt>
      <trkpt lat="47.82665" lon="-3.84592">
        <ele>4.5999999046326</ele>
        <time>2021-04-05T15:11:44Z</time>
      </trkpt>
      <trkpt lat="47.82662" lon="-3.84653">
        <ele>4.4000000953674</ele>
        <time>2021-04-05T15:11:50Z</time>
      </trkpt>
      <trkpt lat="47.82662" lon="-3.84675">
        <ele>3.7999999523163</ele>
        <time>2021-04-05T15:11:52Z</time>
      </trkpt>
      <trkpt lat="47.82663" lon="-3.84707">
        <ele>2</ele>
        <time>2021-04-05T15:11:55Z</time>
      </trkpt>
      <trkpt lat="47.82666" lon="-3.84771">
        <ele>1</ele>
        <time>2021-04-05T15:12:01Z</time>
      </trkpt>
      <trkpt lat="47.82667" lon="-3.84793">
        <ele>0.20000000298023</ele>
        <time>2021-04-05T15:12:03Z</time>
      </trkpt>
      <trkpt lat="47.82667" lon="-3.84817">
        <ele>-1</ele>
        <time>2021-04-05T15:12:05Z</time>
      </trkpt>
      <trkpt lat="47.8267" lon="-3.84877">
        <ele>-0.60000002384186</ele>
        <time>2021-04-05T15:12:10Z</time>
      </trkpt>
      <trkpt lat="47.82672" lon="-3.84925">
        <ele>19.7</ele>
        <time>2021-04-05T15:12:14Z</time>
      </trkpt>
      <trkpt lat="47.82671" lon="-3.85">
        <ele>-0.40000000596046</ele>
        <time>2021-04-05T15:12:20Z</time>
      </trkpt>
      <trkpt lat="47.82669" lon="-3.85061">
        <ele>-0.20000000298023</ele>
        <time>2021-04-05T15:12:25Z</time>
      </trkpt>
      <trkpt lat="47.82665" lon="-3.85126">
        <ele>-0.20000000298023</ele>
        <time>2021-04-05T15:12:31Z</time>
      </trkpt>
      <trkpt lat="47.82663" lon="-3.85188">
        <ele>20.1</ele>
        <time>2021-04-05T15:12:37Z</time>
      </trkpt>
      <trkpt lat="47.82661" lon="-3.85249">
        <ele>-1.2000000476837</ele>
        <time>2021-04-05T15:12:43Z</time>
      </trkpt>
      <trkpt lat="47.82659" lon="-3.8529">
        <ele>-2</ele>
        <time>2021-04-05T15:12:47Z</time>
      </trkpt>
      <trkpt lat="47.82657" lon="-3.85333">
        <ele>-3</ele>
        <time>2021-04-05T15:12:51Z</time>
      </trkpt>
      <trkpt lat="47.82656" lon="-3.85356">
        <ele>-4.5999999046326</ele>
        <time>2021-04-05T15:12:53Z</time>
      </trkpt>
      <trkpt lat="47.82655" lon="-3.85382">
        <ele>-6.4000000953674</ele>
        <time>2021-04-05T15:12:55Z</time>
      </trkpt>
      <trkpt lat="47.82654" lon="-3.8541">
        <ele>-8.1999998092651</ele>
        <time>2021-04-05T15:12:57Z</time>
      </trkpt>
      <trkpt lat="47.82653" lon="-3.8544">
        <ele>-9.8000001907349</ele>
        <time>2021-04-05T15:12:59Z</time>
      </trkpt>
      <trkpt lat="47.82653" lon="-3.85455">
        <ele>-11</ele>
        <time>2021-04-05T15:13:00Z</time>
      </trkpt>
      <trkpt lat="47.82655" lon="-3.855">
        <ele>-12</ele>
        <time>2021-04-05T15:13:03Z</time>
      </trkpt>
      <trkpt lat="47.82657" lon="-3.85514">
        <ele>-11.39999961853</ele>
        <time>2021-04-05T15:13:04Z</time>
      </trkpt>
      <trkpt lat="47.82663" lon="-3.85537">
        <ele>-10.800000190735</ele>
        <time>2021-04-05T15:13:06Z</time>
      </trkpt>
      <trkpt lat="47.82679" lon="-3.85573">
        <ele>-10</ele>
        <time>2021-04-05T15:13:10Z</time>
      </trkpt>
      <trkpt lat="47.827" lon="-3.85616">
        <ele>-11.800000190735</ele>
        <time>2021-04-05T15:13:16Z</time>
      </trkpt>
      <trkpt lat="47.82703" lon="-3.85622">
        <ele>-12.199999809265</ele>
        <time>2021-04-05T15:13:17Z</time>
      </trkpt>
      <trkpt lat="47.82706" lon="-3.85627">
        <ele>-12.800000190735</ele>
        <time>2021-04-05T15:13:18Z</time>
      </trkpt>
      <trkpt lat="47.8271" lon="-3.85633">
        <ele>-13.199999809265</ele>
        <time>2021-04-05T15:13:19Z</time>
      </trkpt>
      <trkpt lat="47.82715" lon="-3.85638">
        <ele>-13.199999809265</ele>
        <time>2021-04-05T15:13:20Z</time>
      </trkpt>
      <trkpt lat="47.82731" lon="-3.85651">
        <ele>-14.39999961853</ele>
        <time>2021-04-05T15:13:23Z</time>
      </trkpt>
      <trkpt lat="47.82749" lon="-3.85663">
        <ele>-14.199999809265</ele>
        <time>2021-04-05T15:13:26Z</time>
      </trkpt>
      <trkpt lat="47.82756" lon="-3.85668">
        <ele>-13.39999961853</ele>
        <time>2021-04-05T15:13:27Z</time>
      </trkpt>
      <trkpt lat="47.82769" lon="-3.85678">
        <ele>-12.60000038147</ele>
        <time>2021-04-05T15:13:29Z</time>
      </trkpt>
      <trkpt lat="47.82781" lon="-3.85689">
        <ele>-12.39999961853</ele>
        <time>2021-04-05T15:13:31Z</time>
      </trkpt>
      <trkpt lat="47.82788" lon="-3.85695">
        <ele>-12.199999809265</ele>
        <time>2021-04-05T15:13:32Z</time>
      </trkpt>
      <trkpt lat="47.828" lon="-3.85709">
        <ele>-10.800000190735</ele>
        <time>2021-04-05T15:13:34Z</time>
      </trkpt>
      <trkpt lat="47.82811" lon="-3.85722">
        <ele>-9.6000003814697</ele>
        <time>2021-04-05T15:13:36Z</time>
      </trkpt>
      <trkpt lat="47.82825" lon="-3.8574">
        <ele>-9.8000001907349</ele>
        <time>2021-04-05T15:13:39Z</time>
      </trkpt>
      <trkpt lat="47.82834" lon="-3.85751">
        <ele>-8.6000003814697</ele>
        <time>2021-04-05T15:13:41Z</time>
      </trkpt>
      <trkpt lat="47.82859" lon="-3.85778">
        <ele>-8</ele>
        <time>2021-04-05T15:13:47Z</time>
      </trkpt>
      <trkpt lat="47.82867" lon="-3.85786">
        <ele>-7.5999999046326</ele>
        <time>2021-04-05T15:13:49Z</time>
      </trkpt>
      <trkpt lat="47.82892" lon="-3.8581">
        <ele>-7.1999998092651</ele>
        <time>2021-04-05T15:13:55Z</time>
      </trkpt>
      <trkpt lat="47.82897" lon="-3.85812">
        <ele>-8.8000001907349</ele>
        <time>2021-04-05T15:13:56Z</time>
      </trkpt>
      <trkpt lat="47.82927" lon="-3.85822">
        <ele>-8</ele>
        <time>2021-04-05T15:14:02Z</time>
      </trkpt>
      <trkpt lat="47.82932" lon="-3.85824">
        <ele>-7.8000001907349</ele>
        <time>2021-04-05T15:14:03Z</time>
      </trkpt>
      <trkpt lat="47.82963" lon="-3.85841">
        <ele>-7.8000001907349</ele>
        <time>2021-04-05T15:14:09Z</time>
      </trkpt>
      <trkpt lat="47.82996" lon="-3.8586">
        <ele>-8.8000001907349</ele>
        <time>2021-04-05T15:14:15Z</time>
      </trkpt>
      <trkpt lat="47.83026" lon="-3.85874">
        <ele>-10.39999961853</ele>
        <time>2021-04-05T15:14:20Z</time>
      </trkpt>
      <trkpt lat="47.83038" lon="-3.85882">
        <ele>-12.199999809265</ele>
        <time>2021-04-05T15:14:22Z</time>
      </trkpt>
      <trkpt lat="47.83051" lon="-3.8589">
        <ele>-13.199999809265</ele>
        <time>2021-04-05T15:14:24Z</time>
      </trkpt>
      <trkpt lat="47.83074" lon="-3.85917">
        <ele>-12.60000038147</ele>
        <time>2021-04-05T15:14:28Z</time>
      </trkpt>
      <trkpt lat="47.83107" lon="-3.8597">
        <ele>-11.800000190735</ele>
        <time>2021-04-05T15:14:34Z</time>
      </trkpt>
      <trkpt lat="47.83117" lon="-3.85984">
        <ele>-10</ele>
        <time>2021-04-05T15:14:36Z</time>
      </trkpt>
      <trkpt lat="47.83121" lon="-3.85991">
        <ele>-9.6000003814697</ele>
        <time>2021-04-05T15:14:37Z</time>
      </trkpt>
      <trkpt lat="47.83118" lon="-3.86008">
        <ele>-9.3999996185303</ele>
        <time>2021-04-05T15:14:39Z</time>
      </trkpt>
      <trkpt lat="47.83107" lon="-3.86019">
        <ele>-10</ele>
        <time>2021-04-05T15:14:41Z</time>
      </trkpt>
      <trkpt lat="47.83068" lon="-3.86039">
        <ele>-10.39999961853</ele>
        <time>2021-04-05T15:14:47Z</time>
      </trkpt>
      <trkpt lat="47.83029" lon="-3.86054">
        <ele>-10.39999961853</ele>
        <time>2021-04-05T15:14:53Z</time>
      </trkpt>
      <trkpt lat="47.82995" lon="-3.86067">
        <ele>-11.39999961853</ele>
        <time>2021-04-05T15:14:58Z</time>
      </trkpt>
      <trkpt lat="47.82979" lon="-3.86071">
        <ele>-13</ele>
        <time>2021-04-05T15:15:00Z</time>
      </trkpt>
      <trkpt lat="47.82944" lon="-3.86081">
        <ele>-14.199999809265</ele>
        <time>2021-04-05T15:15:04Z</time>
      </trkpt>
      <trkpt lat="47.82925" lon="-3.86086">
        <ele>-15.199999809265</ele>
        <time>2021-04-05T15:15:06Z</time>
      </trkpt>
      <trkpt lat="47.8288" lon="-3.861">
        <ele>-15</ele>
        <time>2021-04-05T15:15:11Z</time>
      </trkpt>
      <trkpt lat="47.8284" lon="-3.86117">
        <ele>-14.60000038147</ele>
        <time>2021-04-05T15:15:16Z</time>
      </trkpt>
      <trkpt lat="47.82833" lon="-3.86123">
        <ele>-14.199999809265</ele>
        <time>2021-04-05T15:15:17Z</time>
      </trkpt>
      <trkpt lat="47.82826" lon="-3.86131">
        <ele>-13.60000038147</ele>
        <time>2021-04-05T15:15:18Z</time>
      </trkpt>
      <trkpt lat="47.82815" lon="-3.86148">
        <ele>-12.800000190735</ele>
        <time>2021-04-05T15:15:20Z</time>
      </trkpt>
      <trkpt lat="47.82802" lon="-3.86174">
        <ele>-11.199999809265</ele>
        <time>2021-04-05T15:15:23Z</time>
      </trkpt>
      <trkpt lat="47.82795" lon="-3.86189">
        <ele>-10</ele>
        <time>2021-04-05T15:15:25Z</time>
      </trkpt>
      <trkpt lat="47.8279" lon="-3.86202">
        <ele>-8.8000001907349</ele>
        <time>2021-04-05T15:15:27Z</time>
      </trkpt>
      <trkpt lat="47.82782" lon="-3.86223">
        <ele>-7.5999999046326</ele>
        <time>2021-04-05T15:15:30Z</time>
      </trkpt>
      <trkpt lat="47.82774" lon="-3.86253">
        <ele>-6.5999999046326</ele>
        <time>2021-04-05T15:15:34Z</time>
      </trkpt>
      <trkpt lat="47.82772" lon="-3.86261">
        <ele>-6.4000000953674</ele>
        <time>2021-04-05T15:15:35Z</time>
      </trkpt>
      <trkpt lat="47.82764" lon="-3.86288">
        <ele>-5.1999998092651</ele>
        <time>2021-04-05T15:15:38Z</time>
      </trkpt>
      <trkpt lat="47.82755" lon="-3.86314">
        <ele>-6</ele>
        <time>2021-04-05T15:15:41Z</time>
      </trkpt>
      <trkpt lat="47.82742" lon="-3.86358">
        <ele>-6.4000000953674</ele>
        <time>2021-04-05T15:15:46Z</time>
      </trkpt>
      <trkpt lat="47.8273" lon="-3.86415">
        <ele>-6.4000000953674</ele>
        <time>2021-04-05T15:15:52Z</time>
      </trkpt>
      <trkpt lat="47.82722" lon="-3.86475">
        <ele>-5.8000001907349</ele>
        <time>2021-04-05T15:15:58Z</time>
      </trkpt>
      <trkpt lat="47.82721" lon="-3.86485">
        <ele>-5.4000000953674</ele>
        <time>2021-04-05T15:15:59Z</time>
      </trkpt>
      <trkpt lat="47.82717" lon="-3.86516">
        <ele>-6.5999999046326</ele>
        <time>2021-04-05T15:16:02Z</time>
      </trkpt>
      <trkpt lat="47.82714" lon="-3.86536">
        <ele>-5.4000000953674</ele>
        <time>2021-04-05T15:16:04Z</time>
      </trkpt>
      <trkpt lat="47.82711" lon="-3.86556">
        <ele>-4</ele>
        <time>2021-04-05T15:16:06Z</time>
      </trkpt>
      <trkpt lat="47.82703" lon="-3.86604">
        <ele>-2.5999999046326</ele>
        <time>2021-04-05T15:16:11Z</time>
      </trkpt>
      <trkpt lat="47.82699" lon="-3.86642">
        <ele>-1.6000000238419</ele>
        <time>2021-04-05T15:16:15Z</time>
      </trkpt>
      <trkpt lat="47.82689" lon="-3.86694">
        <ele>-0.60000002384186</ele>
        <time>2021-04-05T15:16:21Z</time>
      </trkpt>
      <trkpt lat="47.82688" lon="-3.86703">
        <ele>-0.20000000298023</ele>
        <time>2021-04-05T15:16:22Z</time>
      </trkpt>
      <trkpt lat="47.82677" lon="-3.86753">
        <ele>-0.20000000298023</ele>
        <time>2021-04-05T15:16:28Z</time>
      </trkpt>
      <trkpt lat="47.82676" lon="-3.86761">
        <ele>0.80000001192093</ele>
        <time>2021-04-05T15:16:29Z</time>
      </trkpt>
      <trkpt lat="47.82672" lon="-3.86778">
        <ele>-0.40000000596046</ele>
        <time>2021-04-05T15:16:31Z</time>
      </trkpt>
      <trkpt lat="47.82662" lon="-3.8683">
        <ele>-0.80000001192093</ele>
        <time>2021-04-05T15:16:37Z</time>
      </trkpt>
      <trkpt lat="47.82659" lon="-3.86847">
        <ele>-2</ele>
        <time>2021-04-05T15:16:39Z</time>
      </trkpt>
      <trkpt lat="47.82648" lon="-3.86894">
        <ele>-3</ele>
        <time>2021-04-05T15:16:44Z</time>
      </trkpt>
      <trkpt lat="47.82637" lon="-3.86925">
        <ele>-4.1999998092651</ele>
        <time>2021-04-05T15:16:47Z</time>
      </trkpt>
      <trkpt lat="47.8261" lon="-3.86974">
        <ele>-5.1999998092651</ele>
        <time>2021-04-05T15:16:52Z</time>
      </trkpt>
      <trkpt lat="47.82584" lon="-3.87012">
        <ele>-6.1999998092651</ele>
        <time>2021-04-05T15:16:56Z</time>
      </trkpt>
      <trkpt lat="47.82557" lon="-3.87046">
        <ele>-6.1999998092651</ele>
        <time>2021-04-05T15:17:00Z</time>
      </trkpt>
      <trkpt lat="47.82519" lon="-3.87097">
        <ele>-5.4000000953674</ele>
        <time>2021-04-05T15:17:06Z</time>
      </trkpt>
      <trkpt lat="47.82508" lon="-3.87115">
        <ele>-5.1999998092651</ele>
        <time>2021-04-05T15:17:08Z</time>
      </trkpt>
      <trkpt lat="47.82479" lon="-3.87159">
        <ele>-6.1999998092651</ele>
        <time>2021-04-05T15:17:13Z</time>
      </trkpt>
      <trkpt lat="47.82461" lon="-3.87188">
        <ele>-7.5999999046326</ele>
        <time>2021-04-05T15:17:16Z</time>
      </trkpt>
      <trkpt lat="47.82444" lon="-3.87217">
        <ele>-8.6000003814697</ele>
        <time>2021-04-05T15:17:19Z</time>
      </trkpt>
      <trkpt lat="47.82422" lon="-3.87259">
        <ele>-10.39999961853</ele>
        <time>2021-04-05T15:17:23Z</time>
      </trkpt>
      <trkpt lat="47.82412" lon="-3.87284">
        <ele>-12.199999809265</ele>
        <time>2021-04-05T15:17:25Z</time>
      </trkpt>
      <trkpt lat="47.82407" lon="-3.87297">
        <ele>-13.39999961853</ele>
        <time>2021-04-05T15:17:26Z</time>
      </trkpt>
      <trkpt lat="47.82398" lon="-3.87325">
        <ele>-14.800000190735</ele>
        <time>2021-04-05T15:17:28Z</time>
      </trkpt>
      <trkpt lat="47.82381" lon="-3.87381">
        <ele>-15.199999809265</ele>
        <time>2021-04-05T15:17:32Z</time>
      </trkpt>
      <trkpt lat="47.82361" lon="-3.87431">
        <ele>-14.39999961853</ele>
        <time>2021-04-05T15:17:36Z</time>
      </trkpt>
      <trkpt lat="47.82439" lon="-3.87417">
        <ele>13.203125</ele>
      </trkpt>
      <trkpt lat="47.8259" lon="-3.87495">
        <ele>15.93359375</ele>
      </trkpt>
      <trkpt lat="47.82671" lon="-3.8754">
        <ele>15.43359375</ele>
      </trkpt>
      <trkpt lat="47.82725" lon="-3.87591">
        <ele>14.87109375</ele>
      </trkpt>
      <trkpt lat="47.82784" lon="-3.8763">
        <ele>13.4375</ele>
      </trkpt>
      <trkpt lat="47.82801" lon="-3.87638">
        <ele>-9.1999998092651</ele>
        <time>2021-04-05T15:21:42Z</time>
      </trkpt>
      <trkpt lat="47.82822" lon="-3.87637">
        <ele>-11</ele>
        <time>2021-04-05T15:21:47Z</time>
      </trkpt>
      <trkpt lat="47.82827" lon="-3.8764">
        <ele>-11.39999961853</ele>
        <time>2021-04-05T15:21:48Z</time>
      </trkpt>
      <trkpt lat="47.8284" lon="-3.87647">
        <ele>-13</ele>
        <time>2021-04-05T15:21:50Z</time>
      </trkpt>
      <trkpt lat="47.82854" lon="-3.87656">
        <ele>-14</ele>
        <time>2021-04-05T15:21:52Z</time>
      </trkpt>
      <trkpt lat="47.82877" lon="-3.87674">
        <ele>-15.800000190735</ele>
        <time>2021-04-05T15:21:55Z</time>
      </trkpt>
      <trkpt lat="47.82923" lon="-3.87703">
        <ele>-15.800000190735</ele>
        <time>2021-04-05T15:22:01Z</time>
      </trkpt>
      <trkpt lat="47.82951" lon="-3.87711">
        <ele>-14.39999961853</ele>
        <time>2021-04-05T15:22:05Z</time>
      </trkpt>
      <trkpt lat="47.82977" lon="-3.87714">
        <ele>-13.199999809265</ele>
        <time>2021-04-05T15:22:09Z</time>
      </trkpt>
      <trkpt lat="47.83007" lon="-3.87709">
        <ele>-12.60000038147</ele>
        <time>2021-04-05T15:22:14Z</time>
      </trkpt>
      <trkpt lat="47.83032" lon="-3.87697">
        <ele>-12.199999809265</ele>
        <time>2021-04-05T15:22:18Z</time>
      </trkpt>
      <trkpt lat="47.83048" lon="-3.87688">
        <ele>-13</ele>
        <time>2021-04-05T15:22:21Z</time>
      </trkpt>
      <trkpt lat="47.83053" lon="-3.87682">
        <ele>-13.199999809265</ele>
        <time>2021-04-05T15:22:22Z</time>
      </trkpt>
      <trkpt lat="47.83056" lon="-3.87674">
        <ele>-13</ele>
        <time>2021-04-05T15:22:23Z</time>
      </trkpt>
      <trkpt lat="47.83059" lon="-3.87655">
        <ele>-12.39999961853</ele>
        <time>2021-04-05T15:22:25Z</time>
      </trkpt>
      <trkpt lat="47.83062" lon="-3.87594">
        <ele>-14</ele>
        <time>2021-04-05T15:22:31Z</time>
      </trkpt>
      <trkpt lat="47.83062" lon="-3.87584">
        <ele>-14.39999961853</ele>
        <time>2021-04-05T15:22:32Z</time>
      </trkpt>
      <trkpt lat="47.83068" lon="-3.87526">
        <ele>-14.39999961853</ele>
        <time>2021-04-05T15:22:38Z</time>
      </trkpt>
      <trkpt lat="47.8307" lon="-3.875">
        <ele>-14.60000038147</ele>
        <time>2021-04-05T15:22:41Z</time>
      </trkpt>
      <trkpt lat="47.83071" lon="-3.87492">
        <ele>-13.39999961853</ele>
        <time>2021-04-05T15:22:42Z</time>
      </trkpt>
      <trkpt lat="47.83071" lon="-3.87477">
        <ele>-12</ele>
        <time>2021-04-05T15:22:44Z</time>
      </trkpt>
      <trkpt lat="47.83074" lon="-3.87446">
        <ele>-10.800000190735</ele>
        <time>2021-04-05T15:22:48Z</time>
      </trkpt>
      <trkpt lat="47.83077" lon="-3.87411">
        <ele>-9.3999996185303</ele>
        <time>2021-04-05T15:22:52Z</time>
      </trkpt>
      <trkpt lat="47.83079" lon="-3.87384">
        <ele>-8.3999996185303</ele>
        <time>2021-04-05T15:22:55Z</time>
      </trkpt>
      <trkpt lat="47.8308" lon="-3.87376">
        <ele>-8</ele>
        <time>2021-04-05T15:22:56Z</time>
      </trkpt>
      <trkpt lat="47.83084" lon="-3.8735">
        <ele>-8.6000003814697</ele>
        <time>2021-04-05T15:22:59Z</time>
      </trkpt>
      <trkpt lat="47.83093" lon="-3.873">
        <ele>-8.6000003814697</ele>
        <time>2021-04-05T15:23:05Z</time>
      </trkpt>
      <trkpt lat="47.83102" lon="-3.87255">
        <ele>-7.5999999046326</ele>
        <time>2021-04-05T15:23:11Z</time>
      </trkpt>
      <trkpt lat="47.83115" lon="-3.87211">
        <ele>-7.4000000953674</ele>
        <time>2021-04-05T15:23:17Z</time>
      </trkpt>
      <trkpt lat="47.83121" lon="-3.8719">
        <ele>-7</ele>
        <time>2021-04-05T15:23:20Z</time>
      </trkpt>
      <trkpt lat="47.83138" lon="-3.87146">
        <ele>-6.5999999046326</ele>
        <time>2021-04-05T15:23:26Z</time>
      </trkpt>
      <trkpt lat="47.83152" lon="-3.87107">
        <ele>-6</ele>
        <time>2021-04-05T15:23:31Z</time>
      </trkpt>
      <trkpt lat="47.83161" lon="-3.87066">
        <ele>-5.1999998092651</ele>
        <time>2021-04-05T15:23:37Z</time>
      </trkpt>
      <trkpt lat="47.83161" lon="-3.8706">
        <ele>-4.8000001907349</ele>
        <time>2021-04-05T15:23:38Z</time>
      </trkpt>
      <trkpt lat="47.83164" lon="-3.87047">
        <ele>-4.5999999046326</ele>
        <time>2021-04-05T15:23:44Z</time>
      </trkpt>
      <trkpt lat="47.83165" lon="-3.87057">
        <ele>-4.4000000953674</ele>
        <time>2021-04-05T15:23:47Z</time>
      </trkpt>
      <trkpt lat="47.83163" lon="-3.87079">
        <ele>-4.8000001907349</ele>
        <time>2021-04-05T15:23:51Z</time>
      </trkpt>
      <trkpt lat="47.83152" lon="-3.87127">
        <ele>-5.1999998092651</ele>
        <time>2021-04-05T15:23:57Z</time>
      </trkpt>
      <trkpt lat="47.83138" lon="-3.8717">
        <ele>-6</ele>
        <time>2021-04-05T15:24:03Z</time>
      </trkpt>
      <trkpt lat="47.83121" lon="-3.87215">
        <ele>-7</ele>
        <time>2021-04-05T15:24:09Z</time>
      </trkpt>
      <trkpt lat="47.83105" lon="-3.87267">
        <ele>-6.5999999046326</ele>
        <time>2021-04-05T15:24:15Z</time>
      </trkpt>
      <trkpt lat="47.83094" lon="-3.87312">
        <ele>-6</ele>
        <time>2021-04-05T15:24:20Z</time>
      </trkpt>
      <trkpt lat="47.8309" lon="-3.8733">
        <ele>-5.8000001907349</ele>
        <time>2021-04-05T15:24:22Z</time>
      </trkpt>
      <trkpt lat="47.83088" lon="-3.87339">
        <ele>-4.8000001907349</ele>
        <time>2021-04-05T15:24:23Z</time>
      </trkpt>
      <trkpt lat="47.83083" lon="-3.87368">
        <ele>-6.5999999046326</ele>
        <time>2021-04-05T15:24:26Z</time>
      </trkpt>
      <trkpt lat="47.8308" lon="-3.87389">
        <ele>-7.8000001907349</ele>
        <time>2021-04-05T15:24:28Z</time>
      </trkpt>
      <trkpt lat="47.83078" lon="-3.8741">
        <ele>-9.1999998092651</ele>
        <time>2021-04-05T15:24:30Z</time>
      </trkpt>
      <trkpt lat="47.83075" lon="-3.87433">
        <ele>-10.800000190735</ele>
        <time>2021-04-05T15:24:32Z</time>
      </trkpt>
      <trkpt lat="47.83073" lon="-3.87458">
        <ele>-12</ele>
        <time>2021-04-05T15:24:34Z</time>
      </trkpt>
      <trkpt lat="47.8307" lon="-3.87499">
        <ele>-13.39999961853</ele>
        <time>2021-04-05T15:24:37Z</time>
      </trkpt>
      <trkpt lat="47.83069" lon="-3.87527">
        <ele>-14.60000038147</ele>
        <time>2021-04-05T15:24:39Z</time>
      </trkpt>
      <trkpt lat="47.83068" lon="-3.87554">
        <ele>-15.60000038147</ele>
        <time>2021-04-05T15:24:41Z</time>
      </trkpt>
      <trkpt lat="47.83061" lon="-3.87616">
        <ele>-14.39999961853</ele>
        <time>2021-04-05T15:24:46Z</time>
      </trkpt>
      <trkpt lat="47.83058" lon="-3.87668">
        <ele>-14.199999809265</ele>
        <time>2021-04-05T15:24:51Z</time>
      </trkpt>
      <trkpt lat="47.83056" lon="-3.87684">
        <ele>-13.60000038147</ele>
        <time>2021-04-05T15:24:53Z</time>
      </trkpt>
      <trkpt lat="47.83053" lon="-3.8769">
        <ele>-13.39999961853</ele>
        <time>2021-04-05T15:24:54Z</time>
      </trkpt>
      <trkpt lat="47.83049" lon="-3.87694">
        <ele>-13.60000038147</ele>
        <time>2021-04-05T15:24:55Z</time>
      </trkpt>
      <trkpt lat="47.83034" lon="-3.87699">
        <ele>-13.60000038147</ele>
        <time>2021-04-05T15:24:58Z</time>
      </trkpt>
      <trkpt lat="47.83006" lon="-3.87716">
        <ele>-13.800000190735</ele>
        <time>2021-04-05T15:25:04Z</time>
      </trkpt>
      <trkpt lat="47.82997" lon="-3.87718">
        <ele>-13</ele>
        <time>2021-04-05T15:25:06Z</time>
      </trkpt>
      <trkpt lat="47.82987" lon="-3.87721">
        <ele>-13</ele>
        <time>2021-04-05T15:25:08Z</time>
      </trkpt>
      <trkpt lat="47.8298" lon="-3.87732">
        <ele>-13.60000038147</ele>
        <time>2021-04-05T15:25:10Z</time>
      </trkpt>
      <trkpt lat="47.82977" lon="-3.8775">
        <ele>-13.800000190735</ele>
        <time>2021-04-05T15:25:12Z</time>
      </trkpt>
      <trkpt lat="47.82974" lon="-3.8778">
        <ele>-13.60000038147</ele>
        <time>2021-04-05T15:25:15Z</time>
      </trkpt>
      <trkpt lat="47.82975" lon="-3.878">
        <ele>-13.60000038147</ele>
        <time>2021-04-05T15:25:17Z</time>
      </trkpt>
      <trkpt lat="47.82979" lon="-3.87819">
        <ele>-13.199999809265</ele>
        <time>2021-04-05T15:25:19Z</time>
      </trkpt>
      <trkpt lat="47.82992" lon="-3.87845">
        <ele>-13.199999809265</ele>
        <time>2021-04-05T15:25:22Z</time>
      </trkpt>
      <trkpt lat="47.83" lon="-3.87862">
        <ele>-12.39999961853</ele>
        <time>2021-04-05T15:25:24Z</time>
      </trkpt>
      <trkpt lat="47.83008" lon="-3.87878">
        <ele>-12</ele>
        <time>2021-04-05T15:25:26Z</time>
      </trkpt>
      <trkpt lat="47.83015" lon="-3.87892">
        <ele>-11.199999809265</ele>
        <time>2021-04-05T15:25:28Z</time>
      </trkpt>
      <trkpt lat="47.83031" lon="-3.87924">
        <ele>-10.39999961853</ele>
        <time>2021-04-05T15:25:33Z</time>
      </trkpt>
      <trkpt lat="47.83051" lon="-3.87963">
        <ele>-10.199999809265</ele>
        <time>2021-04-05T15:25:39Z</time>
      </trkpt>
      <trkpt lat="47.83072" lon="-3.88005">
        <ele>-9.3999996185303</ele>
        <time>2021-04-05T15:25:45Z</time>
      </trkpt>
      <trkpt lat="47.83095" lon="-3.88049">
        <ele>-9.6000003814697</ele>
        <time>2021-04-05T15:25:51Z</time>
      </trkpt>
      <trkpt lat="47.83111" lon="-3.8808">
        <ele>-11.39999961853</ele>
        <time>2021-04-05T15:25:55Z</time>
      </trkpt>
      <trkpt lat="47.83134" lon="-3.88127">
        <ele>-11.39999961853</ele>
        <time>2021-04-05T15:26:01Z</time>
      </trkpt>
      <trkpt lat="47.83139" lon="-3.88146">
        <ele>-12</ele>
        <time>2021-04-05T15:26:03Z</time>
      </trkpt>
      <trkpt lat="47.83141" lon="-3.88157">
        <ele>-12.60000038147</ele>
        <time>2021-04-05T15:26:04Z</time>
      </trkpt>
      <trkpt lat="47.83143" lon="-3.88168">
        <ele>-12.60000038147</ele>
        <time>2021-04-05T15:26:05Z</time>
      </trkpt>
      <trkpt lat="47.83142" lon="-3.88191">
        <ele>-12.39999961853</ele>
        <time>2021-04-05T15:26:07Z</time>
      </trkpt>
      <trkpt lat="47.83129" lon="-3.88256">
        <ele>-11.60000038147</ele>
        <time>2021-04-05T15:26:13Z</time>
      </trkpt>
      <trkpt lat="47.83126" lon="-3.88266">
        <ele>-11</ele>
        <time>2021-04-05T15:26:14Z</time>
      </trkpt>
      <trkpt lat="47.83105" lon="-3.88325">
        <ele>-10.60000038147</ele>
        <time>2021-04-05T15:26:20Z</time>
      </trkpt>
      <trkpt lat="47.83095" lon="-3.88353">
        <ele>-10</ele>
        <time>2021-04-05T15:26:23Z</time>
      </trkpt>
      <trkpt lat="47.83076" lon="-3.88408">
        <ele>-10</ele>
        <time>2021-04-05T15:26:29Z</time>
      </trkpt>
      <trkpt lat="47.83056" lon="-3.88463">
        <ele>-9.8000001907349</ele>
        <time>2021-04-05T15:26:35Z</time>
      </trkpt>
      <trkpt lat="47.83036" lon="-3.88517">
        <ele>-10.199999809265</ele>
        <time>2021-04-05T15:26:41Z</time>
      </trkpt>
      <trkpt lat="47.83017" lon="-3.88572">
        <ele>-10.60000038147</ele>
        <time>2021-04-05T15:26:47Z</time>
      </trkpt>
      <trkpt lat="47.83014" lon="-3.88581">
        <ele>-11.39999961853</ele>
        <time>2021-04-05T15:26:48Z</time>
      </trkpt>
      <trkpt lat="47.82993" lon="-3.88639">
        <ele>-12.60000038147</ele>
        <time>2021-04-05T15:26:54Z</time>
      </trkpt>
      <trkpt lat="47.82975" lon="-3.8869">
        <ele>-13.800000190735</ele>
        <time>2021-04-05T15:26:59Z</time>
      </trkpt>
      <trkpt lat="47.82963" lon="-3.88723">
        <ele>-15</ele>
        <time>2021-04-05T15:27:02Z</time>
      </trkpt>
      <trkpt lat="47.82951" lon="-3.88757">
        <ele>-16</ele>
        <time>2021-04-05T15:27:05Z</time>
      </trkpt>
      <trkpt lat="47.82944" lon="-3.8878">
        <ele>-17.39999961853</ele>
        <time>2021-04-05T15:27:07Z</time>
      </trkpt>
      <trkpt lat="47.82948" lon="-3.88802">
        <ele>-18.200000762939</ele>
        <time>2021-04-05T15:27:09Z</time>
      </trkpt>
      <trkpt lat="47.82952" lon="-3.8881">
        <ele>-18.39999961853</ele>
        <time>2021-04-05T15:27:10Z</time>
      </trkpt>
      <trkpt lat="47.82974" lon="-3.88853">
        <ele>-17.39999961853</ele>
        <time>2021-04-05T15:27:15Z</time>
      </trkpt>
      <trkpt lat="47.82997" lon="-3.88903">
        <ele>-17</ele>
        <time>2021-04-05T15:27:21Z</time>
      </trkpt>
      <trkpt lat="47.8302" lon="-3.88953">
        <ele>-16.60000038147</ele>
        <time>2021-04-05T15:27:27Z</time>
      </trkpt>
      <trkpt lat="47.83031" lon="-3.88979">
        <ele>-16.200000762939</ele>
        <time>2021-04-05T15:27:30Z</time>
      </trkpt>
      <trkpt lat="47.83039" lon="-3.88996">
        <ele>-14.800000190735</ele>
        <time>2021-04-05T15:27:32Z</time>
      </trkpt>
      <trkpt lat="47.83042" lon="-3.89004">
        <ele>-16</ele>
        <time>2021-04-05T15:27:33Z</time>
      </trkpt>
      <trkpt lat="47.8305" lon="-3.89022">
        <ele>-17</ele>
        <time>2021-04-05T15:27:35Z</time>
      </trkpt>
      <trkpt lat="47.83062" lon="-3.89047">
        <ele>-18.200000762939</ele>
        <time>2021-04-05T15:27:38Z</time>
      </trkpt>
      <trkpt lat="47.83086" lon="-3.89082">
        <ele>-18.39999961853</ele>
        <time>2021-04-05T15:27:43Z</time>
      </trkpt>
      <trkpt lat="47.83099" lon="-3.89091">
        <ele>-19</ele>
        <time>2021-04-05T15:27:45Z</time>
      </trkpt>
      <trkpt lat="47.83106" lon="-3.89093">
        <ele>-20</ele>
        <time>2021-04-05T15:27:46Z</time>
      </trkpt>
      <trkpt lat="47.83114" lon="-3.89094">
        <ele>-20.200000762939</ele>
        <time>2021-04-05T15:27:47Z</time>
      </trkpt>
      <trkpt lat="47.8313" lon="-3.89093">
        <ele>-21.60000038147</ele>
        <time>2021-04-05T15:27:49Z</time>
      </trkpt>
      <trkpt lat="47.83161" lon="-3.89093">
        <ele>-22</ele>
        <time>2021-04-05T15:27:53Z</time>
      </trkpt>
      <trkpt lat="47.83175" lon="-3.89102">
        <ele>-21.200000762939</ele>
        <time>2021-04-05T15:27:55Z</time>
      </trkpt>
      <trkpt lat="47.83193" lon="-3.89121">
        <ele>-20.60000038147</ele>
        <time>2021-04-05T15:27:58Z</time>
      </trkpt>
      <trkpt lat="47.83227" lon="-3.89159">
        <ele>-19.39999961853</ele>
        <time>2021-04-05T15:28:04Z</time>
      </trkpt>
      <trkpt lat="47.83238" lon="-3.89171">
        <ele>-18.39999961853</ele>
        <time>2021-04-05T15:28:06Z</time>
      </trkpt>
      <trkpt lat="47.83248" lon="-3.89184">
        <ele>-17.39999961853</ele>
        <time>2021-04-05T15:28:08Z</time>
      </trkpt>
      <trkpt lat="47.83278" lon="-3.89221">
        <ele>-17.200000762939</ele>
        <time>2021-04-05T15:28:14Z</time>
      </trkpt>
      <trkpt lat="47.83313" lon="-3.89251">
        <ele>-18</ele>
        <time>2021-04-05T15:28:20Z</time>
      </trkpt>
      <trkpt lat="47.8332" lon="-3.89255">
        <ele>-18.60000038147</ele>
        <time>2021-04-05T15:28:21Z</time>
      </trkpt>
      <trkpt lat="47.83341" lon="-3.89266">
        <ele>-20.200000762939</ele>
        <time>2021-04-05T15:28:24Z</time>
      </trkpt>
      <trkpt lat="47.83362" lon="-3.89275">
        <ele>-20.200000762939</ele>
        <time>2021-04-05T15:28:27Z</time>
      </trkpt>
      <trkpt lat="47.83376" lon="-3.8927">
        <ele>-20.200000762939</ele>
        <time>2021-04-05T15:28:29Z</time>
      </trkpt>
      <trkpt lat="47.83387" lon="-3.89257">
        <ele>-20.39999961853</ele>
        <time>2021-04-05T15:28:31Z</time>
      </trkpt>
      <trkpt lat="47.83407" lon="-3.8923">
        <ele>-19.799999237061</ele>
        <time>2021-04-05T15:28:35Z</time>
      </trkpt>
      <trkpt lat="47.83419" lon="-3.89222">
        <ele>-20</ele>
        <time>2021-04-05T15:28:37Z</time>
      </trkpt>
      <trkpt lat="47.83443" lon="-3.89212">
        <ele>-19.200000762939</ele>
        <time>2021-04-05T15:28:41Z</time>
      </trkpt>
      <trkpt lat="47.83454" lon="-3.89202">
        <ele>-18</ele>
        <time>2021-04-05T15:28:43Z</time>
      </trkpt>
      <trkpt lat="47.83464" lon="-3.89189">
        <ele>-19.60000038147</ele>
        <time>2021-04-05T15:28:45Z</time>
      </trkpt>
      <trkpt lat="47.8348" lon="-3.89171">
        <ele>-18.39999961853</ele>
        <time>2021-04-05T15:28:48Z</time>
      </trkpt>
      <trkpt lat="47.83511" lon="-3.89134">
        <ele>-17.799999237061</ele>
        <time>2021-04-05T15:28:54Z</time>
      </trkpt>
      <trkpt lat="47.83516" lon="-3.89128">
        <ele>-17.200000762939</ele>
        <time>2021-04-05T15:28:55Z</time>
      </trkpt>
      <trkpt lat="47.83527" lon="-3.89116">
        <ele>-18.799999237061</ele>
        <time>2021-04-05T15:28:57Z</time>
      </trkpt>
      <trkpt lat="47.83553" lon="-3.89086">
        <ele>-17.39999961853</ele>
        <time>2021-04-05T15:29:02Z</time>
      </trkpt>
      <trkpt lat="47.83559" lon="-3.89079">
        <ele>9.66796875</ele>
      </trkpt>
      <trkpt lat="47.83549" lon="-3.89048">
        <ele>9.921875</ele>
      </trkpt>
      <trkpt lat="47.83566" lon="-3.88929">
        <ele>10.65625</ele>
      </trkpt>
      <trkpt lat="47.83581" lon="-3.8884">
        <ele>10</ele>
      </trkpt>
      <trkpt lat="47.83598" lon="-3.8877">
        <ele>10.2265625</ele>
      </trkpt>
      <trkpt lat="47.83613" lon="-3.88759">
        <ele>10.49609375</ele>
      </trkpt>
      <trkpt lat="47.83619" lon="-3.88742">
        <ele>10.609375</ele>
      </trkpt>
      <trkpt lat="47.83609" lon="-3.88665">
        <ele>11.19140625</ele>
      </trkpt>
      <trkpt lat="47.83604" lon="-3.88654">
        <ele>11.30859375</ele>
      </trkpt>
      <trkpt lat="47.83643" lon="-3.88555">
        <ele>12.05078125</ele>
      </trkpt>
      <trkpt lat="47.83656" lon="-3.88548">
        <ele>12.5</ele>
      </trkpt>
      <trkpt lat="47.83671" lon="-3.88499">
        <ele>13.85546875</ele>
      </trkpt>
      <trkpt lat="47.83673" lon="-3.88498">
        <ele>13.91796875</ele>
      </trkpt>
      <trkpt lat="47.8371" lon="-3.88529">
        <ele>14.41015625</ele>
      </trkpt>
      <trkpt lat="47.83775" lon="-3.88572">
        <ele>15</ele>
      </trkpt>
      <trkpt lat="47.83812" lon="-3.88593">
        <ele>15</ele>
      </trkpt>
      <trkpt lat="47.83812" lon="-3.88593">
        <ele>15</ele>
      </trkpt>
      <trkpt lat="47.83868" lon="-3.88603">
        <ele>15</ele>
      </trkpt>
      <trkpt lat="47.8387" lon="-3.88606">
        <ele>15</ele>
      </trkpt>
      <trkpt lat="47.83885" lon="-3.88617">
        <ele>15</ele>
      </trkpt>
      <trkpt lat="47.83771" lon="-3.88767">
        <ele>12.328125</ele>
      </trkpt>
      <trkpt lat="47.83649" lon="-3.88973">
        <ele>11.03515625</ele>
      </trkpt>
      <trkpt lat="47.83646" lon="-3.88984">
        <ele>-14.800000190735</ele>
        <time>2021-04-05T15:29:21Z</time>
      </trkpt>
      <trkpt lat="47.83633" lon="-3.88995">
        <ele>-14.800000190735</ele>
        <time>2021-04-05T15:29:18Z</time>
      </trkpt>
      <trkpt lat="47.83629" lon="-3.89">
        <ele>-12.800000190735</ele>
        <time>2021-04-05T15:29:17Z</time>
      </trkpt>
      <trkpt lat="47.83625" lon="-3.89005">
        <ele>-14.60000038147</ele>
        <time>2021-04-05T15:29:16Z</time>
      </trkpt>
      <trkpt lat="47.83601" lon="-3.89032">
        <ele>-16.799999237061</ele>
        <time>2021-04-05T15:29:11Z</time>
      </trkpt>
      <trkpt lat="47.83569" lon="-3.89068">
        <ele>-16</ele>
        <time>2021-04-05T15:29:05Z</time>
      </trkpt>
      <trkpt lat="47.83553" lon="-3.89086">
        <ele>-17.39999961853</ele>
        <time>2021-04-05T15:29:02Z</time>
      </trkpt>
      <trkpt lat="47.83646" lon="-3.88984">
        <ele>-14.800000190735</ele>
        <time>2021-04-05T15:29:21Z</time>
      </trkpt>
      <trkpt lat="47.83655" lon="-3.88994">
        <ele>-13.60000038147</ele>
        <time>2021-04-05T15:29:24Z</time>
      </trkpt>
      <trkpt lat="47.8366" lon="-3.89018">
        <ele>-14</ele>
        <time>2021-04-05T15:29:27Z</time>
      </trkpt>
      <trkpt lat="47.83682" lon="-3.89062">
        <ele>-14.60000038147</ele>
        <time>2021-04-05T15:29:33Z</time>
      </trkpt>
      <trkpt lat="47.83686" lon="-3.89071">
        <ele>-15</ele>
        <time>2021-04-05T15:29:34Z</time>
      </trkpt>
      <trkpt lat="47.83694" lon="-3.89086">
        <ele>-13.800000190735</ele>
        <time>2021-04-05T15:29:36Z</time>
      </trkpt>
      <trkpt lat="47.83697" lon="-3.89095">
        <ele>11</ele>
      </trkpt>
      <trkpt lat="47.83697" lon="-3.89095">
        <ele>11</ele>
      </trkpt>
      <trkpt lat="47.83709" lon="-3.89118">
        <ele>-15.199999809265</ele>
        <time>2021-04-05T15:29:40Z</time>
      </trkpt>
      <trkpt lat="47.83732" lon="-3.89166">
        <ele>-15.39999961853</ele>
        <time>2021-04-05T15:29:46Z</time>
      </trkpt>
      <trkpt lat="47.83757" lon="-3.89215">
        <ele>-16.39999961853</ele>
        <time>2021-04-05T15:29:52Z</time>
      </trkpt>
      <trkpt lat="47.8377" lon="-3.89241">
        <ele>-17.60000038147</ele>
        <time>2021-04-05T15:29:55Z</time>
      </trkpt>
      <trkpt lat="47.83779" lon="-3.89257">
        <ele>-18.799999237061</ele>
        <time>2021-04-05T15:29:57Z</time>
      </trkpt>
      <trkpt lat="47.83795" lon="-3.8928">
        <ele>-20.39999961853</ele>
        <time>2021-04-05T15:30:00Z</time>
      </trkpt>
      <trkpt lat="47.83801" lon="-3.89287">
        <ele>-21.39999961853</ele>
        <time>2021-04-05T15:30:01Z</time>
      </trkpt>
      <trkpt lat="47.83835" lon="-3.8933">
        <ele>-19.799999237061</ele>
        <time>2021-04-05T15:30:07Z</time>
      </trkpt>
      <trkpt lat="47.83847" lon="-3.89341">
        <ele>-18.39999961853</ele>
        <time>2021-04-05T15:30:09Z</time>
      </trkpt>
      <trkpt lat="47.83884" lon="-3.89369">
        <ele>-18.200000762939</ele>
        <time>2021-04-05T15:30:15Z</time>
      </trkpt>
      <trkpt lat="47.83922" lon="-3.89392">
        <ele>-17.39999961853</ele>
        <time>2021-04-05T15:30:21Z</time>
      </trkpt>
      <trkpt lat="47.83942" lon="-3.89403">
        <ele>-15.39999961853</ele>
        <time>2021-04-05T15:30:24Z</time>
      </trkpt>
      <trkpt lat="47.83954" lon="-3.89409">
        <ele>-16.60000038147</ele>
        <time>2021-04-05T15:30:26Z</time>
      </trkpt>
      <trkpt lat="47.83989" lon="-3.8943">
        <ele>-17.60000038147</ele>
        <time>2021-04-05T15:30:32Z</time>
      </trkpt>
      <trkpt lat="47.84006" lon="-3.89441">
        <ele>-19</ele>
        <time>2021-04-05T15:30:35Z</time>
      </trkpt>
      <trkpt lat="47.84042" lon="-3.89462">
        <ele>-19</ele>
        <time>2021-04-05T15:30:41Z</time>
      </trkpt>
      <trkpt lat="47.84072" lon="-3.8948">
        <ele>-19</ele>
        <time>2021-04-05T15:30:46Z</time>
      </trkpt>
      <trkpt lat="47.84085" lon="-3.89475">
        <ele>-19.39999961853</ele>
        <time>2021-04-05T15:30:48Z</time>
      </trkpt>
      <trkpt lat="47.8409" lon="-3.89468">
        <ele>-20.60000038147</ele>
        <time>2021-04-05T15:30:49Z</time>
      </trkpt>
      <trkpt lat="47.84094" lon="-3.89459">
        <ele>-20</ele>
        <time>2021-04-05T15:30:50Z</time>
      </trkpt>
      <trkpt lat="47.84097" lon="-3.8945">
        <ele>-19.39999961853</ele>
        <time>2021-04-05T15:30:51Z</time>
      </trkpt>
      <trkpt lat="47.84104" lon="-3.89432">
        <ele>-18.200000762939</ele>
        <time>2021-04-05T15:30:53Z</time>
      </trkpt>
      <trkpt lat="47.84116" lon="-3.89405">
        <ele>-19.60000038147</ele>
        <time>2021-04-05T15:30:56Z</time>
      </trkpt>
      <trkpt lat="47.84138" lon="-3.89364">
        <ele>-21.60000038147</ele>
        <time>2021-04-05T15:31:01Z</time>
      </trkpt>
      <trkpt lat="47.84142" lon="-3.89356">
        <ele>-22.60000038147</ele>
        <time>2021-04-05T15:31:02Z</time>
      </trkpt>
      <trkpt lat="47.84155" lon="-3.89333">
        <ele>-21</ele>
        <time>2021-04-05T15:31:05Z</time>
      </trkpt>
      <trkpt lat="47.8416" lon="-3.89325">
        <ele>-20</ele>
        <time>2021-04-05T15:31:06Z</time>
      </trkpt>
      <trkpt lat="47.84182" lon="-3.89284">
        <ele>-18.60000038147</ele>
        <time>2021-04-05T15:31:11Z</time>
      </trkpt>
      <trkpt lat="47.84209" lon="-3.89234">
        <ele>-19</ele>
        <time>2021-04-05T15:31:17Z</time>
      </trkpt>
      <trkpt lat="47.84236" lon="-3.89187">
        <ele>-19.39999961853</ele>
        <time>2021-04-05T15:31:23Z</time>
      </trkpt>
      <trkpt lat="47.84241" lon="-3.89179">
        <ele>-19.799999237061</ele>
        <time>2021-04-05T15:31:24Z</time>
      </trkpt>
      <trkpt lat="47.84255" lon="-3.89156">
        <ele>-18.60000038147</ele>
        <time>2021-04-05T15:31:27Z</time>
      </trkpt>
      <trkpt lat="47.84285" lon="-3.89111">
        <ele>-19.799999237061</ele>
        <time>2021-04-05T15:31:33Z</time>
      </trkpt>
      <trkpt lat="47.84312" lon="-3.89061">
        <ele>-20.39999961853</ele>
        <time>2021-04-05T15:31:39Z</time>
      </trkpt>
      <trkpt lat="47.8434" lon="-3.89013">
        <ele>-19.799999237061</ele>
        <time>2021-04-05T15:31:45Z</time>
      </trkpt>
      <trkpt lat="47.84368" lon="-3.8897">
        <ele>-19.799999237061</ele>
        <time>2021-04-05T15:31:51Z</time>
      </trkpt>
      <trkpt lat="47.84387" lon="-3.88939">
        <ele>-21</ele>
        <time>2021-04-05T15:31:55Z</time>
      </trkpt>
      <trkpt lat="47.84412" lon="-3.88887">
        <ele>-20.799999237061</ele>
        <time>2021-04-05T15:32:01Z</time>
      </trkpt>
      <trkpt lat="47.8442" lon="-3.8887">
        <ele>-19.60000038147</ele>
        <time>2021-04-05T15:32:03Z</time>
      </trkpt>
      <trkpt lat="47.84435" lon="-3.88826">
        <ele>-18</ele>
        <time>2021-04-05T15:32:08Z</time>
      </trkpt>
      <trkpt lat="47.84441" lon="-3.88807">
        <ele>-16.799999237061</ele>
        <time>2021-04-05T15:32:10Z</time>
      </trkpt>
      <trkpt lat="47.84455" lon="-3.88759">
        <ele>-15.60000038147</ele>
        <time>2021-04-05T15:32:15Z</time>
      </trkpt>
      <trkpt lat="47.84467" lon="-3.887">
        <ele>-14.39999961853</ele>
        <time>2021-04-05T15:32:21Z</time>
      </trkpt>
      <trkpt lat="47.84475" lon="-3.88642">
        <ele>-13.60000038147</ele>
        <time>2021-04-05T15:32:27Z</time>
      </trkpt>
      <trkpt lat="47.84477" lon="-3.88632">
        <ele>-12.800000190735</ele>
        <time>2021-04-05T15:32:28Z</time>
      </trkpt>
      <trkpt lat="47.84486" lon="-3.88574">
        <ele>-12.60000038147</ele>
        <time>2021-04-05T15:32:34Z</time>
      </trkpt>
      <trkpt lat="47.8449" lon="-3.88545">
        <ele>-11.800000190735</ele>
        <time>2021-04-05T15:32:37Z</time>
      </trkpt>
      <trkpt lat="47.84499" lon="-3.88489">
        <ele>-11.39999961853</ele>
        <time>2021-04-05T15:32:43Z</time>
      </trkpt>
      <trkpt lat="47.8451" lon="-3.88437">
        <ele>-11.39999961853</ele>
        <time>2021-04-05T15:32:49Z</time>
      </trkpt>
      <trkpt lat="47.84521" lon="-3.88383">
        <ele>-11.39999961853</ele>
        <time>2021-04-05T15:32:55Z</time>
      </trkpt>
      <trkpt lat="47.84523" lon="-3.88374">
        <ele>-10.60000038147</ele>
        <time>2021-04-05T15:32:56Z</time>
      </trkpt>
      <trkpt lat="47.84536" lon="-3.88318">
        <ele>-9.8000001907349</ele>
        <time>2021-04-05T15:33:02Z</time>
      </trkpt>
      <trkpt lat="47.8454" lon="-3.88298">
        <ele>-9.1999998092651</ele>
        <time>2021-04-05T15:33:04Z</time>
      </trkpt>
      <trkpt lat="47.84552" lon="-3.88244">
        <ele>-8.6000003814697</ele>
        <time>2021-04-05T15:33:10Z</time>
      </trkpt>
      <trkpt lat="47.84564" lon="-3.88189">
        <ele>-9.8000001907349</ele>
        <time>2021-04-05T15:33:16Z</time>
      </trkpt>
      <trkpt lat="47.84577" lon="-3.88133">
        <ele>-8.3999996185303</ele>
        <time>2021-04-05T15:33:22Z</time>
      </trkpt>
      <trkpt lat="47.84579" lon="-3.88123">
        <ele>-7.8000001907349</ele>
        <time>2021-04-05T15:33:23Z</time>
      </trkpt>
      <trkpt lat="47.84592" lon="-3.88066">
        <ele>-6.5999999046326</ele>
        <time>2021-04-05T15:33:29Z</time>
      </trkpt>
      <trkpt lat="47.84604" lon="-3.88009">
        <ele>-6.4000000953674</ele>
        <time>2021-04-05T15:33:35Z</time>
      </trkpt>
      <trkpt lat="47.84616" lon="-3.87954">
        <ele>-7.4000000953674</ele>
        <time>2021-04-05T15:33:41Z</time>
      </trkpt>
      <trkpt lat="47.84618" lon="-3.87944">
        <ele>-8</ele>
        <time>2021-04-05T15:33:42Z</time>
      </trkpt>
      <trkpt lat="47.84631" lon="-3.8789">
        <ele>-7.1999998092651</ele>
        <time>2021-04-05T15:33:48Z</time>
      </trkpt>
      <trkpt lat="47.84636" lon="-3.87871">
        <ele>-6.8000001907349</ele>
        <time>2021-04-05T15:33:50Z</time>
      </trkpt>
      <trkpt lat="47.84648" lon="-3.87834">
        <ele>-8</ele>
        <time>2021-04-05T15:33:54Z</time>
      </trkpt>
      <trkpt lat="47.84662" lon="-3.87797">
        <ele>-6.8000001907349</ele>
        <time>2021-04-05T15:33:58Z</time>
      </trkpt>
      <trkpt lat="47.84685" lon="-3.87741">
        <ele>-8.3999996185303</ele>
        <time>2021-04-05T15:34:04Z</time>
      </trkpt>
      <trkpt lat="47.84693" lon="-3.87723">
        <ele>-7.4000000953674</ele>
        <time>2021-04-05T15:34:06Z</time>
      </trkpt>
      <trkpt lat="47.84715" lon="-3.87668">
        <ele>-7.8000001907349</ele>
        <time>2021-04-05T15:34:12Z</time>
      </trkpt>
      <trkpt lat="47.84738" lon="-3.87614">
        <ele>-6.5999999046326</ele>
        <time>2021-04-05T15:34:18Z</time>
      </trkpt>
      <trkpt lat="47.84753" lon="-3.87579">
        <ele>-8.3999996185303</ele>
        <time>2021-04-05T15:34:22Z</time>
      </trkpt>
      <trkpt lat="47.84764" lon="-3.87553">
        <ele>-9.6000003814697</ele>
        <time>2021-04-05T15:34:25Z</time>
      </trkpt>
      <trkpt lat="47.84777" lon="-3.87526">
        <ele>-11.60000038147</ele>
        <time>2021-04-05T15:34:28Z</time>
      </trkpt>
      <trkpt lat="47.84808" lon="-3.87471">
        <ele>-12.60000038147</ele>
        <time>2021-04-05T15:34:34Z</time>
      </trkpt>
      <trkpt lat="47.84814" lon="-3.87462">
        <ele>-13.800000190735</ele>
        <time>2021-04-05T15:34:35Z</time>
      </trkpt>
      <trkpt lat="47.84827" lon="-3.87445">
        <ele>-15</ele>
        <time>2021-04-05T15:34:37Z</time>
      </trkpt>
      <trkpt lat="47.84834" lon="-3.87437">
        <ele>-16</ele>
        <time>2021-04-05T15:34:38Z</time>
      </trkpt>
      <trkpt lat="47.84859" lon="-3.87408">
        <ele>-15</ele>
        <time>2021-04-05T15:34:42Z</time>
      </trkpt>
      <trkpt lat="47.84872" lon="-3.87395">
        <ele>-13.39999961853</ele>
        <time>2021-04-05T15:34:44Z</time>
      </trkpt>
      <trkpt lat="47.84907" lon="-3.87357">
        <ele>-12.39999961853</ele>
        <time>2021-04-05T15:34:50Z</time>
      </trkpt>
      <trkpt lat="47.84917" lon="-3.87344">
        <ele>-11</ele>
        <time>2021-04-05T15:34:52Z</time>
      </trkpt>
      <trkpt lat="47.84934" lon="-3.87318">
        <ele>-9.6000003814697</ele>
        <time>2021-04-05T15:34:56Z</time>
      </trkpt>
      <trkpt lat="47.84958" lon="-3.87284">
        <ele>-8.1999998092651</ele>
        <time>2021-04-05T15:35:02Z</time>
      </trkpt>
      <trkpt lat="47.84966" lon="-3.87271">
        <ele>-7</ele>
        <time>2021-04-05T15:35:05Z</time>
      </trkpt>
      <trkpt lat="47.84982" lon="-3.87265">
        <ele>-6.4000000953674</ele>
        <time>2021-04-05T15:35:11Z</time>
      </trkpt>
      <trkpt lat="47.84994" lon="-3.87268">
        <ele>-6.8000001907349</ele>
        <time>2021-04-05T15:35:16Z</time>
      </trkpt>
      <trkpt lat="47.84996" lon="-3.87273">
        <ele>-6</ele>
        <time>2021-04-05T15:35:19Z</time>
      </trkpt>
      <trkpt lat="47.84996" lon="-3.87273">
        <ele>-6</ele>
        <time>2021-04-05T15:35:20Z</time>
      </trkpt>
      <trkpt lat="47.84993" lon="-3.87277">
        <ele>-6.4000000953674</ele>
        <time>2021-04-05T15:36:03Z</time>
      </trkpt>
      <trkpt lat="47.84975" lon="-3.87267">
        <ele>-6.4000000953674</ele>
        <time>2021-04-05T15:36:09Z</time>
      </trkpt>
      <trkpt lat="47.84952" lon="-3.87252">
        <ele>-5.5999999046326</ele>
        <time>2021-04-05T15:36:14Z</time>
      </trkpt>
      <trkpt lat="47.84928" lon="-3.87234">
        <ele>-6</ele>
        <time>2021-04-05T15:36:19Z</time>
      </trkpt>
      <trkpt lat="47.84908" lon="-3.87221">
        <ele>-4.1999998092651</ele>
        <time>2021-04-05T15:36:23Z</time>
      </trkpt>
      <trkpt lat="47.84876" lon="-3.87203">
        <ele>-4.8000001907349</ele>
        <time>2021-04-05T15:36:29Z</time>
      </trkpt>
      <trkpt lat="47.84842" lon="-3.87187">
        <ele>-4</ele>
        <time>2021-04-05T15:36:35Z</time>
      </trkpt>
      <trkpt lat="47.84808" lon="-3.87167">
        <ele>-3.5999999046326</ele>
        <time>2021-04-05T15:36:41Z</time>
      </trkpt>
      <trkpt lat="47.84792" lon="-3.87157">
        <ele>-3</ele>
        <time>2021-04-05T15:36:44Z</time>
      </trkpt>
      <trkpt lat="47.84773" lon="-3.87141">
        <ele>-2</ele>
        <time>2021-04-05T15:36:48Z</time>
      </trkpt>
      <trkpt lat="47.8476" lon="-3.87128">
        <ele>-0.60000002384186</ele>
        <time>2021-04-05T15:36:51Z</time>
      </trkpt>
      <trkpt lat="47.84736" lon="-3.87097">
        <ele>0.60000002384186</ele>
        <time>2021-04-05T15:36:57Z</time>
      </trkpt>
      <trkpt lat="47.84726" lon="-3.87079">
        <ele>1.7999999523163</ele>
        <time>2021-04-05T15:37:00Z</time>
      </trkpt>
      <trkpt lat="47.84708" lon="-3.87037">
        <ele>2.2000000476837</ele>
        <time>2021-04-05T15:37:06Z</time>
      </trkpt>
      <trkpt lat="47.84695" lon="-3.86992">
        <ele>2.4000000953674</ele>
        <time>2021-04-05T15:37:12Z</time>
      </trkpt>
      <trkpt lat="47.84681" lon="-3.86947">
        <ele>3.2000000476837</ele>
        <time>2021-04-05T15:37:18Z</time>
      </trkpt>
      <trkpt lat="47.84679" lon="-3.86939">
        <ele>3.4000000953674</ele>
        <time>2021-04-05T15:37:19Z</time>
      </trkpt>
      <trkpt lat="47.84665" lon="-3.86897">
        <ele>4.1999998092651</ele>
        <time>2021-04-05T15:37:25Z</time>
      </trkpt>
      <trkpt lat="47.84663" lon="-3.8689">
        <ele>4.4000000953674</ele>
        <time>2021-04-05T15:37:26Z</time>
      </trkpt>
      <trkpt lat="47.84655" lon="-3.86871">
        <ele>4</ele>
        <time>2021-04-05T15:37:29Z</time>
      </trkpt>
      <trkpt lat="47.84656" lon="-3.86859">
        <ele>2.7999999523163</ele>
        <time>2021-04-05T15:37:31Z</time>
      </trkpt>
      <trkpt lat="47.84659" lon="-3.86856">
        <ele>2.2000000476837</ele>
        <time>2021-04-05T15:37:32Z</time>
      </trkpt>
      <trkpt lat="47.84685" lon="-3.86848">
        <ele>1.6000000238419</ele>
        <time>2021-04-05T15:37:38Z</time>
      </trkpt>
      <trkpt lat="47.84699" lon="-3.86849">
        <ele>1.7999999523163</ele>
        <time>2021-04-05T15:37:41Z</time>
      </trkpt>
      <trkpt lat="47.84713" lon="-3.86841">
        <ele>0.60000002384186</ele>
        <time>2021-04-05T15:37:46Z</time>
      </trkpt>
      <trkpt lat="47.8472" lon="-3.86834">
        <ele>-1.2000000476837</ele>
        <time>2021-04-05T15:37:48Z</time>
      </trkpt>
      <trkpt lat="47.84725" lon="-3.8683">
        <ele>-2.4000000953674</ele>
        <time>2021-04-05T15:37:49Z</time>
      </trkpt>
      <trkpt lat="47.84729" lon="-3.86826">
        <ele>-3.2000000476837</ele>
        <time>2021-04-05T15:37:50Z</time>
      </trkpt>
      <trkpt lat="47.84734" lon="-3.86824">
        <ele>-3.5999999046326</ele>
        <time>2021-04-05T15:37:51Z</time>
      </trkpt>
      <trkpt lat="47.84738" lon="-3.86823">
        <ele>-4</ele>
        <time>2021-04-05T15:37:52Z</time>
      </trkpt>
      <trkpt lat="47.84747" lon="-3.86829">
        <ele>-3.5999999046326</ele>
        <time>2021-04-05T15:37:54Z</time>
      </trkpt>
      <trkpt lat="47.84758" lon="-3.86844">
        <ele>-4</ele>
        <time>2021-04-05T15:37:57Z</time>
      </trkpt>
      <trkpt lat="47.84763" lon="-3.86848">
        <ele>-4</ele>
        <time>2021-04-05T15:37:58Z</time>
      </trkpt>
      <trkpt lat="47.84774" lon="-3.86849">
        <ele>-5.4000000953674</ele>
        <time>2021-04-05T15:38:00Z</time>
      </trkpt>
      <trkpt lat="47.8478" lon="-3.86846">
        <ele>-6.4000000953674</ele>
        <time>2021-04-05T15:38:01Z</time>
      </trkpt>
      <trkpt lat="47.84792" lon="-3.86837">
        <ele>-7.5999999046326</ele>
        <time>2021-04-05T15:38:03Z</time>
      </trkpt>
      <trkpt lat="47.84808" lon="-3.8682">
        <ele>-9.1999998092651</ele>
        <time>2021-04-05T15:38:06Z</time>
      </trkpt>
      <trkpt lat="47.84813" lon="-3.86817">
        <ele>-9.6000003814697</ele>
        <time>2021-04-05T15:38:07Z</time>
      </trkpt>
      <trkpt lat="47.84824" lon="-3.86817">
        <ele>-10.60000038147</ele>
        <time>2021-04-05T15:38:09Z</time>
      </trkpt>
      <trkpt lat="47.84834" lon="-3.86827">
        <ele>-9.8000001907349</ele>
        <time>2021-04-05T15:38:11Z</time>
      </trkpt>
      <trkpt lat="47.84855" lon="-3.86847">
        <ele>-11</ele>
        <time>2021-04-05T15:38:15Z</time>
      </trkpt>
      <trkpt lat="47.84877" lon="-3.86864">
        <ele>-10.800000190735</ele>
        <time>2021-04-05T15:38:19Z</time>
      </trkpt>
      <trkpt lat="47.84885" lon="-3.86878">
        <ele>-11</ele>
        <time>2021-04-05T15:38:21Z</time>
      </trkpt>
      <trkpt lat="47.84889" lon="-3.86895">
        <ele>-10.39999961853</ele>
        <time>2021-04-05T15:38:23Z</time>
      </trkpt>
      <trkpt lat="47.84891" lon="-3.86912">
        <ele>-10</ele>
        <time>2021-04-05T15:38:25Z</time>
      </trkpt>
      <trkpt lat="47.84895" lon="-3.86937">
        <ele>-9.3999996185303</ele>
        <time>2021-04-05T15:38:28Z</time>
      </trkpt>
      <trkpt lat="47.84901" lon="-3.86987">
        <ele>-9.3999996185303</ele>
        <time>2021-04-05T15:38:34Z</time>
      </trkpt>
      <trkpt lat="47.84904" lon="-3.87019">
        <ele>-9.6000003814697</ele>
        <time>2021-04-05T15:38:38Z</time>
      </trkpt>
      <trkpt lat="47.84908" lon="-3.87075">
        <ele>-9.6000003814697</ele>
        <time>2021-04-05T15:38:44Z</time>
      </trkpt>
      <trkpt lat="47.84911" lon="-3.87129">
        <ele>-9</ele>
        <time>2021-04-05T15:38:50Z</time>
      </trkpt>
      <trkpt lat="47.84912" lon="-3.87144">
        <ele>-7.8000001907349</ele>
        <time>2021-04-05T15:38:52Z</time>
      </trkpt>
      <trkpt lat="47.84912" lon="-3.87158">
        <ele>-6.8000001907349</ele>
        <time>2021-04-05T15:38:54Z</time>
      </trkpt>
      <trkpt lat="47.8491" lon="-3.872">
        <ele>-5.5999999046326</ele>
        <time>2021-04-05T15:39:00Z</time>
      </trkpt>
      <trkpt lat="47.84912" lon="-3.87215">
        <ele>-5</ele>
        <time>2021-04-05T15:39:03Z</time>
      </trkpt>
      <trkpt lat="47.84934" lon="-3.87232">
        <ele>-6</ele>
        <time>2021-04-05T15:39:09Z</time>
      </trkpt>
      <trkpt lat="47.84948" lon="-3.87244">
        <ele>-7.1999998092651</ele>
        <time>2021-04-05T15:39:12Z</time>
      </trkpt>
      <trkpt lat="47.84959" lon="-3.87251">
        <ele>-8.6000003814697</ele>
        <time>2021-04-05T15:39:14Z</time>
      </trkpt>
      <trkpt lat="47.84992" lon="-3.87275">
        <ele>-8.8000001907349</ele>
        <time>2021-04-05T15:39:20Z</time>
      </trkpt>
      <trkpt lat="47.85019" lon="-3.87296">
        <ele>-7.5999999046326</ele>
        <time>2021-04-05T15:39:25Z</time>
      </trkpt>
      <trkpt lat="47.85051" lon="-3.87327">
        <ele>-8.1999998092651</ele>
        <time>2021-04-05T15:39:31Z</time>
      </trkpt>
      <trkpt lat="47.85066" lon="-3.87344">
        <ele>-6.8000001907349</ele>
        <time>2021-04-05T15:39:34Z</time>
      </trkpt>
      <trkpt lat="47.85085" lon="-3.87369">
        <ele>-6.4000000953674</ele>
        <time>2021-04-05T15:39:38Z</time>
      </trkpt>
      <trkpt lat="47.85098" lon="-3.87388">
        <ele>-4.5999999046326</ele>
        <time>2021-04-05T15:39:41Z</time>
      </trkpt>
      <trkpt lat="47.85108" lon="-3.874">
        <ele>-5.5999999046326</ele>
        <time>2021-04-05T15:39:43Z</time>
      </trkpt>
      <trkpt lat="47.85134" lon="-3.87426">
        <ele>-4.5999999046326</ele>
        <time>2021-04-05T15:39:48Z</time>
      </trkpt>
      <trkpt lat="47.85168" lon="-3.87456">
        <ele>-5</ele>
        <time>2021-04-05T15:39:54Z</time>
      </trkpt>
      <trkpt lat="47.85178" lon="-3.87465">
        <ele>-6</ele>
        <time>2021-04-05T15:39:56Z</time>
      </trkpt>
      <trkpt lat="47.85212" lon="-3.87488">
        <ele>-5.1999998092651</ele>
        <time>2021-04-05T15:40:02Z</time>
      </trkpt>
      <trkpt lat="47.85244" lon="-3.87502">
        <ele>-7.1999998092651</ele>
        <time>2021-04-05T15:40:07Z</time>
      </trkpt>
      <trkpt lat="47.85258" lon="-3.87508">
        <ele>-8.3999996185303</ele>
        <time>2021-04-05T15:40:09Z</time>
      </trkpt>
      <trkpt lat="47.85274" lon="-3.87515">
        <ele>-9.6000003814697</ele>
        <time>2021-04-05T15:40:11Z</time>
      </trkpt>
      <trkpt lat="47.8529" lon="-3.87522">
        <ele>-11</ele>
        <time>2021-04-05T15:40:13Z</time>
      </trkpt>
      <trkpt lat="47.85336" lon="-3.87548">
        <ele>-10.60000038147</ele>
        <time>2021-04-05T15:40:19Z</time>
      </trkpt>
      <trkpt lat="47.85368" lon="-3.87571">
        <ele>-12.39999961853</ele>
        <time>2021-04-05T15:40:23Z</time>
      </trkpt>
      <trkpt lat="47.85383" lon="-3.87585">
        <ele>-13.39999961853</ele>
        <time>2021-04-05T15:40:25Z</time>
      </trkpt>
      <trkpt lat="47.85428" lon="-3.87627">
        <ele>-15.199999809265</ele>
        <time>2021-04-05T15:40:31Z</time>
      </trkpt>
      <trkpt lat="47.85461" lon="-3.87647">
        <ele>-16.39999961853</ele>
        <time>2021-04-05T15:40:35Z</time>
      </trkpt>
      <trkpt lat="47.85488" lon="-3.87656">
        <ele>-17.39999961853</ele>
        <time>2021-04-05T15:40:38Z</time>
      </trkpt>
      <trkpt lat="47.85525" lon="-3.87667">
        <ele>-19.200000762939</ele>
        <time>2021-04-05T15:40:42Z</time>
      </trkpt>
      <trkpt lat="47.85543" lon="-3.87673">
        <ele>-20.39999961853</ele>
        <time>2021-04-05T15:40:44Z</time>
      </trkpt>
      <trkpt lat="47.85561" lon="-3.87679">
        <ele>-21.799999237061</ele>
        <time>2021-04-05T15:40:46Z</time>
      </trkpt>
      <trkpt lat="47.85598" lon="-3.87689">
        <ele>-20.200000762939</ele>
        <time>2021-04-05T15:40:50Z</time>
      </trkpt>
      <trkpt lat="47.85654" lon="-3.87704">
        <ele>-21.200000762939</ele>
        <time>2021-04-05T15:40:56Z</time>
      </trkpt>
      <trkpt lat="47.85663" lon="-3.87706">
        <ele>-21.200000762939</ele>
        <time>2021-04-05T15:40:57Z</time>
      </trkpt>
      <trkpt lat="47.85714" lon="-3.8772">
        <ele>-20.799999237061</ele>
        <time>2021-04-05T15:41:03Z</time>
      </trkpt>
      <trkpt lat="47.8576" lon="-3.87732">
        <ele>-20.200000762939</ele>
        <time>2021-04-05T15:41:09Z</time>
      </trkpt>
      <trkpt lat="47.85785" lon="-3.8774">
        <ele>-19</ele>
        <time>2021-04-05T15:41:13Z</time>
      </trkpt>
      <trkpt lat="47.85791" lon="-3.87741">
        <ele>-18.799999237061</ele>
        <time>2021-04-05T15:41:14Z</time>
      </trkpt>
      <trkpt lat="47.85802" lon="-3.87739">
        <ele>-17.60000038147</ele>
        <time>2021-04-05T15:41:16Z</time>
      </trkpt>
      <trkpt lat="47.85812" lon="-3.8773">
        <ele>-17.200000762939</ele>
        <time>2021-04-05T15:41:18Z</time>
      </trkpt>
      <trkpt lat="47.8582" lon="-3.87714">
        <ele>-17.39999961853</ele>
        <time>2021-04-05T15:41:20Z</time>
      </trkpt>
      <trkpt lat="47.85824" lon="-3.87694">
        <ele>-17</ele>
        <time>2021-04-05T15:41:22Z</time>
      </trkpt>
      <trkpt lat="47.85827" lon="-3.87675">
        <ele>-16.39999961853</ele>
        <time>2021-04-05T15:41:24Z</time>
      </trkpt>
      <trkpt lat="47.85836" lon="-3.87617">
        <ele>-16</ele>
        <time>2021-04-05T15:41:30Z</time>
      </trkpt>
      <trkpt lat="47.85838" lon="-3.87598">
        <ele>-14.800000190735</ele>
        <time>2021-04-05T15:41:32Z</time>
      </trkpt>
      <trkpt lat="47.85842" lon="-3.87578">
        <ele>-13.39999961853</ele>
        <time>2021-04-05T15:41:34Z</time>
      </trkpt>
      <trkpt lat="47.85845" lon="-3.87558">
        <ele>-12.39999961853</ele>
        <time>2021-04-05T15:41:36Z</time>
      </trkpt>
      <trkpt lat="47.85846" lon="-3.87548">
        <ele>-13.39999961853</ele>
        <time>2021-04-05T15:41:37Z</time>
      </trkpt>
      <trkpt lat="47.85855" lon="-3.8749">
        <ele>-13.39999961853</ele>
        <time>2021-04-05T15:41:43Z</time>
      </trkpt>
      <trkpt lat="47.85864" lon="-3.87443">
        <ele>-12.199999809265</ele>
        <time>2021-04-05T15:41:48Z</time>
      </trkpt>
      <trkpt lat="47.85869" lon="-3.87414">
        <ele>-14</ele>
        <time>2021-04-05T15:41:51Z</time>
      </trkpt>
      <trkpt lat="47.85872" lon="-3.87395">
        <ele>-15.199999809265</ele>
        <time>2021-04-05T15:41:53Z</time>
      </trkpt>
      <trkpt lat="47.85874" lon="-3.87376">
        <ele>-14</ele>
        <time>2021-04-05T15:41:55Z</time>
      </trkpt>
      <trkpt lat="47.85875" lon="-3.87338">
        <ele>-12.60000038147</ele>
        <time>2021-04-05T15:41:59Z</time>
      </trkpt>
      <trkpt lat="47.85875" lon="-3.87292">
        <ele>-13.800000190735</ele>
        <time>2021-04-05T15:42:04Z</time>
      </trkpt>
      <trkpt lat="47.85864" lon="-3.87237">
        <ele>-14.39999961853</ele>
        <time>2021-04-05T15:42:10Z</time>
      </trkpt>
      <trkpt lat="47.85856" lon="-3.8721">
        <ele>-15</ele>
        <time>2021-04-05T15:42:13Z</time>
      </trkpt>
      <trkpt lat="47.85839" lon="-3.87156">
        <ele>-15.39999961853</ele>
        <time>2021-04-05T15:42:19Z</time>
      </trkpt>
      <trkpt lat="47.85828" lon="-3.87123">
        <ele>-14</ele>
        <time>2021-04-05T15:42:23Z</time>
      </trkpt>
      <trkpt lat="47.85818" lon="-3.87094">
        <ele>-12.800000190735</ele>
        <time>2021-04-05T15:42:27Z</time>
      </trkpt>
      <trkpt lat="47.85812" lon="-3.87075">
        <ele>-11.60000038147</ele>
        <time>2021-04-05T15:42:30Z</time>
      </trkpt>
      <trkpt lat="47.85802" lon="-3.87045">
        <ele>-10.60000038147</ele>
        <time>2021-04-05T15:42:35Z</time>
      </trkpt>
      <trkpt lat="47.85789" lon="-3.87005">
        <ele>-10</ele>
        <time>2021-04-05T15:42:41Z</time>
      </trkpt>
      <trkpt lat="47.85785" lon="-3.86991">
        <ele>-9.6000003814697</ele>
        <time>2021-04-05T15:42:43Z</time>
      </trkpt>
      <trkpt lat="47.85776" lon="-3.86963">
        <ele>-8.6000003814697</ele>
        <time>2021-04-05T15:42:47Z</time>
      </trkpt>
      <trkpt lat="47.85771" lon="-3.86948">
        <ele>-7.4000000953674</ele>
        <time>2021-04-05T15:42:49Z</time>
      </trkpt>
      <trkpt lat="47.85764" lon="-3.86918">
        <ele>-6.1999998092651</ele>
        <time>2021-04-05T15:42:53Z</time>
      </trkpt>
      <trkpt lat="47.85753" lon="-3.86871">
        <ele>-5.5999999046326</ele>
        <time>2021-04-05T15:42:59Z</time>
      </trkpt>
      <trkpt lat="47.85749" lon="-3.86855">
        <ele>-5.1999998092651</ele>
        <time>2021-04-05T15:43:01Z</time>
      </trkpt>
      <trkpt lat="47.85743" lon="-3.86824">
        <ele>-3.7999999523163</ele>
        <time>2021-04-05T15:43:05Z</time>
      </trkpt>
      <trkpt lat="47.85732" lon="-3.86777">
        <ele>-3.5999999046326</ele>
        <time>2021-04-05T15:43:11Z</time>
      </trkpt>
      <trkpt lat="47.8572" lon="-3.86726">
        <ele>-3.4000000953674</ele>
        <time>2021-04-05T15:43:17Z</time>
      </trkpt>
      <trkpt lat="47.85708" lon="-3.8667">
        <ele>-3.5999999046326</ele>
        <time>2021-04-05T15:43:23Z</time>
      </trkpt>
      <trkpt lat="47.85695" lon="-3.86608">
        <ele>-3.7999999523163</ele>
        <time>2021-04-05T15:43:29Z</time>
      </trkpt>
      <trkpt lat="47.85682" lon="-3.86551">
        <ele>-5</ele>
        <time>2021-04-05T15:43:34Z</time>
      </trkpt>
      <trkpt lat="47.85679" lon="-3.86539">
        <ele>-6</ele>
        <time>2021-04-05T15:43:35Z</time>
      </trkpt>
      <trkpt lat="47.85673" lon="-3.86514">
        <ele>-7.4000000953674</ele>
        <time>2021-04-05T15:43:37Z</time>
      </trkpt>
      <trkpt lat="47.85656" lon="-3.86441">
        <ele>-7.5999999046326</ele>
        <time>2021-04-05T15:43:43Z</time>
      </trkpt>
      <trkpt lat="47.85651" lon="-3.86418">
        <ele>-9</ele>
        <time>2021-04-05T15:43:45Z</time>
      </trkpt>
      <trkpt lat="47.85651" lon="-3.86406">
        <ele>-10.199999809265</ele>
        <time>2021-04-05T15:43:46Z</time>
      </trkpt>
      <trkpt lat="47.8565" lon="-3.86364">
        <ele>-8</ele>
        <time>2021-04-05T15:43:50Z</time>
      </trkpt>
    </trkseg>
  </trk>
</gpx>